Wetterdaten: Dienstag, 14.05.2024
Datum Zeit Temp. I. Temp. A. Feuchte I. Feuchte A. Luftdruck Regen Wind Richtung Richtung Sonnenschein Solar Taupunkt Windchill Windböen
14.05.2024 00:00 22,4 °C 11,5 °C 52 % 76 % 1012,7 hPa 0,0 l/m² 7,0 km/h (2 Bft) O-NO 77 ° 0 min 0 W/m² 7,4 °C 11,1 °C 12,9 km/h (3 Bft)
14.05.2024 00:02 22,5 °C 11,6 °C 52 % 76 % 1012,6 hPa 0,0 l/m² 6,7 km/h (2 Bft) O 80 ° 0 min 0 W/m² 7,5 °C 11,4 °C 8,0 km/h (2 Bft)
14.05.2024 00:03 22,4 °C 11,6 °C 52 % 76 % 1012,7 hPa 0,0 l/m² 7,4 km/h (2 Bft) O-NO 72 ° 0 min 0 W/m² 7,5 °C 10,9 °C 8,0 km/h (2 Bft)
14.05.2024 00:05 22,4 °C 11,5 °C 52 % 76 % 1012,7 hPa 0,0 l/m² 6,5 km/h (2 Bft) O-NO 73 ° 0 min 0 W/m² 7,4 °C 11,5 °C 8,0 km/h (2 Bft)
14.05.2024 00:07 22,4 °C 11,4 °C 52 % 76 % 1012,6 hPa 0,0 l/m² 6,6 km/h (2 Bft) O 79 ° 0 min 0 W/m² 7,3 °C 11,3 °C 8,0 km/h (2 Bft)
14.05.2024 00:09 22,4 °C 11,4 °C 52 % 77 % 1012,8 hPa 0,0 l/m² 7,1 km/h (2 Bft) O 79 ° 0 min 0 W/m² 7,5 °C 10,9 °C 8,0 km/h (2 Bft)
14.05.2024 00:11 22,4 °C 11,3 °C 52 % 77 % 1012,7 hPa 0,0 l/m² 7,5 km/h (2 Bft) O 82 ° 0 min 0 W/m² 7,4 °C 10,5 °C 12,9 km/h (3 Bft)
14.05.2024 00:12 22,5 °C 11,3 °C 52 % 77 % 1012,7 hPa 0,0 l/m² 6,2 km/h (2 Bft) O 79 ° 0 min 0 W/m² 7,4 °C 11,3 °C 8,0 km/h (2 Bft)
14.05.2024 00:13 22,4 °C 11,3 °C 52 % 77 % 1012,7 hPa 0,0 l/m² 6,0 km/h (2 Bft) O-NO 76 ° 0 min 0 W/m² 7,4 °C 11,3 °C 6,4 km/h (2 Bft)
14.05.2024 00:15 22,4 °C 11,2 °C 52 % 77 % 1012,7 hPa 0,0 l/m² 6,7 km/h (2 Bft) O 80 ° 0 min 0 W/m² 7,3 °C 11,0 °C 8,0 km/h (2 Bft)
14.05.2024 00:17 22,4 °C 11,1 °C 52 % 77 % 1012,7 hPa 0,0 l/m² 6,1 km/h (2 Bft) O 81 ° 0 min 0 W/m² 7,2 °C 11,1 °C 8,0 km/h (2 Bft)
14.05.2024 00:19 22,4 °C 11,1 °C 52 % 77 % 1012,7 hPa 0,0 l/m² 6,5 km/h (2 Bft) O 79 ° 0 min 0 W/m² 7,2 °C 11,1 °C 8,0 km/h (2 Bft)
14.05.2024 00:21 22,4 °C 10,9 °C 52 % 78 % 1012,8 hPa 0,0 l/m² 7,0 km/h (2 Bft) O 79 ° 0 min 0 W/m² 7,2 °C 10,5 °C 8,0 km/h (2 Bft)
14.05.2024 00:22 22,4 °C 10,9 °C 52 % 78 % 1012,6 hPa 0,0 l/m² 6,7 km/h (2 Bft) O-NO 71 ° 0 min 0 W/m² 7,2 °C 10,7 °C 8,0 km/h (2 Bft)
14.05.2024 00:23 22,4 °C 10,9 °C 52 % 78 % 1012,7 hPa 0,0 l/m² 6,7 km/h (2 Bft) O-NO 64 ° 0 min 0 W/m² 7,2 °C 10,7 °C 8,0 km/h (2 Bft)
14.05.2024 00:25 22,4 °C 10,9 °C 52 % 78 % 1012,7 hPa 0,0 l/m² 6,5 km/h (2 Bft) O-NO 66 ° 0 min 0 W/m² 7,2 °C 10,9 °C 9,7 km/h (2 Bft)
14.05.2024 00:27 22,4 °C 11,0 °C 52 % 78 % 1012,6 hPa 0,0 l/m² 6,0 km/h (2 Bft) O-NO 67 ° 0 min 0 W/m² 7,3 °C 11,0 °C 11,3 km/h (2 Bft)
14.05.2024 00:29 22,4 °C 11,1 °C 52 % 77 % 1012,7 hPa 0,0 l/m² 7,9 km/h (2 Bft) O-NO 73 ° 0 min 0 W/m² 7,2 °C 10,1 °C 12,9 km/h (3 Bft)
14.05.2024 00:31 22,4 °C 11,3 °C 52 % 76 % 1012,7 hPa 0,0 l/m² 7,4 km/h (2 Bft) O-NO 69 ° 0 min 0 W/m² 7,2 °C 10,6 °C 11,3 km/h (2 Bft)
14.05.2024 00:32 22,4 °C 11,3 °C 52 % 76 % 1012,7 hPa 0,0 l/m² 7,4 km/h (2 Bft) O-NO 74 ° 0 min 0 W/m² 7,2 °C 10,6 °C 9,7 km/h (2 Bft)
14.05.2024 00:33 22,4 °C 11,3 °C 52 % 76 % 1012,7 hPa 0,0 l/m² 7,1 km/h (2 Bft) O 79 ° 0 min 0 W/m² 7,2 °C 10,8 °C 11,3 km/h (2 Bft)
14.05.2024 00:35 22,4 °C 11,4 °C 52 % 75 % 1012,7 hPa 0,0 l/m² 7,1 km/h (2 Bft) O-NO 77 ° 0 min 0 W/m² 7,1 °C 10,9 °C 11,3 km/h (2 Bft)
14.05.2024 00:37 22,4 °C 11,4 °C 52 % 76 % 1012,6 hPa 0,0 l/m² 7,1 km/h (2 Bft) O-NO 78 ° 0 min 0 W/m² 7,3 °C 10,9 °C 9,7 km/h (2 Bft)
14.05.2024 00:39 22,4 °C 11,3 °C 52 % 76 % 1012,6 hPa 0,0 l/m² 7,0 km/h (2 Bft) O-NO 75 ° 0 min 0 W/m² 7,2 °C 10,9 °C 12,9 km/h (3 Bft)
14.05.2024 00:41 22,4 °C 11,3 °C 52 % 76 % 1012,6 hPa 0,0 l/m² 7,0 km/h (2 Bft) O-NO 75 ° 0 min 0 W/m² 7,2 °C 10,9 °C 11,3 km/h (2 Bft)
14.05.2024 00:42 22,4 °C 11,2 °C 52 % 76 % 1012,6 hPa 0,0 l/m² 7,0 km/h (2 Bft) O-NO 77 ° 0 min 0 W/m² 7,1 °C 10,8 °C 11,3 km/h (2 Bft)
14.05.2024 00:43 22,4 °C 11,3 °C 52 % 77 % 1012,7 hPa 0,0 l/m² 7,5 km/h (2 Bft) O-NO 65 ° 0 min 0 W/m² 7,4 °C 10,5 °C 9,7 km/h (2 Bft)
14.05.2024 00:46 22,4 °C 11,2 °C 52 % 77 % 1012,6 hPa 0,0 l/m² 7,4 km/h (2 Bft) NO 56 ° 0 min 0 W/m² 7,3 °C 10,5 °C 11,3 km/h (2 Bft)
14.05.2024 00:48 22,4 °C 11,1 °C 52 % 77 % 1012,6 hPa 0,0 l/m² 7,5 km/h (2 Bft) O-NO 67 ° 0 min 0 W/m² 7,2 °C 10,3 °C 12,9 km/h (3 Bft)
14.05.2024 00:50 22,4 °C 11,0 °C 52 % 77 % 1012,6 hPa 0,0 l/m² 7,3 km/h (2 Bft) O 80 ° 0 min 0 W/m² 7,1 °C 10,4 °C 11,3 km/h (2 Bft)
14.05.2024 00:52 22,4 °C 10,9 °C 52 % 78 % 1012,6 hPa 0,0 l/m² 6,2 km/h (2 Bft) O-NO 78 ° 0 min 0 W/m² 7,2 °C 10,9 °C 8,0 km/h (2 Bft)
14.05.2024 00:53 22,4 °C 10,9 °C 52 % 78 % 1012,6 hPa 0,0 l/m² 5,9 km/h (2 Bft) O-NO 78 ° 0 min 0 W/m² 7,2 °C 10,9 °C 8,0 km/h (2 Bft)
14.05.2024 00:54 22,4 °C 10,9 °C 52 % 78 % 1012,6 hPa 0,0 l/m² 6,2 km/h (2 Bft) O-NO 76 ° 0 min 0 W/m² 7,2 °C 10,9 °C 6,4 km/h (2 Bft)
14.05.2024 00:56 22,4 °C 10,8 °C 52 % 78 % 1012,6 hPa 0,0 l/m² 5,7 km/h (2 Bft) O-NO 76 ° 0 min 0 W/m² 7,1 °C 10,8 °C 6,4 km/h (2 Bft)
14.05.2024 00:58 22,4 °C 10,8 °C 52 % 78 % 1012,6 hPa 0,0 l/m² 6,4 km/h (2 Bft) O-NO 75 ° 0 min 0 W/m² 7,1 °C 10,8 °C 8,0 km/h (2 Bft)
14.05.2024 01:00 22,4 °C 10,7 °C 52 % 78 % 1012,5 hPa 0,0 l/m² 5,7 km/h (2 Bft) O-NO 69 ° 0 min 0 W/m² 7,0 °C 10,7 °C 6,4 km/h (2 Bft)
14.05.2024 01:02 22,4 °C 10,6 °C 52 % 79 % 1012,5 hPa 0,0 l/m² 5,6 km/h (2 Bft) O-NO 78 ° 0 min 0 W/m² 7,1 °C 10,6 °C 6,4 km/h (2 Bft)
14.05.2024 01:03 22,4 °C 10,6 °C 52 % 78 % 1012,4 hPa 0,0 l/m² 6,1 km/h (2 Bft) O 84 ° 0 min 0 W/m² 6,9 °C 10,6 °C 8,0 km/h (2 Bft)
14.05.2024 01:04 22,4 °C 10,6 °C 52 % 79 % 1012,4 hPa 0,0 l/m² 5,6 km/h (2 Bft) O 82 ° 0 min 0 W/m² 7,1 °C 10,6 °C 6,4 km/h (2 Bft)
14.05.2024 01:06 22,4 °C 10,4 °C 53 % 79 % 1012,5 hPa 0,0 l/m² 5,6 km/h (2 Bft) O-NO 75 ° 0 min 0 W/m² 6,9 °C 10,4 °C 8,0 km/h (2 Bft)
14.05.2024 01:08 22,4 °C 10,4 °C 52 % 80 % 1012,5 hPa 0,0 l/m² 5,9 km/h (2 Bft) O-NO 72 ° 0 min 0 W/m² 7,1 °C 10,4 °C 8,0 km/h (2 Bft)
14.05.2024 01:10 22,4 °C 10,3 °C 53 % 79 % 1012,5 hPa 0,0 l/m² 5,3 km/h (1 Bft) O 80 ° 0 min 0 W/m² 6,8 °C 10,3 °C 8,0 km/h (2 Bft)
14.05.2024 01:12 22,4 °C 10,2 °C 53 % 80 % 1012,5 hPa 0,0 l/m² 5,8 km/h (2 Bft) O 80 ° 0 min 0 W/m² 6,9 °C 10,2 °C 8,0 km/h (2 Bft)
14.05.2024 01:13 22,4 °C 10,2 °C 53 % 80 % 1012,5 hPa 0,0 l/m² 6,0 km/h (2 Bft) O 80 ° 0 min 0 W/m² 6,9 °C 10,2 °C 6,4 km/h (2 Bft)
14.05.2024 01:14 22,4 °C 10,1 °C 53 % 80 % 1012,4 hPa 0,0 l/m² 5,9 km/h (2 Bft) O 80 ° 0 min 0 W/m² 6,8 °C 10,1 °C 6,4 km/h (2 Bft)
14.05.2024 01:16 22,3 °C 10,1 °C 53 % 80 % 1012,4 hPa 0,0 l/m² 6,3 km/h (2 Bft) O 80 ° 0 min 0 W/m² 6,8 °C 10,1 °C 8,0 km/h (2 Bft)
14.05.2024 01:17 22,4 °C 10,1 °C 53 % 80 % 1012,5 hPa 0,0 l/m² 6,8 km/h (2 Bft) O-NO 69 ° 0 min 0 W/m² 6,8 °C 9,8 °C 8,0 km/h (2 Bft)
14.05.2024 01:19 22,4 °C 9,9 °C 53 % 80 % 1012,5 hPa 0,0 l/m² 6,7 km/h (2 Bft) O 80 ° 0 min 0 W/m² 6,6 °C 9,7 °C 8,0 km/h (2 Bft)
14.05.2024 01:21 22,4 °C 9,9 °C 53 % 81 % 1012,5 hPa 0,0 l/m² 5,7 km/h (2 Bft) O-NO 77 ° 0 min 0 W/m² 6,8 °C 9,9 °C 8,0 km/h (2 Bft)
14.05.2024 01:22 22,4 °C 9,9 °C 53 % 81 % 1012,4 hPa 0,0 l/m² 5,1 km/h (1 Bft) O 80 ° 0 min 0 W/m² 6,8 °C 9,9 °C 6,4 km/h (2 Bft)
14.05.2024 01:23 22,4 °C 9,9 °C 53 % 81 % 1012,5 hPa 0,0 l/m² 4,9 km/h (1 Bft) O 80 ° 0 min 0 W/m² 6,8 °C 9,9 °C 6,4 km/h (2 Bft)
14.05.2024 01:25 22,3 °C 9,8 °C 53 % 81 % 1012,5 hPa 0,0 l/m² 5,4 km/h (2 Bft) O 82 ° 0 min 0 W/m² 6,7 °C 9,8 °C 6,4 km/h (2 Bft)
14.05.2024 01:27 22,3 °C 9,8 °C 53 % 81 % 1012,5 hPa 0,0 l/m² 5,0 km/h (1 Bft) O 82 ° 0 min 0 W/m² 6,7 °C 9,8 °C 6,4 km/h (2 Bft)
14.05.2024 01:29 22,3 °C 9,9 °C 53 % 81 % 1012,5 hPa 0,0 l/m² 4,8 km/h (1 Bft) O 82 ° 0 min 0 W/m² 6,8 °C 9,9 °C 6,4 km/h (2 Bft)
14.05.2024 01:31 22,3 °C 9,9 °C 53 % 80 % 1012,5 hPa 0,0 l/m² 4,9 km/h (1 Bft) O 82 ° 0 min 0 W/m² 6,6 °C 9,9 °C 6,4 km/h (2 Bft)
14.05.2024 01:32 22,3 °C 9,9 °C 53 % 81 % 1012,5 hPa 0,0 l/m² 4,9 km/h (1 Bft) O 82 ° 0 min 0 W/m² 6,8 °C 9,9 °C 6,4 km/h (2 Bft)
14.05.2024 01:33 22,3 °C 9,9 °C 53 % 81 % 1012,5 hPa 0,0 l/m² 4,9 km/h (1 Bft) O 82 ° 0 min 0 W/m² 6,8 °C 9,9 °C 6,4 km/h (2 Bft)
14.05.2024 01:35 22,3 °C 9,9 °C 53 % 80 % 1012,5 hPa 0,0 l/m² 4,4 km/h (1 Bft) O 82 ° 0 min 0 W/m² 6,6 °C 9,9 °C 4,8 km/h (1 Bft)
14.05.2024 01:37 22,3 °C 10,0 °C 53 % 80 % 1012,5 hPa 0,0 l/m² 3,9 km/h (1 Bft) O 82 ° 0 min 0 W/m² 6,7 °C 10,0 °C 4,8 km/h (1 Bft)
14.05.2024 01:39 22,3 °C 10,1 °C 53 % 80 % 1012,5 hPa 0,0 l/m² 4,1 km/h (1 Bft) O 80 ° 0 min 0 W/m² 6,8 °C 10,1 °C 4,8 km/h (1 Bft)
14.05.2024 01:41 22,3 °C 10,2 °C 53 % 79 % 1012,4 hPa 0,0 l/m² 3,9 km/h (1 Bft) O 80 ° 0 min 0 W/m² 6,7 °C 10,2 °C 4,8 km/h (1 Bft)
14.05.2024 01:42 22,3 °C 10,3 °C 53 % 79 % 1012,4 hPa 0,0 l/m² 4,1 km/h (1 Bft) O 80 ° 0 min 0 W/m² 6,8 °C 10,3 °C 4,8 km/h (1 Bft)
14.05.2024 01:43 22,3 °C 10,3 °C 53 % 79 % 1012,4 hPa 0,0 l/m² 4,4 km/h (1 Bft) O 80 ° 0 min 0 W/m² 6,8 °C 10,3 °C 4,8 km/h (1 Bft)
14.05.2024 01:45 22,3 °C 10,3 °C 53 % 79 % 1012,4 hPa 0,0 l/m² 3,2 km/h (1 Bft) O-NO 74 ° 0 min 0 W/m² 6,8 °C 10,3 °C 4,8 km/h (1 Bft)
14.05.2024 01:47 22,3 °C 10,3 °C 53 % 78 % 1012,4 hPa 0,0 l/m² 3,1 km/h (1 Bft) O-NO 70 ° 0 min 0 W/m² 6,6 °C 10,3 °C 4,8 km/h (1 Bft)
14.05.2024 01:49 22,3 °C 10,4 °C 53 % 78 % 1012,4 hPa 0,0 l/m² 3,0 km/h (1 Bft) O-NO 74 ° 0 min 0 W/m² 6,7 °C 10,4 °C 4,8 km/h (1 Bft)
14.05.2024 01:51 22,3 °C 10,6 °C 53 % 78 % 1012,3 hPa 0,0 l/m² 2,9 km/h (1 Bft) O-NO 68 ° 0 min 0 W/m² 6,9 °C 10,6 °C 4,8 km/h (1 Bft)
14.05.2024 01:52 22,3 °C 10,6 °C 53 % 77 % 1012,4 hPa 0,0 l/m² 2,3 km/h (1 Bft) O-NO 68 ° 0 min 0 W/m² 6,7 °C 10,6 °C 3,2 km/h (1 Bft)
14.05.2024 01:53 22,3 °C 10,6 °C 53 % 77 % 1012,4 hPa 0,0 l/m² 2,9 km/h (1 Bft) O-NO 68 ° 0 min 0 W/m² 6,7 °C 10,6 °C 4,8 km/h (1 Bft)
14.05.2024 01:55 22,3 °C 10,4 °C 53 % 77 % 1012,4 hPa 0,0 l/m² 3,4 km/h (1 Bft) O-NO 68 ° 0 min 0 W/m² 6,5 °C 10,4 °C 4,8 km/h (1 Bft)
14.05.2024 01:57 22,3 °C 10,1 °C 53 % 77 % 1012,4 hPa 0,0 l/m² 3,3 km/h (1 Bft) O 86 ° 0 min 0 W/m² 6,3 °C 10,1 °C 4,8 km/h (1 Bft)
14.05.2024 01:59 22,3 °C 9,7 °C 53 % 79 % 1012,4 hPa 0,0 l/m² 0,1 km/h (0 Bft) O 86 ° 0 min 0 W/m² 6,2 °C 9,7 °C 1,6 km/h (1 Bft)
14.05.2024 02:01 22,3 °C 9,4 °C 53 % 81 % 1012,3 hPa 0,0 l/m² 0,0 km/h (0 Bft) O 86 ° 0 min 0 W/m² 6,3 °C 9,4 °C 0,0 km/h (0 Bft)
14.05.2024 02:02 22,3 °C 9,3 °C 53 % 81 % 1012,3 hPa 0,0 l/m² 0,0 km/h (0 Bft) O 86 ° 0 min 0 W/m² 6,2 °C 9,3 °C 0,0 km/h (0 Bft)
14.05.2024 02:03 22,3 °C 9,3 °C 53 % 81 % 1012,3 hPa 0,0 l/m² 0,0 km/h (0 Bft) O 86 ° 0 min 0 W/m² 6,2 °C 9,3 °C 0,0 km/h (0 Bft)
14.05.2024 02:05 22,3 °C 9,2 °C 53 % 82 % 1012,3 hPa 0,0 l/m² 0,0 km/h (0 Bft) O 86 ° 0 min 0 W/m² 6,3 °C 9,2 °C 0,0 km/h (0 Bft)
14.05.2024 02:07 22,3 °C 9,3 °C 53 % 83 % 1012,3 hPa 0,0 l/m² 0,0 km/h (0 Bft) O 86 ° 0 min 0 W/m² 6,6 °C 9,3 °C 0,0 km/h (0 Bft)
14.05.2024 02:09 22,3 °C 9,3 °C 53 % 82 % 1012,3 hPa 0,0 l/m² 0,0 km/h (0 Bft) O 86 ° 0 min 0 W/m² 6,4 °C 9,3 °C 0,0 km/h (0 Bft)
14.05.2024 02:11 22,3 °C 9,2 °C 53 % 82 % 1012,3 hPa 0,0 l/m² 0,0 km/h (0 Bft) O 86 ° 0 min 0 W/m² 6,3 °C 9,2 °C 0,0 km/h (0 Bft)
14.05.2024 02:13 22,3 °C 8,7 °C 53 % 81 % 1012,4 hPa 0,0 l/m² 0,0 km/h (0 Bft) O 86 ° 0 min 0 W/m² 5,6 °C 8,7 °C 0,0 km/h (0 Bft)
14.05.2024 02:14 22,3 °C 8,4 °C 53 % 81 % 1012,4 hPa 0,0 l/m² 0,0 km/h (0 Bft) O 86 ° 0 min 0 W/m² 5,3 °C 8,4 °C 0,0 km/h (0 Bft)
14.05.2024 02:15 22,3 °C 8,2 °C 53 % 82 % 1012,3 hPa 0,0 l/m² 0,0 km/h (0 Bft) O 86 ° 0 min 0 W/m² 5,3 °C 8,2 °C 0,0 km/h (0 Bft)
14.05.2024 02:17 22,3 °C 7,8 °C 53 % 83 % 1012,3 hPa 0,0 l/m² 0,0 km/h (0 Bft) O 86 ° 0 min 0 W/m² 5,1 °C 7,8 °C 0,0 km/h (0 Bft)
14.05.2024 02:19 22,3 °C 7,6 °C 53 % 84 % 1012,3 hPa 0,0 l/m² 0,0 km/h (0 Bft) O-SO 113 ° 0 min 0 W/m² 5,1 °C 7,6 °C 0,0 km/h (0 Bft)
14.05.2024 02:21 22,3 °C 7,5 °C 53 % 85 % 1012,3 hPa 0,0 l/m² 0,0 km/h (0 Bft) O-SO 113 ° 0 min 0 W/m² 5,1 °C 7,5 °C 0,0 km/h (0 Bft)
14.05.2024 02:22 22,3 °C 7,6 °C 53 % 86 % 1012,3 hPa 0,0 l/m² 0,0 km/h (0 Bft) O-SO 113 ° 0 min 0 W/m² 5,4 °C 7,6 °C 0,0 km/h (0 Bft)
14.05.2024 02:23 22,3 °C 7,6 °C 53 % 86 % 1012,2 hPa 0,0 l/m² 0,0 km/h (0 Bft) O-SO 113 ° 0 min 0 W/m² 5,4 °C 7,6 °C 0,0 km/h (0 Bft)
14.05.2024 02:25 22,3 °C 7,8 °C 53 % 87 % 1012,3 hPa 0,0 l/m² 0,0 km/h (0 Bft) O-SO 113 ° 0 min 0 W/m² 5,8 °C 7,8 °C 0,0 km/h (0 Bft)
14.05.2024 02:27 22,3 °C 8,0 °C 53 % 87 % 1012,3 hPa 0,0 l/m² 0,0 km/h (0 Bft) O-SO 113 ° 0 min 0 W/m² 6,0 °C 8,0 °C 0,0 km/h (0 Bft)
14.05.2024 02:29 22,3 °C 8,2 °C 53 % 87 % 1012,2 hPa 0,0 l/m² 0,0 km/h (0 Bft) O-SO 113 ° 0 min 0 W/m² 6,2 °C 8,2 °C 0,0 km/h (0 Bft)
14.05.2024 02:31 22,3 °C 8,3 °C 53 % 88 % 1012,3 hPa 0,0 l/m² 0,0 km/h (0 Bft) O-SO 113 ° 0 min 0 W/m² 6,4 °C 8,3 °C 0,0 km/h (0 Bft)
14.05.2024 02:32 22,3 °C 8,3 °C 53 % 88 % 1012,2 hPa 0,0 l/m² 0,0 km/h (0 Bft) O-SO 113 ° 0 min 0 W/m² 6,4 °C 8,3 °C 0,0 km/h (0 Bft)
14.05.2024 02:33 22,3 °C 8,3 °C 53 % 87 % 1012,3 hPa 0,0 l/m² 0,0 km/h (0 Bft) O-SO 113 ° 0 min 0 W/m² 6,3 °C 8,3 °C 0,0 km/h (0 Bft)
14.05.2024 02:35 22,3 °C 8,3 °C 53 % 87 % 1012,3 hPa 0,0 l/m² 0,0 km/h (0 Bft) O-SO 113 ° 0 min 0 W/m² 6,3 °C 8,3 °C 0,0 km/h (0 Bft)
14.05.2024 02:37 22,3 °C 8,4 °C 53 % 87 % 1012,2 hPa 0,0 l/m² 0,0 km/h (0 Bft) O-SO 113 ° 0 min 0 W/m² 6,4 °C 8,4 °C 0,0 km/h (0 Bft)
14.05.2024 02:39 22,3 °C 8,3 °C 53 % 87 % 1012,2 hPa 0,0 l/m² 0,0 km/h (0 Bft) O-SO 113 ° 0 min 0 W/m² 6,3 °C 8,3 °C 0,0 km/h (0 Bft)
14.05.2024 02:41 22,3 °C 8,4 °C 53 % 88 % 1012,2 hPa 0,0 l/m² 0,0 km/h (0 Bft) O-SO 113 ° 0 min 0 W/m² 6,5 °C 8,4 °C 0,0 km/h (0 Bft)
14.05.2024 02:42 22,3 °C 8,4 °C 53 % 88 % 1012,2 hPa 0,0 l/m² 0,0 km/h (0 Bft) O-SO 113 ° 0 min 0 W/m² 6,5 °C 8,4 °C 0,0 km/h (0 Bft)
14.05.2024 02:43 22,3 °C 8,3 °C 53 % 88 % 1012,2 hPa 0,0 l/m² 0,0 km/h (0 Bft) O-SO 113 ° 0 min 0 W/m² 6,4 °C 8,3 °C 0,0 km/h (0 Bft)
14.05.2024 02:45 22,3 °C 8,3 °C 53 % 88 % 1012,2 hPa 0,0 l/m² 0,0 km/h (0 Bft) O-SO 113 ° 0 min 0 W/m² 6,4 °C 8,3 °C 0,0 km/h (0 Bft)
14.05.2024 02:47 22,3 °C 8,3 °C 53 % 88 % 1012,2 hPa 0,0 l/m² 0,0 km/h (0 Bft) O-SO 113 ° 0 min 0 W/m² 6,4 °C 8,3 °C 0,0 km/h (0 Bft)
14.05.2024 02:49 22,3 °C 8,2 °C 53 % 88 % 1012,2 hPa 0,0 l/m² 0,0 km/h (0 Bft) O-SO 113 ° 0 min 0 W/m² 6,3 °C 8,2 °C 0,0 km/h (0 Bft)
14.05.2024 02:51 22,3 °C 8,2 °C 53 % 88 % 1012,1 hPa 0,0 l/m² 0,0 km/h (0 Bft) O-SO 113 ° 0 min 0 W/m² 6,3 °C 8,2 °C 0,0 km/h (0 Bft)
14.05.2024 02:52 22,3 °C 8,2 °C 53 % 88 % 1012,2 hPa 0,0 l/m² 0,0 km/h (0 Bft) O-SO 113 ° 0 min 0 W/m² 6,3 °C 8,2 °C 0,0 km/h (0 Bft)
14.05.2024 02:53 22,3 °C 8,2 °C 53 % 88 % 1012,2 hPa 0,0 l/m² 0,0 km/h (0 Bft) O-SO 113 ° 0 min 0 W/m² 6,3 °C 8,2 °C 0,0 km/h (0 Bft)
14.05.2024 02:55 22,3 °C 8,2 °C 53 % 88 % 1012,1 hPa 0,0 l/m² 0,0 km/h (0 Bft) O-SO 113 ° 0 min 0 W/m² 6,3 °C 8,2 °C 0,0 km/h (0 Bft)
14.05.2024 02:57 22,3 °C 8,3 °C 53 % 88 % 1012,1 hPa 0,0 l/m² 0,9 km/h (0 Bft) O-SO 113 ° 0 min 0 W/m² 6,4 °C 8,3 °C 1,6 km/h (1 Bft)
14.05.2024 02:59 22,3 °C 8,3 °C 53 % 88 % 1012,1 hPa 0,0 l/m² 0,5 km/h (0 Bft) O-SO 113 ° 0 min 0 W/m² 6,4 °C 8,3 °C 1,6 km/h (1 Bft)
14.05.2024 03:00 22,3 °C 8,2 °C 53 % 87 % 1012,1 hPa 0,0 l/m² 0,0 km/h (0 Bft) N 0 ° 0 min 0 W/m² 6,2 °C 8,2 °C 0,0 km/h (0 Bft)
14.05.2024 03:01 22,3 °C 8,1 °C 53 % 87 % 1012,1 hPa 0,0 l/m² 0,0 km/h (0 Bft) N 0 ° 0 min 0 W/m² 6,1 °C 8,1 °C 0,0 km/h (0 Bft)
14.05.2024 03:08 22,3 °C 7,5 °C 53 % 88 % 1012,1 hPa 0,0 l/m² 0,0 km/h (0 Bft) O-SO 113 ° 0 min 0 W/m² 5,6 °C 7,5 °C 0,0 km/h (0 Bft)
14.05.2024 03:09 22,3 °C 7,6 °C 53 % 89 % 1012,1 hPa 0,0 l/m² 0,0 km/h (0 Bft) O-SO 113 ° 0 min 0 W/m² 5,9 °C 7,6 °C 0,0 km/h (0 Bft)
14.05.2024 03:11 22,3 °C 7,7 °C 53 % 89 % 1012,1 hPa 0,0 l/m² 0,0 km/h (0 Bft) O-SO 113 ° 0 min 0 W/m² 6,0 °C 7,7 °C 0,0 km/h (0 Bft)
14.05.2024 03:12 22,3 °C 7,7 °C 53 % 89 % 1012,1 hPa 0,0 l/m² 0,1 km/h (0 Bft) O-SO 113 ° 0 min 0 W/m² 6,0 °C 7,7 °C 1,6 km/h (1 Bft)
14.05.2024 03:13 22,2 °C 7,8 °C 53 % 89 % 1012,1 hPa 0,0 l/m² 1,3 km/h (1 Bft) O-SO 113 ° 0 min 0 W/m² 6,1 °C 7,8 °C 1,6 km/h (1 Bft)
14.05.2024 03:15 22,3 °C 7,9 °C 53 % 90 % 1012,0 hPa 0,0 l/m² 1,4 km/h (1 Bft) O-SO 113 ° 0 min 0 W/m² 6,4 °C 7,9 °C 3,2 km/h (1 Bft)
14.05.2024 03:17 22,3 °C 7,8 °C 53 % 89 % 1012,0 hPa 0,0 l/m² 0,6 km/h (0 Bft) O-SO 113 ° 0 min 0 W/m² 6,1 °C 7,8 °C 3,2 km/h (1 Bft)
14.05.2024 03:19 22,2 °C 7,7 °C 53 % 89 % 1012,1 hPa 0,0 l/m² 0,0 km/h (0 Bft) O-SO 113 ° 0 min 0 W/m² 6,0 °C 7,7 °C 0,0 km/h (0 Bft)
14.05.2024 03:20 22,3 °C 7,7 °C 53 % 89 % 1012,1 hPa 0,0 l/m² 0,0 km/h (0 Bft) O-SO 113 ° 0 min 0 W/m² 6,0 °C 7,7 °C 0,0 km/h (0 Bft)
14.05.2024 03:22 22,3 °C 7,6 °C 53 % 89 % 1012,1 hPa 0,0 l/m² 0,0 km/h (0 Bft) O-SO 113 ° 0 min 0 W/m² 5,9 °C 7,6 °C 0,0 km/h (0 Bft)
14.05.2024 03:23 22,3 °C 7,5 °C 53 % 89 % 1012,0 hPa 0,0 l/m² 0,0 km/h (0 Bft) O-SO 113 ° 0 min 0 W/m² 5,8 °C 7,5 °C 0,0 km/h (0 Bft)
14.05.2024 03:25 22,3 °C 7,4 °C 53 % 89 % 1012,1 hPa 0,0 l/m² 0,0 km/h (0 Bft) O-SO 113 ° 0 min 0 W/m² 5,7 °C 7,4 °C 1,6 km/h (1 Bft)
14.05.2024 03:27 22,3 °C 7,4 °C 53 % 90 % 1012,1 hPa 0,0 l/m² 0,0 km/h (0 Bft) O-SO 113 ° 0 min 0 W/m² 5,9 °C 7,4 °C 0,0 km/h (0 Bft)
14.05.2024 03:29 22,3 °C 7,6 °C 53 % 90 % 1012,1 hPa 0,0 l/m² 0,0 km/h (0 Bft) O-SO 113 ° 0 min 0 W/m² 6,1 °C 7,6 °C 0,0 km/h (0 Bft)
14.05.2024 03:30 22,3 °C 7,7 °C 53 % 90 % 1012,0 hPa 0,0 l/m² 0,0 km/h (0 Bft) O-SO 113 ° 0 min 0 W/m² 6,2 °C 7,7 °C 0,0 km/h (0 Bft)
14.05.2024 03:32 22,3 °C 7,8 °C 53 % 90 % 1012,1 hPa 0,0 l/m² 0,0 km/h (0 Bft) O-SO 113 ° 0 min 0 W/m² 6,3 °C 7,8 °C 0,0 km/h (0 Bft)
14.05.2024 03:33 22,3 °C 7,8 °C 53 % 90 % 1012,1 hPa 0,0 l/m² 0,0 km/h (0 Bft) O-SO 113 ° 0 min 0 W/m² 6,3 °C 7,8 °C 0,0 km/h (0 Bft)
14.05.2024 03:35 22,2 °C 7,9 °C 53 % 90 % 1012,1 hPa 0,0 l/m² 0,0 km/h (0 Bft) O-SO 113 ° 0 min 0 W/m² 6,4 °C 7,9 °C 0,0 km/h (0 Bft)
14.05.2024 03:37 22,3 °C 7,9 °C 53 % 89 % 1012,1 hPa 0,0 l/m² 0,0 km/h (0 Bft) O-SO 113 ° 0 min 0 W/m² 6,2 °C 7,9 °C 0,0 km/h (0 Bft)
14.05.2024 03:39 22,3 °C 7,8 °C 53 % 89 % 1012,1 hPa 0,0 l/m² 0,0 km/h (0 Bft) O-SO 113 ° 0 min 0 W/m² 6,1 °C 7,8 °C 0,0 km/h (0 Bft)
14.05.2024 03:40 22,3 °C 7,7 °C 53 % 89 % 1012,2 hPa 0,0 l/m² 0,0 km/h (0 Bft) O-SO 113 ° 0 min 0 W/m² 6,0 °C 7,7 °C 0,0 km/h (0 Bft)
14.05.2024 03:42 22,2 °C 7,6 °C 53 % 89 % 1012,1 hPa 0,0 l/m² 0,0 km/h (0 Bft) O-SO 113 ° 0 min 0 W/m² 5,9 °C 7,6 °C 0,0 km/h (0 Bft)
14.05.2024 03:43 22,3 °C 7,6 °C 53 % 89 % 1012,2 hPa 0,0 l/m² 0,0 km/h (0 Bft) O-SO 113 ° 0 min 0 W/m² 5,9 °C 7,6 °C 0,0 km/h (0 Bft)
14.05.2024 03:45 22,3 °C 7,5 °C 53 % 89 % 1012,1 hPa 0,0 l/m² 0,0 km/h (0 Bft) O-SO 113 ° 0 min 0 W/m² 5,8 °C 7,5 °C 0,0 km/h (0 Bft)
14.05.2024 03:48 22,3 °C 7,4 °C 53 % 89 % 1012,1 hPa 0,0 l/m² 0,0 km/h (0 Bft) O-SO 113 ° 0 min 0 W/m² 5,7 °C 7,4 °C 0,0 km/h (0 Bft)
14.05.2024 03:50 22,3 °C 7,4 °C 53 % 89 % 1012,2 hPa 0,0 l/m² 0,0 km/h (0 Bft) O-SO 113 ° 0 min 0 W/m² 5,7 °C 7,4 °C 0,0 km/h (0 Bft)
14.05.2024 03:51 22,3 °C 7,4 °C 53 % 89 % 1012,2 hPa 0,0 l/m² 0,0 km/h (0 Bft) O-SO 113 ° 0 min 0 W/m² 5,7 °C 7,4 °C 0,0 km/h (0 Bft)
14.05.2024 03:52 22,2 °C 7,4 °C 53 % 89 % 1012,2 hPa 0,0 l/m² 0,0 km/h (0 Bft) O-SO 113 ° 0 min 0 W/m² 5,7 °C 7,4 °C 0,0 km/h (0 Bft)
14.05.2024 03:53 22,2 °C 7,4 °C 53 % 89 % 1012,2 hPa 0,0 l/m² 0,0 km/h (0 Bft) O-SO 113 ° 0 min 0 W/m² 5,7 °C 7,4 °C 0,0 km/h (0 Bft)
14.05.2024 03:55 22,2 °C 7,4 °C 53 % 89 % 1012,2 hPa 0,0 l/m² 0,0 km/h (0 Bft) O-SO 113 ° 0 min 0 W/m² 5,7 °C 7,4 °C 0,0 km/h (0 Bft)
14.05.2024 03:57 22,3 °C 7,4 °C 53 % 88 % 1012,1 hPa 0,0 l/m² 0,0 km/h (0 Bft) O-SO 113 ° 0 min 0 W/m² 5,5 °C 7,4 °C 0,0 km/h (0 Bft)
14.05.2024 03:59 22,3 °C 7,4 °C 53 % 89 % 1012,2 hPa 0,0 l/m² 0,0 km/h (0 Bft) O-SO 113 ° 0 min 0 W/m² 5,7 °C 7,4 °C 0,0 km/h (0 Bft)
14.05.2024 04:00 22,3 °C 7,4 °C 53 % 89 % 1012,1 hPa 0,0 l/m² 0,0 km/h (0 Bft) O-SO 113 ° 0 min 0 W/m² 5,7 °C 7,4 °C 0,0 km/h (0 Bft)
14.05.2024 04:02 22,3 °C 7,4 °C 53 % 88 % 1012,2 hPa 0,0 l/m² 0,0 km/h (0 Bft) O-SO 113 ° 0 min 0 W/m² 5,5 °C 7,4 °C 0,0 km/h (0 Bft)
14.05.2024 04:03 22,3 °C 7,4 °C 53 % 88 % 1012,2 hPa 0,0 l/m² 0,0 km/h (0 Bft) O-SO 113 ° 0 min 0 W/m² 5,5 °C 7,4 °C 0,0 km/h (0 Bft)
14.05.2024 04:05 22,2 °C 7,5 °C 53 % 89 % 1012,1 hPa 0,0 l/m² 0,0 km/h (0 Bft) O-SO 113 ° 0 min 0 W/m² 5,8 °C 7,5 °C 0,0 km/h (0 Bft)
14.05.2024 04:07 22,3 °C 7,4 °C 53 % 88 % 1012,1 hPa 0,0 l/m² 0,0 km/h (0 Bft) O-SO 113 ° 0 min 0 W/m² 5,5 °C 7,4 °C 0,0 km/h (0 Bft)
14.05.2024 04:09 22,3 °C 7,4 °C 53 % 89 % 1012,2 hPa 0,0 l/m² 0,0 km/h (0 Bft) O-SO 113 ° 0 min 0 W/m² 5,7 °C 7,4 °C 0,0 km/h (0 Bft)
14.05.2024 04:10 22,3 °C 7,4 °C 53 % 89 % 1012,1 hPa 0,0 l/m² 0,0 km/h (0 Bft) O-SO 113 ° 0 min 0 W/m² 5,7 °C 7,4 °C 0,0 km/h (0 Bft)
14.05.2024 04:12 22,3 °C 7,4 °C 53 % 89 % 1012,2 hPa 0,0 l/m² 0,0 km/h (0 Bft) O-SO 113 ° 0 min 0 W/m² 5,7 °C 7,4 °C 0,0 km/h (0 Bft)
14.05.2024 04:13 22,3 °C 7,5 °C 53 % 89 % 1012,2 hPa 0,0 l/m² 0,0 km/h (0 Bft) O-SO 113 ° 0 min 0 W/m² 5,8 °C 7,5 °C 0,0 km/h (0 Bft)
14.05.2024 04:15 22,3 °C 7,5 °C 53 % 89 % 1012,1 hPa 0,0 l/m² 0,0 km/h (0 Bft) O-SO 113 ° 0 min 0 W/m² 5,8 °C 7,5 °C 0,0 km/h (0 Bft)
14.05.2024 04:17 22,2 °C 7,4 °C 53 % 89 % 1012,2 hPa 0,0 l/m² 0,0 km/h (0 Bft) O-SO 113 ° 0 min 0 W/m² 5,7 °C 7,4 °C 0,0 km/h (0 Bft)
14.05.2024 04:19 22,3 °C 7,4 °C 53 % 89 % 1012,2 hPa 0,0 l/m² 0,0 km/h (0 Bft) O-SO 113 ° 0 min 0 W/m² 5,7 °C 7,4 °C 0,0 km/h (0 Bft)
14.05.2024 04:21 22,2 °C 7,5 °C 53 % 89 % 1012,1 hPa 0,0 l/m² 0,1 km/h (0 Bft) O-SO 113 ° 0 min 0 W/m² 5,8 °C 7,5 °C 1,6 km/h (1 Bft)
14.05.2024 04:22 22,2 °C 7,6 °C 53 % 89 % 1012,2 hPa 0,0 l/m² 0,0 km/h (0 Bft) O-SO 113 ° 0 min 0 W/m² 5,9 °C 7,6 °C 0,0 km/h (0 Bft)
14.05.2024 04:23 22,2 °C 7,6 °C 53 % 89 % 1012,2 hPa 0,0 l/m² 0,0 km/h (0 Bft) O-SO 113 ° 0 min 0 W/m² 5,9 °C 7,6 °C 0,0 km/h (0 Bft)
14.05.2024 04:24 22,2 °C 7,6 °C 53 % 88 % 1012,2 hPa 0,0 l/m² 0,0 km/h (0 Bft) O-SO 113 ° 0 min 0 W/m² 5,7 °C 7,6 °C 0,0 km/h (0 Bft)
14.05.2024 04:26 22,2 °C 7,6 °C 53 % 88 % 1012,3 hPa 0,0 l/m² 0,0 km/h (0 Bft) O-SO 113 ° 0 min 0 W/m² 5,7 °C 7,6 °C 0,0 km/h (0 Bft)
14.05.2024 04:28 22,2 °C 7,6 °C 53 % 88 % 1012,2 hPa 0,0 l/m² 0,0 km/h (0 Bft) O-SO 113 ° 0 min 0 W/m² 5,7 °C 7,6 °C 0,0 km/h (0 Bft)
14.05.2024 04:30 22,2 °C 7,4 °C 53 % 87 % 1012,2 hPa 0,0 l/m² 0,0 km/h (0 Bft) O-SO 113 ° 0 min 0 W/m² 5,4 °C 7,4 °C 0,0 km/h (0 Bft)
14.05.2024 04:31 22,2 °C 7,1 °C 53 % 86 % 1012,2 hPa 0,0 l/m² 0,0 km/h (0 Bft) O-SO 113 ° 0 min 0 W/m² 4,9 °C 7,1 °C 0,0 km/h (0 Bft)
14.05.2024 04:32 22,2 °C 6,9 °C 53 % 86 % 1012,2 hPa 0,0 l/m² 0,0 km/h (0 Bft) O-SO 113 ° 0 min 0 W/m² 4,7 °C 6,9 °C 0,0 km/h (0 Bft)
14.05.2024 04:33 22,2 °C 6,7 °C 53 % 86 % 1012,2 hPa 0,0 l/m² 0,0 km/h (0 Bft) O-SO 113 ° 0 min 0 W/m² 4,5 °C 6,7 °C 0,0 km/h (0 Bft)
14.05.2024 04:35 22,2 °C 6,6 °C 53 % 87 % 1012,2 hPa 0,0 l/m² 0,0 km/h (0 Bft) O-SO 113 ° 0 min 0 W/m² 4,6 °C 6,6 °C 0,0 km/h (0 Bft)
14.05.2024 04:37 22,2 °C 6,6 °C 53 % 88 % 1012,2 hPa 0,0 l/m² 0,0 km/h (0 Bft) O-SO 113 ° 0 min 0 W/m² 4,8 °C 6,6 °C 0,0 km/h (0 Bft)
14.05.2024 04:39 22,2 °C 6,7 °C 53 % 89 % 1012,2 hPa 0,0 l/m² 0,0 km/h (0 Bft) O-SO 113 ° 0 min 0 W/m² 5,0 °C 6,7 °C 0,0 km/h (0 Bft)
14.05.2024 04:41 22,2 °C 6,7 °C 53 % 89 % 1012,1 hPa 0,0 l/m² 0,0 km/h (0 Bft) O-SO 113 ° 0 min 0 W/m² 5,0 °C 6,7 °C 0,0 km/h (0 Bft)
14.05.2024 04:42 22,2 °C 6,7 °C 53 % 89 % 1012,2 hPa 0,0 l/m² 0,0 km/h (0 Bft) O-SO 113 ° 0 min 0 W/m² 5,0 °C 6,7 °C 0,0 km/h (0 Bft)
14.05.2024 04:43 22,2 °C 6,8 °C 53 % 89 % 1012,2 hPa 0,0 l/m² 0,0 km/h (0 Bft) O-SO 113 ° 0 min 0 W/m² 5,1 °C 6,8 °C 0,0 km/h (0 Bft)
14.05.2024 04:44 22,2 °C 6,8 °C 53 % 90 % 1012,2 hPa 0,0 l/m² 0,0 km/h (0 Bft) O-SO 113 ° 0 min 0 W/m² 5,3 °C 6,8 °C 0,0 km/h (0 Bft)
14.05.2024 04:46 22,2 °C 6,8 °C 53 % 90 % 1012,2 hPa 0,0 l/m² 0,0 km/h (0 Bft) O-SO 113 ° 0 min 0 W/m² 5,3 °C 6,8 °C 0,0 km/h (0 Bft)
14.05.2024 04:48 22,2 °C 6,8 °C 53 % 90 % 1012,2 hPa 0,0 l/m² 0,0 km/h (0 Bft) O-SO 113 ° 0 min 0 W/m² 5,3 °C 6,8 °C 0,0 km/h (0 Bft)
14.05.2024 04:50 22,2 °C 6,8 °C 53 % 90 % 1012,3 hPa 0,0 l/m² 0,0 km/h (0 Bft) O-SO 113 ° 0 min 0 W/m² 5,3 °C 6,8 °C 0,0 km/h (0 Bft)
14.05.2024 04:51 22,2 °C 6,7 °C 53 % 90 % 1012,2 hPa 0,0 l/m² 0,0 km/h (0 Bft) O-SO 113 ° 0 min 0 W/m² 5,2 °C 6,7 °C 0,0 km/h (0 Bft)
14.05.2024 04:53 22,2 °C 6,6 °C 53 % 90 % 1012,2 hPa 0,0 l/m² 0,0 km/h (0 Bft) O-SO 113 ° 0 min 0 W/m² 5,1 °C 6,6 °C 0,0 km/h (0 Bft)
14.05.2024 04:54 22,2 °C 6,5 °C 53 % 90 % 1012,2 hPa 0,0 l/m² 0,0 km/h (0 Bft) O-SO 113 ° 0 min 0 W/m² 5,0 °C 6,5 °C 0,0 km/h (0 Bft)
14.05.2024 04:56 22,2 °C 6,4 °C 53 % 90 % 1012,2 hPa 0,0 l/m² 0,0 km/h (0 Bft) O-SO 113 ° 0 min 0 W/m² 4,9 °C 6,4 °C 0,0 km/h (0 Bft)
14.05.2024 04:58 22,2 °C 6,4 °C 53 % 90 % 1012,3 hPa 0,0 l/m² 0,0 km/h (0 Bft) O-SO 113 ° 0 min 0 W/m² 4,9 °C 6,4 °C 0,0 km/h (0 Bft)
14.05.2024 05:00 22,2 °C 6,4 °C 53 % 90 % 1012,1 hPa 0,0 l/m² 0,0 km/h (0 Bft) O-SO 113 ° 0 min 0 W/m² 4,9 °C 6,4 °C 0,0 km/h (0 Bft)
14.05.2024 05:01 22,2 °C 6,3 °C 53 % 90 % 1012,2 hPa 0,0 l/m² 0,0 km/h (0 Bft) O-SO 113 ° 0 min 0 W/m² 4,8 °C 6,3 °C 0,0 km/h (0 Bft)
14.05.2024 05:02 22,2 °C 6,3 °C 53 % 90 % 1012,2 hPa 0,0 l/m² 0,0 km/h (0 Bft) O-SO 113 ° 0 min 0 W/m² 4,8 °C 6,3 °C 0,0 km/h (0 Bft)
14.05.2024 05:03 22,2 °C 6,3 °C 53 % 90 % 1012,2 hPa 0,0 l/m² 0,0 km/h (0 Bft) O-SO 113 ° 0 min 0 W/m² 4,8 °C 6,3 °C 0,0 km/h (0 Bft)
14.05.2024 05:05 22,2 °C 6,2 °C 53 % 90 % 1012,2 hPa 0,0 l/m² 0,0 km/h (0 Bft) O-SO 113 ° 0 min 0 W/m² 4,7 °C 6,2 °C 0,0 km/h (0 Bft)
14.05.2024 05:07 22,2 °C 6,3 °C 53 % 90 % 1012,2 hPa 0,0 l/m² 0,0 km/h (0 Bft) O-SO 113 ° 0 min 0 W/m² 4,8 °C 6,3 °C 0,0 km/h (0 Bft)
14.05.2024 05:09 22,2 °C 6,3 °C 53 % 90 % 1012,2 hPa 0,0 l/m² 0,0 km/h (0 Bft) O-SO 113 ° 0 min 0 W/m² 4,8 °C 6,3 °C 0,0 km/h (0 Bft)
14.05.2024 05:11 22,2 °C 6,3 °C 53 % 90 % 1012,2 hPa 0,0 l/m² 0,0 km/h (0 Bft) O-SO 113 ° 0 min 0 W/m² 4,8 °C 6,3 °C 0,0 km/h (0 Bft)
14.05.2024 05:12 22,2 °C 6,2 °C 53 % 90 % 1012,3 hPa 0,0 l/m² 0,0 km/h (0 Bft) O-SO 113 ° 0 min 0 W/m² 4,7 °C 6,2 °C 0,0 km/h (0 Bft)
14.05.2024 05:13 22,2 °C 6,2 °C 53 % 90 % 1012,3 hPa 0,0 l/m² 0,0 km/h (0 Bft) O-SO 113 ° 0 min 0 W/m² 4,7 °C 6,2 °C 0,0 km/h (0 Bft)
14.05.2024 05:15 22,2 °C 6,1 °C 53 % 90 % 1012,2 hPa 0,0 l/m² 0,0 km/h (0 Bft) O-SO 113 ° 0 min 0 W/m² 4,6 °C 6,1 °C 0,0 km/h (0 Bft)
14.05.2024 05:17 22,2 °C 5,9 °C 53 % 90 % 1012,2 hPa 0,0 l/m² 0,0 km/h (0 Bft) O-SO 113 ° 0 min 0 W/m² 4,4 °C 5,9 °C 0,0 km/h (0 Bft)
14.05.2024 05:19 22,3 °C 5,9 °C 53 % 90 % 1012,3 hPa 0,0 l/m² 0,0 km/h (0 Bft) O-SO 113 ° 0 min 0 W/m² 4,4 °C 5,9 °C 0,0 km/h (0 Bft)
14.05.2024 05:21 22,3 °C 5,9 °C 53 % 90 % 1012,3 hPa 0,0 l/m² 1,6 km/h (1 Bft) S-SO 147 ° 0 min 0 W/m² 4,4 °C 5,9 °C 4,8 km/h (1 Bft)
14.05.2024 05:22 22,3 °C 5,9 °C 53 % 90 % 1012,3 hPa 0,0 l/m² 2,3 km/h (1 Bft) S-SO 148 ° 0 min 5 W/m² 4,4 °C 5,9 °C 3,2 km/h (1 Bft)
14.05.2024 05:23 22,3 °C 6,0 °C 53 % 90 % 1012,3 hPa 0,0 l/m² 2,9 km/h (1 Bft) S-SO 149 ° 0 min 5 W/m² 4,5 °C 6,0 °C 3,2 km/h (1 Bft)
14.05.2024 05:24 22,3 °C 6,1 °C 53 % 91 % 1012,3 hPa 0,0 l/m² 2,7 km/h (1 Bft) S-SO 152 ° 0 min 5 W/m² 4,7 °C 6,1 °C 3,2 km/h (1 Bft)
14.05.2024 05:26 22,3 °C 6,2 °C 53 % 90 % 1012,3 hPa 0,0 l/m² 2,2 km/h (1 Bft) S-SO 163 ° 0 min 5 W/m² 4,7 °C 6,2 °C 4,8 km/h (1 Bft)
14.05.2024 05:28 22,3 °C 6,3 °C 53 % 91 % 1012,4 hPa 0,0 l/m² 0,5 km/h (0 Bft) S-SO 167 ° 0 min 5 W/m² 4,9 °C 6,3 °C 4,8 km/h (1 Bft)
14.05.2024 05:30 22,3 °C 6,3 °C 53 % 90 % 1012,4 hPa 0,0 l/m² 0,5 km/h (0 Bft) S 169 ° 0 min 7 W/m² 4,8 °C 6,3 °C 4,8 km/h (1 Bft)
14.05.2024 05:31 22,3 °C 6,3 °C 53 % 90 % 1012,4 hPa 0,0 l/m² 2,2 km/h (1 Bft) S 175 ° 0 min 7 W/m² 4,8 °C 6,3 °C 3,2 km/h (1 Bft)
14.05.2024 05:33 22,3 °C 6,3 °C 53 % 90 % 1012,3 hPa 0,0 l/m² 1,9 km/h (1 Bft) S 178 ° 0 min 7 W/m² 4,8 °C 6,3 °C 3,2 km/h (1 Bft)
14.05.2024 05:34 22,3 °C 6,4 °C 53 % 90 % 1012,3 hPa 0,0 l/m² 1,3 km/h (1 Bft) S 178 ° 0 min 9 W/m² 4,9 °C 6,4 °C 3,2 km/h (1 Bft)
14.05.2024 05:36 22,3 °C 6,4 °C 53 % 90 % 1012,4 hPa 0,0 l/m² 0,1 km/h (0 Bft) S 178 ° 0 min 9 W/m² 4,9 °C 6,4 °C 1,6 km/h (1 Bft)
14.05.2024 05:38 22,3 °C 6,4 °C 53 % 90 % 1012,3 hPa 0,0 l/m² 0,0 km/h (0 Bft) S 178 ° 0 min 9 W/m² 4,9 °C 6,4 °C 0,0 km/h (0 Bft)
14.05.2024 05:40 22,2 °C 6,5 °C 53 % 90 % 1012,4 hPa 0,0 l/m² 0,0 km/h (0 Bft) S 178 ° 0 min 11 W/m² 5,0 °C 6,5 °C 0,0 km/h (0 Bft)
14.05.2024 05:41 22,2 °C 6,4 °C 53 % 89 % 1012,3 hPa 0,0 l/m² 0,0 km/h (0 Bft) S 178 ° 0 min 11 W/m² 4,7 °C 6,4 °C 0,0 km/h (0 Bft)
14.05.2024 05:42 22,2 °C 6,2 °C 53 % 88 % 1012,3 hPa 0,0 l/m² 0,0 km/h (0 Bft) S 178 ° 0 min 11 W/m² 4,4 °C 6,2 °C 0,0 km/h (0 Bft)
14.05.2024 05:44 22,2 °C 5,9 °C 53 % 88 % 1012,4 hPa 0,0 l/m² 0,0 km/h (0 Bft) S 178 ° 0 min 12 W/m² 4,1 °C 5,9 °C 0,0 km/h (0 Bft)
14.05.2024 05:46 22,2 °C 5,6 °C 53 % 88 % 1012,3 hPa 0,0 l/m² 0,0 km/h (0 Bft) S 178 ° 0 min 12 W/m² 3,8 °C 5,6 °C 0,0 km/h (0 Bft)
14.05.2024 05:48 22,2 °C 5,4 °C 53 % 89 % 1012,5 hPa 0,0 l/m² 0,0 km/h (0 Bft) S 178 ° 0 min 12 W/m² 3,7 °C 5,4 °C 0,0 km/h (0 Bft)
14.05.2024 05:50 22,2 °C 5,4 °C 53 % 89 % 1012,4 hPa 0,0 l/m² 0,0 km/h (0 Bft) S 178 ° 0 min 14 W/m² 3,7 °C 5,4 °C 0,0 km/h (0 Bft)
14.05.2024 05:51 22,2 °C 5,4 °C 53 % 90 % 1012,4 hPa 0,0 l/m² 0,0 km/h (0 Bft) S 178 ° 0 min 14 W/m² 3,9 °C 5,4 °C 0,0 km/h (0 Bft)
14.05.2024 05:53 22,2 °C 5,6 °C 53 % 90 % 1012,4 hPa 0,0 l/m² 0,0 km/h (0 Bft) S 178 ° 0 min 16 W/m² 4,1 °C 5,6 °C 0,0 km/h (0 Bft)
14.05.2024 05:54 22,2 °C 5,6 °C 53 % 90 % 1012,4 hPa 0,0 l/m² 0,0 km/h (0 Bft) S 178 ° 0 min 16 W/m² 4,1 °C 5,6 °C 0,0 km/h (0 Bft)
14.05.2024 05:56 22,2 °C 5,6 °C 53 % 90 % 1012,4 hPa 0,0 l/m² 0,0 km/h (0 Bft) S 178 ° 0 min 18 W/m² 4,1 °C 5,6 °C 0,0 km/h (0 Bft)
14.05.2024 05:58 22,2 °C 5,7 °C 53 % 90 % 1012,4 hPa 0,0 l/m² 0,0 km/h (0 Bft) S 178 ° 0 min 18 W/m² 4,2 °C 5,7 °C 0,0 km/h (0 Bft)
14.05.2024 06:00 22,2 °C 5,9 °C 53 % 90 % 1012,4 hPa 0,0 l/m² 0,0 km/h (0 Bft) S 178 ° 0 min 18 W/m² 4,4 °C 5,9 °C 0,0 km/h (0 Bft)
14.05.2024 06:01 22,2 °C 6,0 °C 53 % 90 % 1012,3 hPa 0,0 l/m² 0,0 km/h (0 Bft) S 178 ° 0 min 19 W/m² 4,5 °C 6,0 °C 0,0 km/h (0 Bft)
14.05.2024 06:03 22,2 °C 6,2 °C 53 % 91 % 1012,3 hPa 0,0 l/m² 0,0 km/h (0 Bft) S 178 ° 0 min 21 W/m² 4,8 °C 6,2 °C 0,0 km/h (0 Bft)
14.05.2024 06:05 22,2 °C 6,4 °C 53 % 91 % 1012,3 hPa 0,0 l/m² 0,0 km/h (0 Bft) S 178 ° 0 min 21 W/m² 5,0 °C 6,4 °C 0,0 km/h (0 Bft)
14.05.2024 06:07 22,2 °C 6,6 °C 53 % 91 % 1012,3 hPa 0,0 l/m² 0,0 km/h (0 Bft) S 178 ° 0 min 23 W/m² 5,2 °C 6,6 °C 0,0 km/h (0 Bft)
14.05.2024 06:09 22,2 °C 6,7 °C 53 % 91 % 1012,3 hPa 0,0 l/m² 0,0 km/h (0 Bft) S 178 ° 0 min 28 W/m² 5,3 °C 6,7 °C 0,0 km/h (0 Bft)
14.05.2024 06:11 22,2 °C 6,7 °C 53 % 90 % 1012,4 hPa 0,0 l/m² 0,0 km/h (0 Bft) S 178 ° 0 min 30 W/m² 5,2 °C 6,7 °C 0,0 km/h (0 Bft)
14.05.2024 06:12 22,2 °C 6,7 °C 53 % 91 % 1012,4 hPa 0,0 l/m² 0,0 km/h (0 Bft) S 178 ° 0 min 32 W/m² 5,3 °C 6,7 °C 0,0 km/h (0 Bft)
14.05.2024 06:13 22,2 °C 6,7 °C 53 % 91 % 1012,4 hPa 0,0 l/m² 0,0 km/h (0 Bft) S 178 ° 0 min 33 W/m² 5,3 °C 6,7 °C 0,0 km/h (0 Bft)
14.05.2024 06:15 22,2 °C 6,8 °C 53 % 91 % 1012,3 hPa 0,0 l/m² 0,0 km/h (0 Bft) S 178 ° 0 min 39 W/m² 5,4 °C 6,8 °C 0,0 km/h (0 Bft)
14.05.2024 06:17 22,2 °C 6,8 °C 53 % 90 % 1012,3 hPa 0,0 l/m² 0,0 km/h (0 Bft) S 178 ° 0 min 42 W/m² 5,3 °C 6,8 °C 0,0 km/h (0 Bft)
14.05.2024 06:19 22,2 °C 6,8 °C 53 % 91 % 1012,4 hPa 0,0 l/m² 0,0 km/h (0 Bft) S 178 ° 0 min 44 W/m² 5,4 °C 6,8 °C 0,0 km/h (0 Bft)
14.05.2024 06:21 22,2 °C 6,9 °C 53 % 90 % 1012,4 hPa 0,0 l/m² 0,0 km/h (0 Bft) S 178 ° 0 min 47 W/m² 5,4 °C 6,9 °C 0,0 km/h (0 Bft)
14.05.2024 06:22 22,2 °C 6,9 °C 53 % 90 % 1012,3 hPa 0,0 l/m² 0,0 km/h (0 Bft) S 178 ° 0 min 47 W/m² 5,4 °C 6,9 °C 0,0 km/h (0 Bft)
14.05.2024 06:23 22,2 °C 6,9 °C 53 % 91 % 1012,3 hPa 0,0 l/m² 0,0 km/h (0 Bft) S 178 ° 0 min 51 W/m² 5,5 °C 6,9 °C 0,0 km/h (0 Bft)
14.05.2024 06:25 22,2 °C 7,1 °C 53 % 91 % 1012,4 hPa 0,0 l/m² 0,0 km/h (0 Bft) S 178 ° 2 min 60 W/m² 5,7 °C 7,1 °C 0,0 km/h (0 Bft)
14.05.2024 06:27 22,2 °C 7,2 °C 53 % 91 % 1012,4 hPa 0,0 l/m² 1,3 km/h (1 Bft) S 178 ° 2 min 63 W/m² 5,8 °C 7,2 °C 3,2 km/h (1 Bft)
14.05.2024 06:29 22,2 °C 7,4 °C 53 % 91 % 1012,4 hPa 0,0 l/m² 1,7 km/h (1 Bft) S 178 ° 2 min 63 W/m² 6,0 °C 7,4 °C 3,2 km/h (1 Bft)
14.05.2024 06:31 22,2 °C 7,5 °C 53 % 91 % 1012,5 hPa 0,0 l/m² 0,1 km/h (0 Bft) S 178 ° 2 min 62 W/m² 6,1 °C 7,5 °C 1,6 km/h (1 Bft)
14.05.2024 06:32 22,2 °C 7,6 °C 53 % 91 % 1012,5 hPa 0,0 l/m² 0,0 km/h (0 Bft) S 178 ° 1 min 70 W/m² 6,2 °C 7,6 °C 0,0 km/h (0 Bft)
14.05.2024 06:33 22,2 °C 7,6 °C 53 % 91 % 1012,5 hPa 0,0 l/m² 0,0 km/h (0 Bft) S 178 ° 1 min 70 W/m² 6,2 °C 7,6 °C 0,0 km/h (0 Bft)
14.05.2024 06:35 22,2 °C 7,7 °C 52 % 90 % 1012,5 hPa 0,0 l/m² 0,0 km/h (0 Bft) S 178 ° 2 min 83 W/m² 6,2 °C 7,7 °C 0,0 km/h (0 Bft)
14.05.2024 06:37 22,2 °C 7,7 °C 52 % 90 % 1012,4 hPa 0,0 l/m² 0,0 km/h (0 Bft) S 178 ° 2 min 83 W/m² 6,2 °C 7,7 °C 0,0 km/h (0 Bft)
14.05.2024 06:39 22,2 °C 7,8 °C 53 % 90 % 1012,5 hPa 0,0 l/m² 0,0 km/h (0 Bft) S 178 ° 2 min 91 W/m² 6,3 °C 7,8 °C 0,0 km/h (0 Bft)
14.05.2024 06:41 22,2 °C 7,8 °C 53 % 89 % 1012,4 hPa 0,0 l/m² 0,0 km/h (0 Bft) S 178 ° 2 min 93 W/m² 6,1 °C 7,8 °C 0,0 km/h (0 Bft)
14.05.2024 06:42 22,1 °C 7,9 °C 53 % 89 % 1012,5 hPa 0,0 l/m² 0,0 km/h (0 Bft) S 178 ° 1 min 98 W/m² 6,2 °C 7,9 °C 0,0 km/h (0 Bft)
14.05.2024 06:43 22,1 °C 7,9 °C 53 % 89 % 1012,5 hPa 0,0 l/m² 0,0 km/h (0 Bft) S 178 ° 1 min 95 W/m² 6,2 °C 7,9 °C 0,0 km/h (0 Bft)
14.05.2024 06:44 22,1 °C 7,9 °C 53 % 89 % 1012,4 hPa 0,0 l/m² 0,0 km/h (0 Bft) S 178 ° 1 min 95 W/m² 6,2 °C 7,9 °C 0,0 km/h (0 Bft)
14.05.2024 06:46 22,1 °C 8,1 °C 53 % 89 % 1012,4 hPa 0,0 l/m² 0,0 km/h (0 Bft) S 178 ° 2 min 79 W/m² 6,4 °C 8,1 °C 0,0 km/h (0 Bft)
14.05.2024 06:47 22,1 °C 8,1 °C 53 % 89 % 1012,4 hPa 0,0 l/m² 0,0 km/h (0 Bft) S 178 ° 1 min 58 W/m² 6,4 °C 8,1 °C 0,0 km/h (0 Bft)
14.05.2024 06:49 22,2 °C 8,1 °C 53 % 89 % 1012,4 hPa 0,0 l/m² 0,0 km/h (0 Bft) S 178 ° 0 min 32 W/m² 6,4 °C 8,1 °C 0,0 km/h (0 Bft)
14.05.2024 06:51 22,2 °C 8,3 °C 53 % 88 % 1012,4 hPa 0,0 l/m² 0,0 km/h (0 Bft) S 178 ° 0 min 32 W/m² 6,4 °C 8,3 °C 0,0 km/h (0 Bft)
14.05.2024 06:52 22,2 °C 8,3 °C 53 % 88 % 1012,5 hPa 0,0 l/m² 0,0 km/h (0 Bft) S 178 ° 0 min 32 W/m² 6,4 °C 8,3 °C 0,0 km/h (0 Bft)
14.05.2024 06:53 22,2 °C 8,4 °C 53 % 88 % 1012,5 hPa 0,0 l/m² 0,0 km/h (0 Bft) S 178 ° 0 min 39 W/m² 6,5 °C 8,4 °C 0,0 km/h (0 Bft)
14.05.2024 06:54 22,2 °C 8,5 °C 53 % 88 % 1012,4 hPa 0,0 l/m² 0,0 km/h (0 Bft) S 178 ° 1 min 65 W/m² 6,6 °C 8,5 °C 0,0 km/h (0 Bft)
14.05.2024 06:56 22,2 °C 8,6 °C 52 % 87 % 1012,4 hPa 0,0 l/m² 0,0 km/h (0 Bft) S 178 ° 2 min 137 W/m² 6,6 °C 8,6 °C 0,0 km/h (0 Bft)
14.05.2024 06:58 22,2 °C 8,8 °C 53 % 87 % 1012,4 hPa 0,0 l/m² 0,0 km/h (0 Bft) S 178 ° 2 min 144 W/m² 6,8 °C 8,8 °C 0,0 km/h (0 Bft)
14.05.2024 07:00 22,2 °C 8,9 °C 52 % 86 % 1012,4 hPa 0,0 l/m² 0,0 km/h (0 Bft) S 178 ° 2 min 149 W/m² 6,7 °C 8,9 °C 0,0 km/h (0 Bft)
14.05.2024 07:01 22,2 °C 8,9 °C 52 % 86 % 1012,4 hPa 0,0 l/m² 0,0 km/h (0 Bft) S 178 ° 1 min 153 W/m² 6,7 °C 8,9 °C 0,0 km/h (0 Bft)
14.05.2024 07:03 22,2 °C 9,1 °C 52 % 86 % 1012,4 hPa 0,0 l/m² 0,0 km/h (0 Bft) S 178 ° 2 min 153 W/m² 6,9 °C 9,1 °C 0,0 km/h (0 Bft)
14.05.2024 07:04 22,1 °C 9,2 °C 52 % 86 % 1012,4 hPa 0,0 l/m² 0,0 km/h (0 Bft) S 178 ° 1 min 153 W/m² 7,0 °C 9,2 °C 0,0 km/h (0 Bft)
14.05.2024 07:06 22,1 °C 9,4 °C 52 % 86 % 1012,4 hPa 0,0 l/m² 0,0 km/h (0 Bft) S 178 ° 2 min 148 W/m² 7,2 °C 9,4 °C 0,0 km/h (0 Bft)
14.05.2024 07:08 22,1 °C 9,5 °C 52 % 85 % 1012,4 hPa 0,0 l/m² 0,0 km/h (0 Bft) S 178 ° 2 min 142 W/m² 7,1 °C 9,5 °C 0,0 km/h (0 Bft)
14.05.2024 07:10 22,1 °C 9,6 °C 51 % 86 % 1012,3 hPa 0,0 l/m² 0,0 km/h (0 Bft) S 178 ° 2 min 141 W/m² 7,4 °C 9,6 °C 0,0 km/h (0 Bft)
14.05.2024 07:11 22,1 °C 9,7 °C 51 % 86 % 1012,4 hPa 0,0 l/m² 0,0 km/h (0 Bft) S 178 ° 1 min 141 W/m² 7,5 °C 9,7 °C 0,0 km/h (0 Bft)
14.05.2024 07:13 22,1 °C 9,8 °C 52 % 86 % 1012,3 hPa 0,0 l/m² 0,0 km/h (0 Bft) S 178 ° 2 min 144 W/m² 7,6 °C 9,8 °C 0,0 km/h (0 Bft)
14.05.2024 07:14 22,1 °C 9,9 °C 52 % 85 % 1012,3 hPa 0,0 l/m² 0,0 km/h (0 Bft) S 178 ° 1 min 146 W/m² 7,5 °C 9,9 °C 0,0 km/h (0 Bft)
14.05.2024 07:16 22,1 °C 10,0 °C 52 % 86 % 1012,4 hPa 0,0 l/m² 0,0 km/h (0 Bft) S 178 ° 2 min 149 W/m² 7,8 °C 10,0 °C 0,0 km/h (0 Bft)
14.05.2024 07:18 22,1 °C 10,2 °C 52 % 86 % 1012,3 hPa 0,0 l/m² 0,0 km/h (0 Bft) S 178 ° 2 min 156 W/m² 8,0 °C 10,2 °C 0,0 km/h (0 Bft)
14.05.2024 07:20 22,1 °C 10,3 °C 52 % 86 % 1012,3 hPa 0,0 l/m² 0,0 km/h (0 Bft) S 178 ° 2 min 165 W/m² 8,1 °C 10,3 °C 0,0 km/h (0 Bft)
14.05.2024 07:21 22,1 °C 10,4 °C 52 % 86 % 1012,3 hPa 0,0 l/m² 0,0 km/h (0 Bft) S 178 ° 1 min 169 W/m² 8,2 °C 10,4 °C 0,0 km/h (0 Bft)
14.05.2024 07:23 22,1 °C 10,4 °C 51 % 86 % 1012,4 hPa 0,0 l/m² 0,0 km/h (0 Bft) S 178 ° 2 min 178 W/m² 8,2 °C 10,4 °C 0,0 km/h (0 Bft)
14.05.2024 07:24 22,1 °C 10,5 °C 51 % 86 % 1012,4 hPa 0,0 l/m² 0,0 km/h (0 Bft) S 178 ° 1 min 188 W/m² 8,3 °C 10,5 °C 0,0 km/h (0 Bft)
14.05.2024 07:26 22,1 °C 10,7 °C 51 % 86 % 1012,3 hPa 0,0 l/m² 0,0 km/h (0 Bft) S 178 ° 2 min 197 W/m² 8,5 °C 10,7 °C 0,0 km/h (0 Bft)
14.05.2024 07:28 22,1 °C 10,8 °C 51 % 86 % 1012,3 hPa 0,0 l/m² 0,0 km/h (0 Bft) S 178 ° 2 min 204 W/m² 8,6 °C 10,8 °C 0,0 km/h (0 Bft)
14.05.2024 07:30 22,1 °C 11,1 °C 51 % 85 % 1012,3 hPa 0,0 l/m² 0,0 km/h (0 Bft) S 178 ° 2 min 207 W/m² 8,7 °C 11,1 °C 0,0 km/h (0 Bft)
14.05.2024 07:31 22,1 °C 11,2 °C 51 % 85 % 1012,3 hPa 0,0 l/m² 0,0 km/h (0 Bft) S 178 ° 1 min 209 W/m² 8,8 °C 11,2 °C 0,0 km/h (0 Bft)
14.05.2024 07:33 22,1 °C 11,4 °C 51 % 85 % 1012,3 hPa 0,0 l/m² 2,0 km/h (1 Bft) O-NO 67 ° 2 min 213 W/m² 9,0 °C 11,4 °C 4,8 km/h (1 Bft)
14.05.2024 07:34 22,1 °C 11,6 °C 51 % 85 % 1012,3 hPa 0,0 l/m² 1,6 km/h (1 Bft) O 80 ° 1 min 213 W/m² 9,2 °C 11,6 °C 3,2 km/h (1 Bft)
14.05.2024 07:36 22,1 °C 11,8 °C 51 % 85 % 1012,3 hPa 0,0 l/m² 3,5 km/h (1 Bft) O-NO 75 ° 2 min 216 W/m² 9,4 °C 11,8 °C 4,8 km/h (1 Bft)
14.05.2024 07:38 22,1 °C 12,2 °C 51 % 83 % 1012,3 hPa 0,0 l/m² 5,8 km/h (2 Bft) O-NO 78 ° 2 min 220 W/m² 9,4 °C 12,2 °C 8,0 km/h (2 Bft)
14.05.2024 07:40 22,1 °C 12,3 °C 51 % 82 % 1012,3 hPa 0,0 l/m² 5,0 km/h (1 Bft) O-NO 72 ° 2 min 221 W/m² 9,3 °C 12,3 °C 8,0 km/h (2 Bft)
14.05.2024 07:41 22,1 °C 12,4 °C 51 % 82 % 1012,2 hPa 0,0 l/m² 5,6 km/h (2 Bft) O-NO 78 ° 1 min 225 W/m² 9,4 °C 12,4 °C 6,4 km/h (2 Bft)
14.05.2024 07:43 22,1 °C 12,6 °C 51 % 81 % 1012,3 hPa 0,0 l/m² 6,6 km/h (2 Bft) O-NO 78 ° 2 min 229 W/m² 9,4 °C 12,5 °C 11,3 km/h (2 Bft)
14.05.2024 07:44 22,1 °C 12,7 °C 52 % 80 % 1012,2 hPa 0,0 l/m² 7,0 km/h (2 Bft) O-NO 71 ° 1 min 230 W/m² 9,3 °C 12,3 °C 12,9 km/h (3 Bft)
14.05.2024 07:46 22,1 °C 12,8 °C 52 % 80 % 1012,2 hPa 0,0 l/m² 8,4 km/h (2 Bft) O 80 ° 2 min 234 W/m² 9,4 °C 11,6 °C 12,9 km/h (3 Bft)
14.05.2024 07:48 22,1 °C 12,9 °C 52 % 79 % 1012,1 hPa 0,0 l/m² 6,8 km/h (2 Bft) O-NO 67 ° 2 min 237 W/m² 9,3 °C 12,7 °C 11,3 km/h (2 Bft)
14.05.2024 07:50 22,1 °C 13,1 °C 52 % 79 % 1012,2 hPa 0,0 l/m² 6,3 km/h (2 Bft) O-NO 74 ° 2 min 237 W/m² 9,5 °C 13,1 °C 9,7 km/h (2 Bft)
14.05.2024 07:51 22,1 °C 13,2 °C 52 % 79 % 1012,1 hPa 0,0 l/m² 3,4 km/h (1 Bft) O 80 ° 1 min 237 W/m² 9,6 °C 13,2 °C 6,4 km/h (2 Bft)
14.05.2024 07:53 22,1 °C 13,4 °C 52 % 78 % 1012,2 hPa 0,0 l/m² 6,0 km/h (2 Bft) O 81 ° 2 min 234 W/m² 9,6 °C 13,4 °C 9,7 km/h (2 Bft)
14.05.2024 07:54 22,1 °C 13,4 °C 52 % 78 % 1012,1 hPa 0,0 l/m² 7,7 km/h (2 Bft) O-NO 73 ° 1 min 232 W/m² 9,6 °C 12,6 °C 12,9 km/h (3 Bft)
14.05.2024 07:56 22,1 °C 13,5 °C 52 % 76 % 1012,2 hPa 0,0 l/m² 4,5 km/h (1 Bft) O 88 ° 2 min 230 W/m² 9,4 °C 13,5 °C 6,4 km/h (2 Bft)
14.05.2024 07:58 22,1 °C 13,6 °C 52 % 77 % 1012,1 hPa 0,0 l/m² 7,6 km/h (2 Bft) O 82 ° 2 min 227 W/m² 9,6 °C 12,9 °C 11,3 km/h (2 Bft)
14.05.2024 08:00 22,1 °C 13,7 °C 52 % 76 % 1012,1 hPa 0,0 l/m² 6,6 km/h (2 Bft) O-NO 76 ° 2 min 227 W/m² 9,5 °C 13,6 °C 8,0 km/h (2 Bft)
14.05.2024 08:01 22,1 °C 13,8 °C 52 % 77 % 1012,1 hPa 0,0 l/m² 5,5 km/h (2 Bft) O 88 ° 1 min 227 W/m² 9,8 °C 13,8 °C 8,0 km/h (2 Bft)
14.05.2024 08:03 22,1 °C 14,0 °C 52 % 77 % 1012,1 hPa 0,0 l/m² 4,7 km/h (1 Bft) O-NO 69 ° 2 min 230 W/m² 10,0 °C 14,0 °C 8,0 km/h (2 Bft)
14.05.2024 08:04 22,1 °C 14,1 °C 52 % 76 % 1012,1 hPa 0,0 l/m² 6,1 km/h (2 Bft) O 84 ° 1 min 232 W/m² 9,9 °C 14,1 °C 8,0 km/h (2 Bft)
14.05.2024 08:06 22,1 °C 14,2 °C 52 % 75 % 1012,1 hPa 0,0 l/m² 4,4 km/h (1 Bft) O-NO 61 ° 2 min 239 W/m² 9,8 °C 14,2 °C 8,0 km/h (2 Bft)
14.05.2024 08:08 22,1 °C 14,4 °C 52 % 75 % 1012,1 hPa 0,0 l/m² 6,7 km/h (2 Bft) O-NO 74 ° 2 min 250 W/m² 10,0 °C 14,2 °C 11,3 km/h (2 Bft)
14.05.2024 08:10 22,1 °C 14,7 °C 52 % 77 % 1012,1 hPa 0,0 l/m² 5,0 km/h (1 Bft) O 84 ° 2 min 258 W/m² 10,7 °C 14,7 °C 8,0 km/h (2 Bft)
14.05.2024 08:11 22,1 °C 14,8 °C 52 % 78 % 1012,1 hPa 0,0 l/m² 6,7 km/h (2 Bft) O 86 ° 1 min 276 W/m² 11,0 °C 14,6 °C 11,3 km/h (2 Bft)
14.05.2024 08:13 22,1 °C 14,9 °C 52 % 75 % 1012,1 hPa 0,0 l/m² 6,4 km/h (2 Bft) O 86 ° 2 min 297 W/m² 10,5 °C 14,9 °C 12,9 km/h (3 Bft)
14.05.2024 08:14 22,1 °C 15,0 °C 52 % 75 % 1012,0 hPa 0,0 l/m² 7,0 km/h (2 Bft) O 82 ° 1 min 297 W/m² 10,6 °C 14,7 °C 9,7 km/h (2 Bft)
14.05.2024 08:16 22,1 °C 15,2 °C 52 % 74 % 1012,1 hPa 0,0 l/m² 7,1 km/h (2 Bft) O 84 ° 2 min 318 W/m² 10,6 °C 14,8 °C 11,3 km/h (2 Bft)
14.05.2024 08:18 22,1 °C 15,4 °C 52 % 76 % 1012,1 hPa 0,0 l/m² 6,4 km/h (2 Bft) O 87 ° 2 min 329 W/m² 11,2 °C 15,4 °C 8,0 km/h (2 Bft)
14.05.2024 08:20 22,2 °C 15,7 °C 52 % 73 % 1012,2 hPa 0,0 l/m² 5,6 km/h (2 Bft) O-NO 74 ° 2 min 332 W/m² 10,9 °C 15,7 °C 8,0 km/h (2 Bft)
14.05.2024 08:21 22,2 °C 15,8 °C 52 % 73 % 1012,1 hPa 0,0 l/m² 5,0 km/h (1 Bft) O-NO 58 ° 1 min 332 W/m² 11,0 °C 15,8 °C 11,3 km/h (2 Bft)
14.05.2024 08:23 22,2 °C 16,0 °C 52 % 73 % 1012,1 hPa 0,0 l/m² 7,9 km/h (2 Bft) O-NO 73 ° 2 min 336 W/m² 11,2 °C 15,2 °C 12,9 km/h (3 Bft)
14.05.2024 08:24 22,2 °C 16,0 °C 52 % 73 % 1012,1 hPa 0,0 l/m² 8,0 km/h (2 Bft) O-NO 68 ° 1 min 336 W/m² 11,2 °C 15,2 °C 12,9 km/h (3 Bft)
14.05.2024 08:26 22,2 °C 16,1 °C 52 % 72 % 1012,1 hPa 0,0 l/m² 9,9 km/h (2 Bft) O-NO 68 ° 2 min 338 W/m² 11,0 °C 14,4 °C 14,5 km/h (3 Bft)
14.05.2024 08:28 22,2 °C 16,3 °C 52 % 73 % 1012,1 hPa 0,0 l/m² 9,3 km/h (2 Bft) O-NO 70 ° 2 min 338 W/m² 11,4 °C 14,9 °C 14,5 km/h (3 Bft)
14.05.2024 08:30 22,2 °C 16,5 °C 52 % 72 % 1012,1 hPa 0,0 l/m² 10,3 km/h (2 Bft) O 82 ° 2 min 341 W/m² 11,4 °C 14,7 °C 14,5 km/h (3 Bft)
14.05.2024 08:31 22,2 °C 16,6 °C 52 % 72 % 1012,1 hPa 0,0 l/m² 10,1 km/h (2 Bft) O-NO 77 ° 1 min 343 W/m² 11,5 °C 14,8 °C 14,5 km/h (3 Bft)
14.05.2024 08:33 22,2 °C 16,7 °C 52 % 72 % 1012,2 hPa 0,0 l/m² 9,6 km/h (2 Bft) O-SO 114 ° 2 min 346 W/m² 11,6 °C 15,2 °C 16,1 km/h (3 Bft)
14.05.2024 08:34 22,2 °C 16,8 °C 52 % 72 % 1012,0 hPa 0,0 l/m² 7,6 km/h (2 Bft) O-NO 74 ° 1 min 348 W/m² 11,7 °C 16,2 °C 11,3 km/h (2 Bft)
14.05.2024 08:36 22,2 °C 17,1 °C 52 % 73 % 1012,1 hPa 0,0 l/m² 6,1 km/h (2 Bft) O 85 ° 2 min 355 W/m² 12,2 °C 17,1 °C 14,5 km/h (3 Bft)
14.05.2024 08:38 22,2 °C 17,3 °C 52 % 71 % 1012,1 hPa 0,0 l/m² 11,4 km/h (2 Bft) O-SO 103 ° 2 min 360 W/m² 12,0 °C 15,1 °C 16,1 km/h (3 Bft)
14.05.2024 08:40 22,2 °C 17,4 °C 52 % 69 % 1012,1 hPa 0,0 l/m² 10,0 km/h (2 Bft) O 86 ° 2 min 374 W/m² 11,7 °C 15,8 °C 16,1 km/h (3 Bft)
14.05.2024 08:41 22,2 °C 17,4 °C 52 % 70 % 1012,1 hPa 0,0 l/m² 14,6 km/h (3 Bft) O 89 ° 1 min 378 W/m² 11,9 °C 14,2 °C 19,3 km/h (3 Bft)
14.05.2024 08:43 22,2 °C 17,4 °C 52 % 69 % 1012,1 hPa 0,0 l/m² 11,6 km/h (2 Bft) O-NO 70 ° 2 min 390 W/m² 11,7 °C 15,2 °C 17,7 km/h (3 Bft)
14.05.2024 08:44 22,2 °C 17,5 °C 52 % 70 % 1012,0 hPa 0,0 l/m² 12,9 km/h (3 Bft) O-NO 66 ° 1 min 396 W/m² 12,0 °C 14,9 °C 16,1 km/h (3 Bft)
14.05.2024 08:46 22,2 °C 17,7 °C 52 % 71 % 1012,1 hPa 0,0 l/m² 9,6 km/h (2 Bft) O 81 ° 2 min 417 W/m² 12,4 °C 16,3 °C 14,5 km/h (3 Bft)
14.05.2024 08:48 22,2 °C 17,8 °C 52 % 71 % 1012,1 hPa 0,0 l/m² 9,2 km/h (2 Bft) O 84 ° 2 min 431 W/m² 12,5 °C 16,5 °C 14,5 km/h (3 Bft)
14.05.2024 08:50 22,2 °C 17,8 °C 52 % 69 % 1012,0 hPa 0,0 l/m² 12,8 km/h (3 Bft) O 92 ° 2 min 445 W/m² 12,0 °C 15,2 °C 17,7 km/h (3 Bft)
14.05.2024 08:51 22,2 °C 17,8 °C 52 % 69 % 1012,0 hPa 0,0 l/m² 10,2 km/h (2 Bft) O 94 ° 1 min 459 W/m² 12,0 °C 16,1 °C 14,5 km/h (3 Bft)
14.05.2024 08:53 22,2 °C 18,1 °C 52 % 69 % 1012,1 hPa 0,0 l/m² 13,1 km/h (3 Bft) O 88 ° 2 min 471 W/m² 12,3 °C 15,5 °C 16,1 km/h (3 Bft)
14.05.2024 08:55 22,2 °C 18,3 °C 52 % 70 % 1012,0 hPa 0,0 l/m² 9,8 km/h (2 Bft) O 80 ° 2 min 483 W/m² 12,7 °C 16,8 °C 16,1 km/h (3 Bft)
14.05.2024 08:57 22,2 °C 18,5 °C 52 % 69 % 1012,1 hPa 0,0 l/m² 11,7 km/h (2 Bft) O-NO 71 ° 2 min 494 W/m² 12,7 °C 16,4 °C 17,7 km/h (3 Bft)
14.05.2024 08:59 22,2 °C 18,7 °C 52 % 67 % 1012,0 hPa 0,0 l/m² 16,2 km/h (3 Bft) O 86 ° 2 min 503 W/m² 12,4 °C 15,4 °C 20,9 km/h (4 Bft)
14.05.2024 09:00 22,2 °C 18,7 °C 52 % 66 % 1012,1 hPa 0,0 l/m² 16,0 km/h (3 Bft) O 98 ° 1 min 504 W/m² 12,2 °C 15,4 °C 19,3 km/h (3 Bft)
14.05.2024 09:02 22,2 °C 18,8 °C 52 % 66 % 1012,1 hPa 0,0 l/m² 14,1 km/h (3 Bft) O-NO 62 ° 2 min 512 W/m² 12,3 °C 16,0 °C 19,3 km/h (3 Bft)
14.05.2024 09:03 22,2 °C 18,8 °C 52 % 65 % 1012,1 hPa 0,0 l/m² 17,0 km/h (3 Bft) O-NO 74 ° 1 min 513 W/m² 12,1 °C 15,3 °C 20,9 km/h (4 Bft)
14.05.2024 09:05 22,2 °C 18,9 °C 52 % 65 % 1012,1 hPa 0,0 l/m² 15,2 km/h (3 Bft) O-NO 71 ° 2 min 519 W/m² 12,2 °C 15,9 °C 19,3 km/h (3 Bft)
14.05.2024 09:07 22,2 °C 19,1 °C 52 % 66 % 1012,2 hPa 0,0 l/m² 14,3 km/h (3 Bft) O 96 ° 2 min 524 W/m² 12,6 °C 16,3 °C 19,3 km/h (3 Bft)
14.05.2024 09:09 22,2 °C 19,1 °C 52 % 66 % 1012,2 hPa 0,0 l/m² 15,7 km/h (3 Bft) O-SO 117 ° 2 min 529 W/m² 12,6 °C 16,0 °C 22,5 km/h (4 Bft)
14.05.2024 09:10 22,2 °C 19,1 °C 52 % 65 % 1012,1 hPa 0,0 l/m² 15,1 km/h (3 Bft) O-NO 74 ° 1 min 534 W/m² 12,4 °C 16,1 °C 19,3 km/h (3 Bft)
14.05.2024 09:12 22,2 °C 19,2 °C 52 % 65 % 1012,1 hPa 0,0 l/m² 12,2 km/h (2 Bft) O 92 ° 2 min 540 W/m² 12,5 °C 17,0 °C 17,7 km/h (3 Bft)
14.05.2024 09:14 22,2 °C 19,3 °C 52 % 65 % 1012,1 hPa 0,0 l/m² 13,5 km/h (3 Bft) O-NO 72 ° 2 min 543 W/m² 12,6 °C 16,8 °C 17,7 km/h (3 Bft)
14.05.2024 09:16 22,2 °C 19,5 °C 52 % 65 % 1012,1 hPa 0,0 l/m² 16,0 km/h (3 Bft) O 96 ° 2 min 548 W/m² 12,7 °C 16,4 °C 20,9 km/h (4 Bft)
14.05.2024 09:18 22,2 °C 19,7 °C 52 % 64 % 1012,1 hPa 0,0 l/m² 13,6 km/h (3 Bft) O 87 ° 2 min 554 W/m² 12,7 °C 17,2 °C 20,9 km/h (4 Bft)
14.05.2024 09:20 22,2 °C 19,8 °C 52 % 64 % 1012,1 hPa 0,0 l/m² 15,0 km/h (3 Bft) O 95 ° 2 min 561 W/m² 12,8 °C 17,0 °C 19,3 km/h (3 Bft)
14.05.2024 09:21 22,2 °C 19,8 °C 52 % 64 % 1012,0 hPa 0,0 l/m² 16,6 km/h (3 Bft) O 100 ° 1 min 566 W/m² 12,8 °C 16,6 °C 24,1 km/h (4 Bft)
14.05.2024 09:22 22,2 °C 19,9 °C 52 % 63 % 1012,0 hPa 0,0 l/m² 13,3 km/h (3 Bft) O-SO 107 ° 1 min 566 W/m² 12,6 °C 17,6 °C 16,1 km/h (3 Bft)
14.05.2024 09:23 22,2 °C 19,9 °C 52 % 62 % 1012,0 hPa 0,0 l/m² 10,2 km/h (2 Bft) O 99 ° 1 min 568 W/m² 12,4 °C 18,5 °C 14,5 km/h (3 Bft)
14.05.2024 09:25 22,2 °C 20,1 °C 52 % 63 % 1012,0 hPa 0,0 l/m² 11,9 km/h (2 Bft) O-SO 107 ° 2 min 571 W/m² 12,8 °C 18,2 °C 17,7 km/h (3 Bft)
14.05.2024 09:27 22,2 °C 20,3 °C 52 % 64 % 1012,1 hPa 0,0 l/m² 9,2 km/h (2 Bft) O-SO 106 ° 2 min 578 W/m² 13,3 °C 19,2 °C 14,5 km/h (3 Bft)
14.05.2024 09:29 22,2 °C 20,4 °C 52 % 60 % 1012,1 hPa 0,0 l/m² 12,2 km/h (2 Bft) O 100 ° 2 min 584 W/m² 12,4 °C 18,4 °C 24,1 km/h (4 Bft)
14.05.2024 09:30 22,2 °C 20,4 °C 52 % 60 % 1012,0 hPa 0,0 l/m² 16,3 km/h (3 Bft) O 94 ° 1 min 585 W/m² 12,4 °C 17,4 °C 24,1 km/h (4 Bft)
14.05.2024 09:31 22,2 °C 20,5 °C 52 % 61 % 1012,0 hPa 0,0 l/m² 11,6 km/h (2 Bft) O-SO 113 ° 1 min 591 W/m² 12,7 °C 18,7 °C 17,7 km/h (3 Bft)
14.05.2024 09:32 22,2 °C 20,5 °C 52 % 61 % 1012,1 hPa 0,0 l/m² 11,0 km/h (2 Bft) O 90 ° 1 min 592 W/m² 12,7 °C 18,9 °C 12,9 km/h (3 Bft)
14.05.2024 09:33 22,2 °C 20,6 °C 52 % 60 % 1012,0 hPa 0,0 l/m² 14,1 km/h (3 Bft) O 89 ° 1 min 596 W/m² 12,6 °C 18,2 °C 22,5 km/h (4 Bft)
14.05.2024 09:34 22,2 °C 20,6 °C 52 % 60 % 1012,0 hPa 0,0 l/m² 17,6 km/h (3 Bft) O-SO 104 ° 1 min 598 W/m² 12,6 °C 17,4 °C 20,9 km/h (4 Bft)
14.05.2024 09:35 22,2 °C 20,6 °C 52 % 59 % 1012,0 hPa 0,0 l/m² 16,1 km/h (3 Bft) O 91 ° 1 min 601 W/m² 12,3 °C 17,7 °C 20,9 km/h (4 Bft)
14.05.2024 09:37 22,2 °C 20,7 °C 52 % 59 % 1011,9 hPa 0,0 l/m² 14,0 km/h (3 Bft) O 97 ° 2 min 606 W/m² 12,4 °C 18,3 °C 20,9 km/h (4 Bft)
14.05.2024 09:38 22,2 °C 20,7 °C 52 % 59 % 1011,9 hPa 0,0 l/m² 17,3 km/h (3 Bft) O 79 ° 1 min 606 W/m² 12,4 °C 17,6 °C 20,9 km/h (4 Bft)
14.05.2024 09:39 22,2 °C 20,7 °C 52 % 58 % 1012,0 hPa 0,0 l/m² 17,4 km/h (3 Bft) O 86 ° 1 min 612 W/m² 12,1 °C 17,6 °C 24,1 km/h (4 Bft)
14.05.2024 09:41 22,2 °C 20,8 °C 52 % 59 % 1012,0 hPa 0,0 l/m² 15,6 km/h (3 Bft) O 84 ° 2 min 619 W/m² 12,5 °C 18,1 °C 22,5 km/h (4 Bft)
14.05.2024 09:43 22,2 °C 20,8 °C 52 % 56 % 1012,0 hPa 0,0 l/m² 17,3 km/h (3 Bft) O-SO 110 ° 2 min 621 W/m² 11,7 °C 17,7 °C 27,4 km/h (5 Bft)
14.05.2024 09:44 22,2 °C 20,8 °C 52 % 56 % 1012,1 hPa 0,0 l/m² 16,7 km/h (3 Bft) O-SO 111 ° 1 min 624 W/m² 11,7 °C 17,9 °C 22,5 km/h (4 Bft)
14.05.2024 09:46 22,2 °C 20,9 °C 52 % 57 % 1012,0 hPa 0,0 l/m² 13,8 km/h (3 Bft) O-SO 113 ° 2 min 631 W/m² 12,1 °C 18,6 °C 19,3 km/h (3 Bft)
14.05.2024 09:47 22,3 °C 20,9 °C 52 % 58 % 1012,0 hPa 0,0 l/m² 11,9 km/h (2 Bft) O 96 ° 1 min 633 W/m² 12,3 °C 19,1 °C 16,1 km/h (3 Bft)
14.05.2024 09:48 22,2 °C 21,0 °C 52 % 57 % 1012,0 hPa 0,0 l/m² 14,3 km/h (3 Bft) O-NO 68 ° 1 min 635 W/m² 12,1 °C 18,6 °C 20,9 km/h (4 Bft)
14.05.2024 09:49 22,2 °C 21,1 °C 52 % 57 % 1012,0 hPa 0,0 l/m² 16,8 km/h (3 Bft) O 94 ° 1 min 638 W/m² 12,2 °C 18,2 °C 20,9 km/h (4 Bft)
14.05.2024 09:51 22,2 °C 21,1 °C 52 % 57 % 1012,0 hPa 0,0 l/m² 15,1 km/h (3 Bft) O-SO 111 ° 2 min 645 W/m² 12,2 °C 18,6 °C 20,9 km/h (4 Bft)
14.05.2024 09:53 22,2 °C 21,2 °C 52 % 57 % 1012,0 hPa 0,0 l/m² 14,5 km/h (3 Bft) O 90 ° 2 min 649 W/m² 12,3 °C 18,8 °C 19,3 km/h (3 Bft)
14.05.2024 09:54 22,2 °C 21,3 °C 52 % 59 % 1011,9 hPa 0,0 l/m² 10,9 km/h (2 Bft) S-SO 149 ° 1 min 650 W/m² 13,0 °C 19,8 °C 16,1 km/h (3 Bft)
14.05.2024 09:55 22,2 °C 21,3 °C 52 % 57 % 1011,9 hPa 0,0 l/m² 14,7 km/h (3 Bft) O-SO 107 ° 1 min 654 W/m² 12,4 °C 18,9 °C 17,7 km/h (3 Bft)
14.05.2024 09:56 22,2 °C 21,3 °C 52 % 56 % 1011,9 hPa 0,0 l/m² 10,3 km/h (2 Bft) O 83 ° 1 min 656 W/m² 12,2 °C 20,0 °C 16,1 km/h (3 Bft)
14.05.2024 09:57 22,2 °C 21,4 °C 52 % 59 % 1011,9 hPa 0,0 l/m² 14,4 km/h (3 Bft) O-SO 122 ° 1 min 659 W/m² 13,0 °C 19,1 °C 20,9 km/h (4 Bft)
14.05.2024 09:58 22,2 °C 21,4 °C 52 % 57 % 1012,0 hPa 0,0 l/m² 13,9 km/h (3 Bft) O-SO 122 ° 1 min 661 W/m² 12,5 °C 19,2 °C 19,3 km/h (3 Bft)
14.05.2024 09:59 22,2 °C 21,4 °C 52 % 56 % 1011,9 hPa 0,0 l/m² 10,9 km/h (2 Bft) O-NO 73 ° 1 min 663 W/m² 12,3 °C 19,9 °C 12,9 km/h (3 Bft)
14.05.2024 10:01 22,3 °C 21,5 °C 52 % 55 % 1011,9 hPa 0,0 l/m² 14,8 km/h (3 Bft) O-SO 123 ° 2 min 666 W/m² 12,1 °C 19,1 °C 19,3 km/h (3 Bft)
14.05.2024 10:03 22,2 °C 21,6 °C 52 % 56 % 1011,9 hPa 0,0 l/m² 10,4 km/h (2 Bft) O 90 ° 2 min 673 W/m² 12,4 °C 20,3 °C 16,1 km/h (3 Bft)
14.05.2024 10:04 22,3 °C 21,7 °C 52 % 58 % 1011,9 hPa 0,0 l/m² 21,7 km/h (4 Bft) O 92 ° 1 min 673 W/m² 13,1 °C 18,1 °C 29,0 km/h (5 Bft)
14.05.2024 10:05 22,2 °C 21,8 °C 52 % 53 % 1011,9 hPa 0,0 l/m² 18,5 km/h (3 Bft) O 92 ° 1 min 679 W/m² 11,8 °C 18,8 °C 22,5 km/h (4 Bft)
14.05.2024 10:06 22,3 °C 21,8 °C 52 % 55 % 1011,8 hPa 0,0 l/m² 18,5 km/h (3 Bft) SO 127 ° 1 min 682 W/m² 12,4 °C 18,8 °C 25,7 km/h (4 Bft)
14.05.2024 10:07 22,2 °C 21,7 °C 52 % 53 % 1011,8 hPa 0,0 l/m² 19,6 km/h (3 Bft) O 101 ° 1 min 682 W/m² 11,7 °C 18,5 °C 25,7 km/h (4 Bft)
14.05.2024 10:08 22,2 °C 21,7 °C 52 % 54 % 1011,9 hPa 0,0 l/m² 16,1 km/h (3 Bft) SO 134 ° 1 min 687 W/m² 12,0 °C 19,1 °C 19,3 km/h (3 Bft)
14.05.2024 10:09 22,2 °C 21,7 °C 52 % 54 % 1011,9 hPa 0,0 l/m² 15,2 km/h (3 Bft) O 86 ° 1 min 689 W/m² 12,0 °C 19,3 °C 20,9 km/h (4 Bft)
14.05.2024 10:11 22,2 °C 21,8 °C 52 % 59 % 1011,8 hPa 0,0 l/m² 9,2 km/h (2 Bft) SO 124 ° 2 min 693 W/m² 13,4 °C 20,9 °C 14,5 km/h (3 Bft)
14.05.2024 10:13 22,2 °C 21,9 °C 52 % 55 % 1011,9 hPa 0,0 l/m² 15,6 km/h (3 Bft) O 101 ° 2 min 696 W/m² 12,4 °C 19,4 °C 22,5 km/h (4 Bft)
14.05.2024 10:14 22,2 °C 22,0 °C 52 % 54 % 1011,8 hPa 0,0 l/m² 18,2 km/h (3 Bft) O 98 ° 1 min 700 W/m² 12,3 °C 19,1 °C 24,1 km/h (4 Bft)
14.05.2024 10:15 22,2 °C 22,1 °C 52 % 56 % 1011,9 hPa 0,0 l/m² 19,4 km/h (3 Bft) O 92 ° 1 min 701 W/m² 12,9 °C 19,0 °C 25,7 km/h (4 Bft)
14.05.2024 10:16 22,2 °C 22,1 °C 52 % 54 % 1011,9 hPa 0,0 l/m² 22,0 km/h (4 Bft) O 98 ° 1 min 703 W/m² 12,3 °C 18,6 °C 27,4 km/h (5 Bft)
14.05.2024 10:17 22,3 °C 22,0 °C 52 % 53 % 1011,9 hPa 0,0 l/m² 22,3 km/h (4 Bft) O 92 ° 1 min 705 W/m² 12,0 °C 18,5 °C 24,1 km/h (4 Bft)
14.05.2024 10:18 22,2 °C 21,9 °C 52 % 54 % 1011,9 hPa 0,0 l/m² 18,4 km/h (3 Bft) O 99 ° 1 min 705 W/m² 12,2 °C 18,9 °C 24,1 km/h (4 Bft)
14.05.2024 10:19 22,2 °C 21,9 °C 52 % 52 % 1011,8 hPa 0,0 l/m² 18,8 km/h (3 Bft) O 90 ° 1 min 710 W/m² 11,6 °C 18,9 °C 22,5 km/h (4 Bft)
14.05.2024 10:21 22,3 °C 21,9 °C 52 % 53 % 1011,8 hPa 0,0 l/m² 20,7 km/h (4 Bft) O-NO 69 ° 2 min 715 W/m² 11,9 °C 18,6 °C 30,6 km/h (5 Bft)
14.05.2024 10:23 22,3 °C 21,8 °C 52 % 51 % 1011,8 hPa 0,0 l/m² 22,5 km/h (4 Bft) O-SO 105 ° 2 min 717 W/m² 11,2 °C 18,2 °C 33,8 km/h (5 Bft)
14.05.2024 10:24 22,3 °C 21,8 °C 52 % 54 % 1011,8 hPa 0,0 l/m² 15,3 km/h (3 Bft) O 96 ° 1 min 721 W/m² 12,1 °C 19,4 °C 20,9 km/h (4 Bft)
14.05.2024 10:25 22,3 °C 21,9 °C 52 % 56 % 1011,9 hPa 0,0 l/m² 18,2 km/h (3 Bft) O-SO 105 ° 1 min 721 W/m² 12,7 °C 19,0 °C 25,7 km/h (4 Bft)
14.05.2024 10:26 22,2 °C 21,9 °C 52 % 54 % 1011,8 hPa 0,0 l/m² 13,9 km/h (3 Bft) O-SO 122 ° 1 min 724 W/m² 12,2 °C 19,8 °C 17,7 km/h (3 Bft)
14.05.2024 10:27 22,3 °C 22,0 °C 52 % 53 % 1011,9 hPa 0,0 l/m² 18,0 km/h (3 Bft) O 93 ° 1 min 728 W/m² 12,0 °C 19,1 °C 22,5 km/h (4 Bft)
14.05.2024 10:28 22,3 °C 22,1 °C 52 % 52 % 1011,8 hPa 0,0 l/m² 17,0 km/h (3 Bft) O 94 ° 1 min 729 W/m² 11,8 °C 19,4 °C 22,5 km/h (4 Bft)
14.05.2024 10:29 22,3 °C 22,1 °C 52 % 52 % 1011,8 hPa 0,0 l/m² 15,2 km/h (3 Bft) O-SO 121 ° 1 min 731 W/m² 11,8 °C 19,8 °C 22,5 km/h (4 Bft)
14.05.2024 10:31 22,3 °C 22,2 °C 52 % 54 % 1011,8 hPa 0,0 l/m² 17,9 km/h (3 Bft) SO 127 ° 2 min 738 W/m² 12,4 °C 19,4 °C 27,4 km/h (5 Bft)
14.05.2024 10:33 22,3 °C 22,2 °C 52 % 50 % 1011,9 hPa 0,0 l/m² 21,1 km/h (4 Bft) SO 132 ° 2 min 740 W/m² 11,3 °C 18,9 °C 30,6 km/h (5 Bft)
14.05.2024 10:34 22,3 °C 22,2 °C 52 % 53 % 1011,8 hPa 0,0 l/m² 21,2 km/h (4 Bft) O-SO 108 ° 1 min 740 W/m² 12,2 °C 18,9 °C 25,7 km/h (4 Bft)
14.05.2024 10:35 22,3 °C 22,2 °C 52 % 54 % 1011,9 hPa 0,0 l/m² 16,8 km/h (3 Bft) O 92 ° 1 min 745 W/m² 12,4 °C 19,6 °C 20,9 km/h (4 Bft)
14.05.2024 10:36 22,3 °C 22,2 °C 52 % 54 % 1011,8 hPa 0,0 l/m² 15,8 km/h (3 Bft) O 88 ° 1 min 745 W/m² 12,4 °C 19,8 °C 24,1 km/h (4 Bft)
14.05.2024 10:37 22,3 °C 22,2 °C 52 % 53 % 1011,8 hPa 0,0 l/m² 14,1 km/h (3 Bft) O 80 ° 1 min 747 W/m² 12,2 °C 20,1 °C 19,3 km/h (3 Bft)
14.05.2024 10:38 22,3 °C 22,2 °C 52 % 54 % 1011,8 hPa 0,0 l/m² 13,8 km/h (3 Bft) O 83 ° 1 min 751 W/m² 12,4 °C 20,2 °C 17,7 km/h (3 Bft)
14.05.2024 10:39 22,3 °C 22,3 °C 52 % 54 % 1011,8 hPa 0,0 l/m² 14,1 km/h (3 Bft) O 95 ° 1 min 752 W/m² 12,5 °C 20,2 °C 19,3 km/h (3 Bft)
14.05.2024 10:41 22,3 °C 22,4 °C 52 % 53 % 1011,8 hPa 0,0 l/m² 19,9 km/h (4 Bft) O 89 ° 2 min 754 W/m² 12,3 °C 19,3 °C 30,6 km/h (5 Bft)
14.05.2024 10:42 22,2 °C 22,4 °C 52 % 52 % 1011,8 hPa 0,0 l/m² 18,6 km/h (3 Bft) O 91 ° 1 min 758 W/m² 12,1 °C 19,5 °C 24,1 km/h (4 Bft)
14.05.2024 10:43 22,2 °C 22,4 °C 52 % 53 % 1011,8 hPa 0,0 l/m² 20,8 km/h (4 Bft) O-NO 77 ° 1 min 761 W/m² 12,3 °C 19,2 °C 29,0 km/h (5 Bft)
14.05.2024 10:44 22,3 °C 22,4 °C 52 % 53 % 1011,8 hPa 0,0 l/m² 22,7 km/h (4 Bft) O-NO 78 ° 1 min 761 W/m² 12,3 °C 18,9 °C 32,2 km/h (5 Bft)
14.05.2024 10:45 22,3 °C 22,4 °C 52 % 51 % 1011,8 hPa 0,0 l/m² 20,3 km/h (4 Bft) O-SO 107 ° 1 min 763 W/m² 11,8 °C 19,3 °C 27,4 km/h (5 Bft)
14.05.2024 10:46 22,3 °C 22,4 °C 52 % 52 % 1011,8 hPa 0,0 l/m² 21,4 km/h (4 Bft) O-SO 107 ° 1 min 768 W/m² 12,1 °C 19,1 °C 24,1 km/h (4 Bft)
14.05.2024 10:47 22,3 °C 22,4 °C 52 % 52 % 1011,8 hPa 0,0 l/m² 21,9 km/h (4 Bft) O 87 ° 1 min 766 W/m² 12,1 °C 19,0 °C 30,6 km/h (5 Bft)
14.05.2024 10:48 22,3 °C 22,4 °C 52 % 51 % 1011,7 hPa 0,0 l/m² 22,1 km/h (4 Bft) O-NO 78 ° 1 min 772 W/m² 11,8 °C 19,0 °C 30,6 km/h (5 Bft)
14.05.2024 10:49 22,3 °C 22,4 °C 52 % 51 % 1011,8 hPa 0,0 l/m² 23,7 km/h (4 Bft) O-NO 74 ° 1 min 772 W/m² 11,8 °C 18,8 °C 30,6 km/h (5 Bft)
14.05.2024 10:51 22,3 °C 22,4 °C 52 % 50 % 1011,8 hPa 0,0 l/m² 24,4 km/h (4 Bft) O 80 ° 2 min 775 W/m² 11,5 °C 18,7 °C 32,2 km/h (5 Bft)
14.05.2024 10:53 22,3 °C 22,4 °C 52 % 51 % 1011,8 hPa 0,0 l/m² 24,6 km/h (4 Bft) O 94 ° 2 min 779 W/m² 11,8 °C 18,7 °C 33,8 km/h (5 Bft)
14.05.2024 10:54 22,3 °C 22,4 °C 52 % 50 % 1011,7 hPa 0,0 l/m² 21,0 km/h (4 Bft) O-SO 105 ° 1 min 779 W/m² 11,5 °C 19,2 °C 25,7 km/h (4 Bft)
14.05.2024 10:55 22,3 °C 22,4 °C 52 % 54 % 1011,8 hPa 0,0 l/m² 14,6 km/h (3 Bft) O 90 ° 1 min 780 W/m² 12,6 °C 20,2 °C 19,3 km/h (3 Bft)
14.05.2024 10:56 22,3 °C 22,5 °C 52 % 53 % 1011,8 hPa 0,0 l/m² 14,4 km/h (3 Bft) O-SO 107 ° 1 min 786 W/m² 12,4 °C 20,4 °C 19,3 km/h (3 Bft)
14.05.2024 10:57 22,3 °C 22,6 °C 52 % 53 % 1011,8 hPa 0,0 l/m² 13,9 km/h (3 Bft) O-SO 109 ° 1 min 788 W/m² 12,5 °C 20,6 °C 20,9 km/h (4 Bft)
14.05.2024 10:58 22,3 °C 22,7 °C 52 % 53 % 1011,8 hPa 0,0 l/m² 19,4 km/h (3 Bft) O 84 ° 1 min 788 W/m² 12,6 °C 19,8 °C 24,1 km/h (4 Bft)
14.05.2024 10:59 22,3 °C 22,7 °C 52 % 52 % 1011,8 hPa 0,0 l/m² 19,2 km/h (3 Bft) O 87 ° 1 min 791 W/m² 12,3 °C 19,8 °C 27,4 km/h (5 Bft)
14.05.2024 11:01 22,3 °C 22,7 °C 52 % 50 % 1011,8 hPa 0,0 l/m² 21,4 km/h (4 Bft) O 99 ° 2 min 791 W/m² 11,7 °C 19,5 °C 27,4 km/h (5 Bft)
14.05.2024 11:03 22,3 °C 22,7 °C 52 % 51 % 1011,8 hPa 0,0 l/m² 16,5 km/h (3 Bft) O-SO 114 ° 2 min 795 W/m² 12,0 °C 20,2 °C 25,7 km/h (4 Bft)
14.05.2024 11:04 22,3 °C 22,7 °C 52 % 50 % 1011,6 hPa 0,0 l/m² 20,7 km/h (4 Bft) O-SO 109 ° 1 min 795 W/m² 11,7 °C 19,6 °C 29,0 km/h (5 Bft)
14.05.2024 11:05 22,3 °C 22,7 °C 52 % 53 % 1011,7 hPa 0,0 l/m² 15,4 km/h (3 Bft) O-SO 106 ° 1 min 800 W/m² 12,6 °C 20,4 °C 24,1 km/h (4 Bft)
14.05.2024 11:06 22,3 °C 22,7 °C 52 % 51 % 1011,7 hPa 0,0 l/m² 19,4 km/h (3 Bft) O-SO 121 ° 1 min 800 W/m² 12,0 °C 19,8 °C 22,5 km/h (4 Bft)
14.05.2024 11:07 22,3 °C 22,8 °C 52 % 51 % 1011,7 hPa 0,0 l/m² 19,5 km/h (3 Bft) O 100 ° 1 min 805 W/m² 12,1 °C 19,9 °C 25,7 km/h (4 Bft)
14.05.2024 11:08 22,3 °C 22,8 °C 52 % 50 % 1011,7 hPa 0,0 l/m² 17,6 km/h (3 Bft) O-SO 118 ° 1 min 803 W/m² 11,8 °C 20,2 °C 20,9 km/h (4 Bft)
14.05.2024 11:09 22,3 °C 22,8 °C 52 % 50 % 1011,7 hPa 0,0 l/m² 19,2 km/h (3 Bft) O-SO 110 ° 1 min 803 W/m² 11,8 °C 19,9 °C 25,7 km/h (4 Bft)
14.05.2024 11:11 22,3 °C 22,8 °C 52 % 49 % 1011,7 hPa 0,0 l/m² 20,7 km/h (4 Bft) O 93 ° 2 min 812 W/m² 11,5 °C 19,7 °C 27,4 km/h (5 Bft)
14.05.2024 11:13 22,3 °C 22,8 °C 52 % 51 % 1011,7 hPa 0,0 l/m² 21,1 km/h (4 Bft) O-SO 107 ° 2 min 814 W/m² 12,1 °C 19,7 °C 30,6 km/h (5 Bft)
14.05.2024 11:14 22,3 °C 22,8 °C 52 % 51 % 1011,7 hPa 0,0 l/m² 18,1 km/h (3 Bft) SO 128 ° 1 min 817 W/m² 12,1 °C 20,1 °C 24,1 km/h (4 Bft)
14.05.2024 11:15 22,3 °C 22,9 °C 52 % 50 % 1011,7 hPa 0,0 l/m² 12,1 km/h (2 Bft) O-SO 123 ° 1 min 819 W/m² 11,9 °C 21,3 °C 16,1 km/h (3 Bft)
14.05.2024 11:16 22,3 °C 23,0 °C 52 % 52 % 1011,6 hPa 0,0 l/m² 17,2 km/h (3 Bft) O 96 ° 1 min 819 W/m² 12,6 °C 20,5 °C 24,1 km/h (4 Bft)
14.05.2024 11:17 22,3 °C 23,1 °C 52 % 51 % 1011,7 hPa 0,0 l/m² 19,5 km/h (3 Bft) O-SO 113 ° 1 min 823 W/m² 12,4 °C 20,3 °C 25,7 km/h (4 Bft)
14.05.2024 11:18 22,3 °C 23,1 °C 52 % 52 % 1011,7 hPa 0,0 l/m² 16,5 km/h (3 Bft) O-SO 103 ° 1 min 826 W/m² 12,7 °C 20,7 °C 24,1 km/h (4 Bft)
14.05.2024 11:19 22,3 °C 23,2 °C 52 % 49 % 1011,6 hPa 0,0 l/m² 17,1 km/h (3 Bft) O 97 ° 1 min 826 W/m² 11,9 °C 20,8 °C 24,1 km/h (4 Bft)
14.05.2024 11:21 22,3 °C 23,2 °C 52 % 48 % 1011,7 hPa 0,0 l/m² 20,7 km/h (4 Bft) O-SO 117 ° 2 min 831 W/m² 11,6 °C 20,2 °C 27,4 km/h (5 Bft)
14.05.2024 11:23 22,3 °C 23,1 °C 52 % 48 % 1011,6 hPa 0,0 l/m² 20,1 km/h (4 Bft) O-SO 106 ° 2 min 831 W/m² 11,5 °C 20,2 °C 30,6 km/h (5 Bft)
14.05.2024 11:24 22,3 °C 23,1 °C 52 % 48 % 1011,6 hPa 0,0 l/m² 18,1 km/h (3 Bft) O 96 ° 1 min 831 W/m² 11,5 °C 20,5 °C 24,1 km/h (4 Bft)
14.05.2024 11:25 22,3 °C 23,1 °C 52 % 50 % 1011,6 hPa 0,0 l/m² 20,7 km/h (4 Bft) SO 131 ° 1 min 830 W/m² 12,1 °C 20,1 °C 33,8 km/h (5 Bft)
14.05.2024 11:26 22,3 °C 23,1 °C 52 % 48 % 1011,6 hPa 0,0 l/m² 18,1 km/h (3 Bft) O-SO 102 ° 1 min 833 W/m² 11,5 °C 20,5 °C 24,1 km/h (4 Bft)
14.05.2024 11:27 22,3 °C 23,2 °C 52 % 50 % 1011,6 hPa 0,0 l/m² 18,5 km/h (3 Bft) O 91 ° 1 min 833 W/m² 12,2 °C 20,6 °C 20,9 km/h (4 Bft)
14.05.2024 11:28 22,3 °C 23,3 °C 52 % 48 % 1011,6 hPa 0,0 l/m² 20,8 km/h (4 Bft) O 94 ° 1 min 831 W/m² 11,7 °C 20,4 °C 29,0 km/h (5 Bft)
14.05.2024 11:29 22,3 °C 23,3 °C 52 % 49 % 1011,6 hPa 0,0 l/m² 18,6 km/h (3 Bft) O 80 ° 1 min 835 W/m² 12,0 °C 20,7 °C 24,1 km/h (4 Bft)
14.05.2024 11:31 22,3 °C 23,3 °C 52 % 50 % 1011,6 hPa 0,0 l/m² 22,4 km/h (4 Bft) O-NO 77 ° 2 min 837 W/m² 12,3 °C 20,2 °C 33,8 km/h (5 Bft)
14.05.2024 11:33 22,3 °C 23,3 °C 52 % 48 % 1011,6 hPa 0,0 l/m² 18,0 km/h (3 Bft) O 83 ° 2 min 842 W/m² 11,7 °C 20,8 °C 25,7 km/h (4 Bft)
14.05.2024 11:34 22,3 °C 23,3 °C 52 % 50 % 1011,6 hPa 0,0 l/m² 24,9 km/h (4 Bft) O 92 ° 1 min 846 W/m² 12,3 °C 19,9 °C 32,2 km/h (5 Bft)
14.05.2024 11:35 22,3 °C 23,3 °C 52 % 48 % 1011,6 hPa 0,0 l/m² 19,6 km/h (3 Bft) O-SO 107 ° 1 min 846 W/m² 11,7 °C 20,5 °C 27,4 km/h (5 Bft)
14.05.2024 11:36 22,3 °C 23,3 °C 52 % 48 % 1011,6 hPa 0,0 l/m² 21,3 km/h (4 Bft) O-SO 110 ° 1 min 844 W/m² 11,7 °C 20,3 °C 30,6 km/h (5 Bft)
14.05.2024 11:37 22,3 °C 23,2 °C 52 % 47 % 1011,6 hPa 0,0 l/m² 23,5 km/h (4 Bft) SO 136 ° 1 min 847 W/m² 11,3 °C 19,9 °C 30,6 km/h (5 Bft)
14.05.2024 11:38 22,3 °C 23,2 °C 52 % 47 % 1011,6 hPa 0,0 l/m² 21,8 km/h (4 Bft) SO 136 ° 1 min 844 W/m² 11,3 °C 20,1 °C 29,0 km/h (5 Bft)
14.05.2024 11:39 22,3 °C 23,2 °C 52 % 49 % 1011,5 hPa 0,0 l/m² 25,5 km/h (4 Bft) SO 125 ° 1 min 846 W/m² 11,9 °C 19,7 °C 33,8 km/h (5 Bft)
14.05.2024 11:41 22,3 °C 23,2 °C 52 % 51 % 1011,6 hPa 0,0 l/m² 16,6 km/h (3 Bft) SO 129 ° 2 min 846 W/m² 12,5 °C 20,9 °C 25,7 km/h (4 Bft)
14.05.2024 11:43 22,3 °C 23,4 °C 52 % 50 % 1011,6 hPa 0,0 l/m² 21,0 km/h (4 Bft) O 100 ° 2 min 856 W/m² 12,4 °C 20,5 °C 30,6 km/h (5 Bft)
14.05.2024 11:44 22,3 °C 23,4 °C 52 % 49 % 1011,6 hPa 0,0 l/m² 20,0 km/h (4 Bft) O 86 ° 1 min 851 W/m² 12,1 °C 20,6 °C 29,0 km/h (5 Bft)
14.05.2024 11:45 22,3 °C 23,6 °C 52 % 50 % 1011,6 hPa 0,0 l/m² 21,9 km/h (4 Bft) O 96 ° 1 min 851 W/m² 12,6 °C 20,6 °C 27,4 km/h (5 Bft)
14.05.2024 11:46 22,3 °C 23,6 °C 52 % 48 % 1011,5 hPa 0,0 l/m² 22,7 km/h (4 Bft) O 92 ° 1 min 858 W/m² 11,9 °C 20,5 °C 30,6 km/h (5 Bft)
14.05.2024 11:47 22,3 °C 23,5 °C 52 % 48 % 1011,5 hPa 0,0 l/m² 22,6 km/h (4 Bft) O 101 ° 1 min 861 W/m² 11,8 °C 20,4 °C 29,0 km/h (5 Bft)
14.05.2024 11:48 22,3 °C 23,4 °C 52 % 49 % 1011,6 hPa 0,0 l/m² 20,5 km/h (4 Bft) O-NO 75 ° 1 min 858 W/m² 12,1 °C 20,5 °C 29,0 km/h (5 Bft)
14.05.2024 11:49 22,3 °C 23,5 °C 52 % 48 % 1011,6 hPa 0,0 l/m² 21,1 km/h (4 Bft) O 84 ° 1 min 860 W/m² 11,8 °C 20,6 °C 25,7 km/h (4 Bft)
14.05.2024 11:51 22,3 °C 23,4 °C 52 % 48 % 1011,6 hPa 0,0 l/m² 18,8 km/h (3 Bft) O 94 ° 2 min 856 W/m² 11,8 °C 20,8 °C 29,0 km/h (5 Bft)
14.05.2024 11:53 22,3 °C 23,4 °C 52 % 49 % 1011,5 hPa 0,0 l/m² 19,3 km/h (3 Bft) O-SO 123 ° 2 min 856 W/m² 12,1 °C 20,7 °C 25,7 km/h (4 Bft)
14.05.2024 11:54 22,3 °C 23,4 °C 52 % 50 % 1011,6 hPa 0,0 l/m² 13,5 km/h (3 Bft) SO 128 ° 1 min 860 W/m² 12,4 °C 21,6 °C 17,7 km/h (3 Bft)
14.05.2024 11:55 22,3 °C 23,5 °C 52 % 50 % 1011,5 hPa 0,0 l/m² 13,6 km/h (3 Bft) O-SO 117 ° 1 min 865 W/m² 12,5 °C 21,7 °C 20,9 km/h (4 Bft)
14.05.2024 11:56 22,3 °C 23,6 °C 52 % 51 % 1011,5 hPa 0,0 l/m² 12,2 km/h (2 Bft) O-SO 111 ° 1 min 863 W/m² 12,9 °C 22,1 °C 16,1 km/h (3 Bft)
14.05.2024 11:57 22,3 °C 23,8 °C 52 % 51 % 1011,5 hPa 0,0 l/m² 20,3 km/h (4 Bft) O-SO 107 ° 1 min 863 W/m² 13,0 °C 21,1 °C 25,7 km/h (4 Bft)
14.05.2024 11:58 22,3 °C 23,8 °C 52 % 47 % 1011,5 hPa 0,0 l/m² 21,4 km/h (4 Bft) O-SO 115 ° 1 min 863 W/m² 11,8 °C 20,9 °C 27,4 km/h (5 Bft)
14.05.2024 11:59 22,3 °C 23,7 °C 52 % 47 % 1011,5 hPa 0,0 l/m² 17,2 km/h (3 Bft) O-NO 73 ° 1 min 861 W/m² 11,7 °C 21,4 °C 20,9 km/h (4 Bft)
14.05.2024 12:00 22,3 °C 23,8 °C 52 % 49 % 1011,5 hPa 0,0 l/m² 19,8 km/h (3 Bft) O 101 ° 1 min 865 W/m² 12,4 °C 21,1 °C 29,0 km/h (5 Bft)
14.05.2024 12:02 22,3 °C 23,8 °C 52 % 49 % 1011,5 hPa 0,0 l/m² 20,6 km/h (4 Bft) O-NO 71 ° 2 min 860 W/m² 12,4 °C 21,0 °C 29,0 km/h (5 Bft)
14.05.2024 12:03 22,3 °C 23,8 °C 52 % 50 % 1011,4 hPa 0,0 l/m² 18,6 km/h (3 Bft) O 101 ° 1 min 870 W/m² 12,7 °C 21,3 °C 24,1 km/h (4 Bft)
14.05.2024 12:04 22,3 °C 23,8 °C 52 % 48 % 1011,5 hPa 0,0 l/m² 20,2 km/h (4 Bft) O 92 ° 1 min 874 W/m² 12,1 °C 21,1 °C 27,4 km/h (5 Bft)
14.05.2024 12:05 22,3 °C 23,8 °C 52 % 49 % 1011,5 hPa 0,0 l/m² 21,1 km/h (4 Bft) O 86 ° 1 min 879 W/m² 12,4 °C 21,0 °C 25,7 km/h (4 Bft)
14.05.2024 12:06 22,3 °C 23,8 °C 52 % 48 % 1011,5 hPa 0,0 l/m² 18,7 km/h (3 Bft) O 101 ° 1 min 872 W/m² 12,1 °C 21,3 °C 27,4 km/h (5 Bft)
14.05.2024 12:07 22,3 °C 23,8 °C 52 % 48 % 1011,6 hPa 0,0 l/m² 18,6 km/h (3 Bft) O 94 ° 1 min 868 W/m² 12,1 °C 21,3 °C 25,7 km/h (4 Bft)
14.05.2024 12:08 22,3 °C 23,9 °C 52 % 49 % 1011,5 hPa 0,0 l/m² 17,1 km/h (3 Bft) O-SO 109 ° 1 min 868 W/m² 12,5 °C 21,6 °C 24,1 km/h (4 Bft)
14.05.2024 12:09 22,4 °C 23,9 °C 52 % 47 % 1011,5 hPa 0,0 l/m² 20,3 km/h (4 Bft) O 95 ° 1 min 872 W/m² 11,9 °C 21,2 °C 27,4 km/h (5 Bft)
14.05.2024 12:11 22,3 °C 23,8 °C 52 % 45 % 1011,3 hPa 0,0 l/m² 24,3 km/h (4 Bft) O-SO 112 ° 2 min 881 W/m² 11,1 °C 20,6 °C 38,6 km/h (6 Bft)
14.05.2024 12:13 22,3 °C 23,8 °C 52 % 49 % 1011,5 hPa 0,0 l/m² 20,0 km/h (4 Bft) O-SO 111 ° 2 min 879 W/m² 12,4 °C 21,1 °C 27,4 km/h (5 Bft)
14.05.2024 12:14 22,3 °C 23,8 °C 52 % 47 % 1011,4 hPa 0,0 l/m² 21,4 km/h (4 Bft) SO 124 ° 1 min 877 W/m² 11,8 °C 20,9 °C 35,4 km/h (5 Bft)
14.05.2024 12:15 22,3 °C 23,9 °C 52 % 50 % 1011,4 hPa 0,0 l/m² 17,7 km/h (3 Bft) SO 130 ° 1 min 886 W/m² 12,8 °C 21,6 °C 29,0 km/h (5 Bft)
14.05.2024 12:16 22,3 °C 23,9 °C 52 % 47 % 1011,4 hPa 0,0 l/m² 19,3 km/h (3 Bft) O-SO 117 ° 1 min 881 W/m² 11,9 °C 21,3 °C 27,4 km/h (5 Bft)
14.05.2024 12:17 22,4 °C 23,9 °C 52 % 44 % 1011,3 hPa 0,0 l/m² 24,5 km/h (4 Bft) O-SO 109 ° 1 min 888 W/m² 10,9 °C 20,7 °C 38,6 km/h (6 Bft)
14.05.2024 12:18 22,3 °C 23,8 °C 52 % 45 % 1011,5 hPa 0,0 l/m² 23,0 km/h (4 Bft) O-SO 119 ° 1 min 884 W/m² 11,1 °C 20,8 °C 30,6 km/h (5 Bft)
14.05.2024 12:19 22,3 °C 23,8 °C 52 % 45 % 1011,5 hPa 0,0 l/m² 17,5 km/h (3 Bft) O 96 ° 1 min 886 W/m² 11,1 °C 21,5 °C 25,7 km/h (4 Bft)
14.05.2024 12:21 22,3 °C 23,8 °C 52 % 45 % 1011,4 hPa 0,0 l/m² 22,0 km/h (4 Bft) O-SO 113 ° 2 min 886 W/m² 11,1 °C 20,9 °C 33,8 km/h (5 Bft)
14.05.2024 12:23 22,3 °C 23,9 °C 52 % 45 % 1011,4 hPa 0,0 l/m² 19,9 km/h (4 Bft) O 81 ° 2 min 889 W/m² 11,2 °C 21,3 °C 30,6 km/h (5 Bft)
14.05.2024 12:24 22,3 °C 23,9 °C 52 % 48 % 1011,5 hPa 0,0 l/m² 18,5 km/h (3 Bft) O-SO 117 ° 1 min 889 W/m² 12,2 °C 21,4 °C 25,7 km/h (4 Bft)
14.05.2024 12:25 22,3 °C 24,0 °C 52 % 49 % 1011,4 hPa 0,0 l/m² 25,3 km/h (4 Bft) O 95 ° 1 min 889 W/m² 12,6 °C 20,8 °C 35,4 km/h (5 Bft)
14.05.2024 12:26 22,3 °C 24,0 °C 52 % 44 % 1011,4 hPa 0,0 l/m² 26,1 km/h (4 Bft) O 94 ° 1 min 889 W/m² 11,0 °C 20,7 °C 32,2 km/h (5 Bft)
14.05.2024 12:27 22,4 °C 24,0 °C 52 % 45 % 1011,5 hPa 0,0 l/m² 24,6 km/h (4 Bft) O 95 ° 1 min 889 W/m² 11,3 °C 20,8 °C 32,2 km/h (5 Bft)
14.05.2024 12:29 22,4 °C 23,9 °C 52 % 45 % 1011,4 hPa 0,0 l/m² 23,5 km/h (4 Bft) O 79 ° 2 min 896 W/m² 11,2 °C 20,8 °C 33,8 km/h (5 Bft)
14.05.2024 12:30 22,3 °C 23,9 °C 52 % 45 % 1011,5 hPa 0,0 l/m² 26,0 km/h (4 Bft) O 92 ° 1 min 893 W/m² 11,2 °C 20,6 °C 32,2 km/h (5 Bft)
14.05.2024 12:31 22,3 °C 23,9 °C 52 % 42 % 1011,5 hPa 0,0 l/m² 25,6 km/h (4 Bft) O 88 ° 1 min 891 W/m² 10,2 °C 20,6 °C 30,6 km/h (5 Bft)
14.05.2024 12:32 22,3 °C 23,9 °C 52 % 44 % 1011,5 hPa 0,0 l/m² 22,4 km/h (4 Bft) O 96 ° 1 min 898 W/m² 10,9 °C 21,0 °C 32,2 km/h (5 Bft)
14.05.2024 12:33 22,4 °C 23,9 °C 52 % 45 % 1011,5 hPa 0,0 l/m² 23,3 km/h (4 Bft) O 85 ° 1 min 893 W/m² 11,2 °C 20,9 °C 37,0 km/h (5 Bft)
14.05.2024 12:34 22,3 °C 23,9 °C 52 % 45 % 1011,4 hPa 0,0 l/m² 24,5 km/h (4 Bft) O 80 ° 1 min 895 W/m² 11,2 °C 20,7 °C 37,0 km/h (5 Bft)
14.05.2024 12:35 22,4 °C 24,0 °C 52 % 46 % 1011,4 hPa 0,0 l/m² 18,4 km/h (3 Bft) O 101 ° 1 min 895 W/m² 11,7 °C 21,6 °C 24,1 km/h (4 Bft)
14.05.2024 12:37 22,4 °C 24,0 °C 52 % 43 % 1011,4 hPa 0,0 l/m² 21,7 km/h (4 Bft) O-SO 117 ° 2 min 891 W/m² 10,6 °C 21,2 °C 30,6 km/h (5 Bft)
14.05.2024 12:38 22,4 °C 23,9 °C 52 % 45 % 1011,4 hPa 0,0 l/m² 22,1 km/h (4 Bft) O-SO 113 ° 1 min 896 W/m² 11,2 °C 21,0 °C 32,2 km/h (5 Bft)
14.05.2024 12:39 22,3 °C 24,0 °C 52 % 44 % 1011,3 hPa 0,0 l/m² 22,0 km/h (4 Bft) O 98 ° 1 min 898 W/m² 11,0 °C 21,1 °C 27,4 km/h (5 Bft)
14.05.2024 12:41 22,4 °C 24,1 °C 52 % 43 % 1011,4 hPa 0,0 l/m² 19,3 km/h (3 Bft) O-NO 76 ° 2 min 896 W/m² 10,7 °C 21,6 °C 27,4 km/h (5 Bft)
14.05.2024 12:43 22,3 °C 24,1 °C 52 % 43 % 1011,4 hPa 0,0 l/m² 20,2 km/h (4 Bft) O-SO 106 ° 2 min 900 W/m² 10,7 °C 21,5 °C 27,4 km/h (5 Bft)
14.05.2024 12:45 22,4 °C 24,1 °C 52 % 43 % 1011,4 hPa 0,0 l/m² 22,0 km/h (4 Bft) O-SO 105 ° 2 min 904 W/m² 10,7 °C 21,3 °C 30,6 km/h (5 Bft)
14.05.2024 12:46 22,4 °C 24,1 °C 52 % 45 % 1011,4 hPa 0,0 l/m² 17,8 km/h (3 Bft) O-SO 118 ° 1 min 902 W/m² 11,4 °C 21,8 °C 20,9 km/h (4 Bft)
14.05.2024 12:47 22,4 °C 24,1 °C 52 % 45 % 1011,4 hPa 0,0 l/m² 16,3 km/h (3 Bft) O-SO 119 ° 1 min 902 W/m² 11,4 °C 22,0 °C 19,3 km/h (3 Bft)
14.05.2024 12:48 22,4 °C 24,1 °C 52 % 41 % 1011,3 hPa 0,0 l/m² 15,4 km/h (3 Bft) O-SO 116 ° 1 min 902 W/m² 10,0 °C 22,2 °C 20,9 km/h (4 Bft)
14.05.2024 12:49 22,4 °C 24,1 °C 52 % 44 % 1011,3 hPa 0,0 l/m² 22,8 km/h (4 Bft) SO 124 ° 1 min 896 W/m² 11,1 °C 21,2 °C 32,2 km/h (5 Bft)
14.05.2024 12:51 22,4 °C 24,2 °C 52 % 43 % 1011,4 hPa 0,0 l/m² 21,9 km/h (4 Bft) O 88 ° 2 min 904 W/m² 10,8 °C 21,4 °C 33,8 km/h (5 Bft)
14.05.2024 12:53 22,4 °C 24,3 °C 52 % 41 % 1011,4 hPa 0,0 l/m² 23,1 km/h (4 Bft) O-NO 75 ° 2 min 907 W/m² 10,2 °C 21,4 °C 30,6 km/h (5 Bft)
14.05.2024 12:54 22,4 °C 24,3 °C 52 % 44 % 1011,4 hPa 0,0 l/m² 21,2 km/h (4 Bft) O 98 ° 1 min 902 W/m² 11,3 °C 21,6 °C 27,4 km/h (5 Bft)
14.05.2024 12:55 22,4 °C 24,4 °C 52 % 43 % 1011,4 hPa 0,0 l/m² 21,1 km/h (4 Bft) O-SO 105 ° 1 min 905 W/m² 11,0 °C 21,8 °C 27,4 km/h (5 Bft)
14.05.2024 12:57 22,4 °C 24,4 °C 52 % 42 % 1011,4 hPa 0,0 l/m² 17,6 km/h (3 Bft) O 98 ° 2 min 907 W/m² 10,6 °C 22,2 °C 24,1 km/h (4 Bft)
14.05.2024 12:58 22,4 °C 24,4 °C 52 % 44 % 1011,4 hPa 0,0 l/m² 16,8 km/h (3 Bft) O 98 ° 1 min 905 W/m² 11,3 °C 22,3 °C 19,3 km/h (3 Bft)
14.05.2024 12:59 22,4 °C 24,5 °C 52 % 45 % 1011,4 hPa 0,0 l/m² 19,6 km/h (3 Bft) O 88 ° 1 min 907 W/m² 11,8 °C 22,1 °C 30,6 km/h (5 Bft)
14.05.2024 13:01 22,4 °C 24,4 °C 52 % 42 % 1011,4 hPa 0,0 l/m² 19,9 km/h (4 Bft) O-SO 103 ° 2 min 904 W/m² 10,6 °C 21,9 °C 27,4 km/h (5 Bft)
14.05.2024 13:03 22,4 °C 24,4 °C 52 % 41 % 1011,3 hPa 0,0 l/m² 20,6 km/h (4 Bft) O 100 ° 2 min 904 W/m² 10,3 °C 21,8 °C 29,0 km/h (5 Bft)
14.05.2024 13:04 22,4 °C 24,4 °C 52 % 44 % 1011,3 hPa 0,0 l/m² 20,3 km/h (4 Bft) O-NO 63 ° 1 min 900 W/m² 11,3 °C 21,9 °C 24,1 km/h (4 Bft)
14.05.2024 13:05 22,4 °C 24,4 °C 52 % 43 % 1011,3 hPa 0,0 l/m² 25,6 km/h (4 Bft) O 80 ° 1 min 904 W/m² 11,0 °C 21,3 °C 32,2 km/h (5 Bft)
14.05.2024 13:06 22,4 °C 24,5 °C 52 % 43 % 1011,4 hPa 0,0 l/m² 27,4 km/h (5 Bft) O 101 ° 1 min 905 W/m² 11,1 °C 21,3 °C 33,8 km/h (5 Bft)
14.05.2024 13:07 22,4 °C 24,4 °C 52 % 41 % 1011,3 hPa 0,0 l/m² 25,2 km/h (4 Bft) O 91 ° 1 min 900 W/m² 10,3 °C 21,3 °C 30,6 km/h (5 Bft)
14.05.2024 13:08 22,4 °C 24,4 °C 52 % 43 % 1011,3 hPa 0,0 l/m² 20,3 km/h (4 Bft) O 85 ° 1 min 909 W/m² 11,0 °C 21,9 °C 25,7 km/h (4 Bft)
14.05.2024 13:09 22,4 °C 24,4 °C 52 % 44 % 1011,4 hPa 0,0 l/m² 20,4 km/h (4 Bft) O 94 ° 1 min 907 W/m² 11,3 °C 21,8 °C 27,4 km/h (5 Bft)
14.05.2024 13:11 22,4 °C 24,4 °C 52 % 41 % 1011,3 hPa 0,0 l/m² 19,4 km/h (3 Bft) O-NO 76 ° 2 min 905 W/m² 10,3 °C 22,0 °C 33,8 km/h (5 Bft)
14.05.2024 13:13 22,4 °C 24,4 °C 52 % 41 % 1011,3 hPa 0,0 l/m² 22,1 km/h (4 Bft) O-SO 107 ° 2 min 909 W/m² 10,3 °C 21,6 °C 32,2 km/h (5 Bft)
14.05.2024 13:14 22,4 °C 24,3 °C 52 % 41 % 1011,3 hPa 0,0 l/m² 24,8 km/h (4 Bft) SO 126 ° 1 min 911 W/m² 10,2 °C 21,2 °C 35,4 km/h (5 Bft)
14.05.2024 13:15 22,4 °C 24,3 °C 52 % 43 % 1011,2 hPa 0,0 l/m² 20,0 km/h (4 Bft) O 84 ° 1 min 911 W/m² 10,9 °C 21,8 °C 29,0 km/h (5 Bft)
14.05.2024 13:16 22,4 °C 24,4 °C 52 % 41 % 1011,4 hPa 0,0 l/m² 25,5 km/h (4 Bft) O 97 ° 1 min 911 W/m² 10,3 °C 21,3 °C 32,2 km/h (5 Bft)
14.05.2024 13:17 22,4 °C 24,4 °C 52 % 41 % 1011,3 hPa 0,0 l/m² 17,6 km/h (3 Bft) SO 145 ° 1 min 905 W/m² 10,3 °C 22,2 °C 22,5 km/h (4 Bft)
14.05.2024 13:18 22,4 °C 24,4 °C 52 % 42 % 1011,3 hPa 0,0 l/m² 19,8 km/h (3 Bft) SO 134 ° 1 min 907 W/m² 10,6 °C 21,9 °C 24,1 km/h (4 Bft)
14.05.2024 13:19 22,4 °C 24,4 °C 52 % 41 % 1011,3 hPa 0,0 l/m² 19,3 km/h (3 Bft) O-SO 106 ° 1 min 912 W/m² 10,3 °C 22,0 °C 24,1 km/h (4 Bft)
14.05.2024 13:21 22,4 °C 24,4 °C 52 % 43 % 1011,3 hPa 0,0 l/m² 17,3 km/h (3 Bft) O 89 ° 2 min 907 W/m² 11,0 °C 22,2 °C 24,1 km/h (4 Bft)
14.05.2024 13:23 22,4 °C 24,6 °C 52 % 40 % 1011,2 hPa 0,0 l/m² 20,4 km/h (4 Bft) O 101 ° 2 min 904 W/m² 10,1 °C 22,1 °C 30,6 km/h (5 Bft)
14.05.2024 13:24 22,4 °C 24,6 °C 52 % 42 % 1011,2 hPa 0,0 l/m² 21,1 km/h (4 Bft) O-NO 78 ° 1 min 902 W/m² 10,8 °C 22,0 °C 25,7 km/h (4 Bft)
14.05.2024 13:25 22,4 °C 24,6 °C 52 % 42 % 1011,3 hPa 0,0 l/m² 19,8 km/h (3 Bft) O 99 ° 1 min 902 W/m² 10,8 °C 22,2 °C 29,0 km/h (5 Bft)
14.05.2024 13:26 22,4 °C 24,6 °C 52 % 43 % 1011,1 hPa 0,0 l/m² 20,8 km/h (4 Bft) O 101 ° 1 min 905 W/m² 11,2 °C 22,1 °C 25,7 km/h (4 Bft)
14.05.2024 13:27 22,4 °C 24,6 °C 52 % 42 % 1011,2 hPa 0,0 l/m² 19,6 km/h (3 Bft) O-SO 111 ° 1 min 905 W/m² 10,8 °C 22,2 °C 22,5 km/h (4 Bft)
14.05.2024 13:28 22,4 °C 24,6 °C 52 % 43 % 1011,2 hPa 0,0 l/m² 20,4 km/h (4 Bft) SO 126 ° 1 min 904 W/m² 11,2 °C 22,1 °C 25,7 km/h (4 Bft)
14.05.2024 13:29 22,4 °C 24,6 °C 52 % 42 % 1011,2 hPa 0,0 l/m² 19,4 km/h (3 Bft) O 97 ° 1 min 904 W/m² 10,8 °C 22,2 °C 27,4 km/h (5 Bft)
14.05.2024 13:31 22,4 °C 24,6 °C 52 % 41 % 1011,3 hPa 0,0 l/m² 24,0 km/h (4 Bft) O 95 ° 2 min 902 W/m² 10,5 °C 21,7 °C 38,6 km/h (6 Bft)
14.05.2024 13:33 22,4 °C 24,6 °C 52 % 40 % 1011,3 hPa 0,0 l/m² 27,2 km/h (5 Bft) O-NO 68 ° 2 min 904 W/m² 10,1 °C 21,4 °C 33,8 km/h (5 Bft)
14.05.2024 13:34 22,4 °C 24,6 °C 52 % 39 % 1011,2 hPa 0,0 l/m² 17,3 km/h (3 Bft) O 98 ° 1 min 902 W/m² 9,7 °C 22,5 °C 25,7 km/h (4 Bft)
14.05.2024 13:35 22,4 °C 24,6 °C 52 % 40 % 1011,2 hPa 0,0 l/m² 15,6 km/h (3 Bft) O-NO 77 ° 1 min 904 W/m² 10,1 °C 22,7 °C 19,3 km/h (3 Bft)
14.05.2024 13:36 22,4 °C 24,6 °C 52 % 43 % 1011,1 hPa 0,0 l/m² 16,3 km/h (3 Bft) O-SO 115 ° 1 min 904 W/m² 11,2 °C 22,6 °C 22,5 km/h (4 Bft)
14.05.2024 13:37 22,4 °C 24,6 °C 52 % 41 % 1011,1 hPa 0,0 l/m² 21,2 km/h (4 Bft) O-SO 123 ° 1 min 909 W/m² 10,5 °C 22,0 °C 35,4 km/h (5 Bft)
14.05.2024 13:38 22,4 °C 24,6 °C 52 % 40 % 1011,2 hPa 0,0 l/m² 25,5 km/h (4 Bft) O-SO 117 ° 1 min 905 W/m² 10,1 °C 21,6 °C 33,8 km/h (5 Bft)
14.05.2024 13:39 22,4 °C 24,5 °C 52 % 39 % 1011,1 hPa 0,0 l/m² 20,5 km/h (4 Bft) O 97 ° 1 min 900 W/m² 9,6 °C 22,0 °C 25,7 km/h (4 Bft)
14.05.2024 13:41 22,4 °C 24,5 °C 52 % 41 % 1011,2 hPa 0,0 l/m² 20,0 km/h (4 Bft) O-SO 119 ° 2 min 902 W/m² 10,4 °C 22,0 °C 27,4 km/h (5 Bft)
14.05.2024 13:43 22,4 °C 24,4 °C 52 % 41 % 1011,1 hPa 0,0 l/m² 20,5 km/h (4 Bft) SO 127 ° 2 min 900 W/m² 10,3 °C 21,8 °C 29,0 km/h (5 Bft)
14.05.2024 13:44 22,4 °C 24,4 °C 52 % 42 % 1011,1 hPa 0,0 l/m² 20,7 km/h (4 Bft) SO 131 ° 1 min 902 W/m² 10,6 °C 21,8 °C 27,4 km/h (5 Bft)
14.05.2024 13:45 22,4 °C 24,6 °C 52 % 44 % 1011,1 hPa 0,0 l/m² 26,8 km/h (4 Bft) O-SO 104 ° 1 min 904 W/m² 11,5 °C 21,5 °C 30,6 km/h (5 Bft)
14.05.2024 13:46 22,4 °C 24,5 °C 52 % 41 % 1011,1 hPa 0,0 l/m² 24,7 km/h (4 Bft) O-SO 111 ° 1 min 904 W/m² 10,4 °C 21,5 °C 29,0 km/h (5 Bft)
14.05.2024 13:47 22,4 °C 24,5 °C 52 % 41 % 1011,2 hPa 0,0 l/m² 19,3 km/h (3 Bft) O-SO 123 ° 1 min 900 W/m² 10,4 °C 22,1 °C 25,7 km/h (4 Bft)
14.05.2024 13:48 22,4 °C 24,4 °C 52 % 40 % 1011,1 hPa 0,0 l/m² 22,1 km/h (4 Bft) O-SO 123 ° 1 min 896 W/m² 9,9 °C 21,6 °C 27,4 km/h (5 Bft)
14.05.2024 13:49 22,4 °C 24,4 °C 52 % 41 % 1011,1 hPa 0,0 l/m² 17,7 km/h (3 Bft) SO 138 ° 1 min 895 W/m² 10,3 °C 22,2 °C 22,5 km/h (4 Bft)
14.05.2024 13:51 22,4 °C 24,4 °C 52 % 42 % 1011,1 hPa 0,0 l/m² 14,2 km/h (3 Bft) SO 124 ° 2 min 889 W/m² 10,6 °C 22,7 °C 20,9 km/h (4 Bft)
14.05.2024 13:53 22,4 °C 24,6 °C 52 % 41 % 1011,1 hPa 0,0 l/m² 19,8 km/h (3 Bft) O-SO 113 ° 2 min 886 W/m² 10,5 °C 22,2 °C 27,4 km/h (5 Bft)
14.05.2024 13:54 22,5 °C 24,6 °C 52 % 43 % 1011,0 hPa 0,0 l/m² 20,5 km/h (4 Bft) O-NO 71 ° 1 min 886 W/m² 11,2 °C 22,1 °C 27,4 km/h (5 Bft)
14.05.2024 13:55 22,5 °C 24,7 °C 52 % 41 % 1011,0 hPa 0,0 l/m² 22,1 km/h (4 Bft) O 82 ° 1 min 882 W/m² 10,6 °C 22,0 °C 29,0 km/h (5 Bft)
14.05.2024 13:56 22,5 °C 24,7 °C 52 % 42 % 1011,0 hPa 0,0 l/m² 23,7 km/h (4 Bft) O 85 ° 1 min 888 W/m² 10,9 °C 21,9 °C 29,0 km/h (5 Bft)
14.05.2024 13:57 22,4 °C 24,8 °C 52 % 42 % 1011,0 hPa 0,0 l/m² 16,3 km/h (3 Bft) O-SO 118 ° 1 min 886 W/m² 11,0 °C 22,9 °C 25,7 km/h (4 Bft)
14.05.2024 13:58 22,5 °C 24,7 °C 52 % 42 % 1011,0 hPa 0,0 l/m² 19,9 km/h (4 Bft) O 82 ° 1 min 888 W/m² 10,9 °C 22,3 °C 25,7 km/h (4 Bft)
14.05.2024 13:59 22,5 °C 24,7 °C 52 % 41 % 1010,9 hPa 0,0 l/m² 18,9 km/h (3 Bft) O 98 ° 1 min 884 W/m² 10,6 °C 22,4 °C 25,7 km/h (4 Bft)
14.05.2024 14:01 22,5 °C 24,6 °C 52 % 41 % 1011,0 hPa 0,0 l/m² 24,7 km/h (4 Bft) O 89 ° 2 min 886 W/m² 10,5 °C 21,6 °C 38,6 km/h (6 Bft)
14.05.2024 14:03 22,5 °C 24,6 °C 52 % 41 % 1010,9 hPa 0,0 l/m² 15,0 km/h (3 Bft) O-SO 115 ° 2 min 872 W/m² 10,5 °C 22,8 °C 25,7 km/h (4 Bft)
14.05.2024 14:04 22,5 °C 24,7 °C 52 % 44 % 1010,9 hPa 0,0 l/m² 12,5 km/h (2 Bft) O 93 ° 1 min 877 W/m² 11,6 °C 23,4 °C 17,7 km/h (3 Bft)
14.05.2024 14:05 22,5 °C 24,8 °C 52 % 45 % 1010,9 hPa 0,0 l/m² 23,6 km/h (4 Bft) O 96 ° 1 min 882 W/m² 12,0 °C 22,0 °C 32,2 km/h (5 Bft)
14.05.2024 14:06 22,4 °C 24,8 °C 52 % 41 % 1010,9 hPa 0,0 l/m² 21,6 km/h (4 Bft) SO 128 ° 1 min 882 W/m² 10,6 °C 22,2 °C 27,4 km/h (5 Bft)
14.05.2024 14:07 22,5 °C 24,8 °C 52 % 42 % 1010,9 hPa 0,0 l/m² 22,4 km/h (4 Bft) O 98 ° 1 min 881 W/m² 11,0 °C 22,1 °C 32,2 km/h (5 Bft)
14.05.2024 14:08 22,6 °C 24,7 °C 52 % 41 % 1010,9 hPa 0,0 l/m² 25,2 km/h (4 Bft) O-SO 102 ° 1 min 882 W/m² 10,6 °C 21,7 °C 30,6 km/h (5 Bft)
14.05.2024 14:09 22,5 °C 24,7 °C 52 % 42 % 1010,9 hPa 0,0 l/m² 25,5 km/h (4 Bft) O-SO 114 ° 1 min 875 W/m² 10,9 °C 21,7 °C 30,6 km/h (5 Bft)
14.05.2024 14:11 22,5 °C 24,6 °C 52 % 40 % 1010,8 hPa 0,0 l/m² 16,7 km/h (3 Bft) O 101 ° 2 min 874 W/m² 10,1 °C 22,6 °C 22,5 km/h (4 Bft)
14.05.2024 14:13 22,5 °C 24,7 °C 52 % 42 % 1010,8 hPa 0,0 l/m² 18,1 km/h (3 Bft) O-SO 118 ° 2 min 874 W/m² 10,9 °C 22,5 °C 27,4 km/h (5 Bft)
14.05.2024 14:14 22,5 °C 24,7 °C 52 % 41 % 1010,8 hPa 0,0 l/m² 16,8 km/h (3 Bft) SO 141 ° 1 min 877 W/m² 10,6 °C 22,7 °C 22,5 km/h (4 Bft)
14.05.2024 14:15 22,5 °C 24,8 °C 52 % 42 % 1010,8 hPa 0,0 l/m² 19,4 km/h (3 Bft) O-SO 105 ° 1 min 879 W/m² 11,0 °C 22,5 °C 22,5 km/h (4 Bft)
14.05.2024 14:17 22,5 °C 25,0 °C 52 % 43 % 1010,7 hPa 0,0 l/m² 15,0 km/h (3 Bft) O-SO 107 ° 2 min 870 W/m² 11,5 °C 23,3 °C 25,7 km/h (4 Bft)
14.05.2024 14:18 22,5 °C 25,0 °C 52 % 43 % 1010,7 hPa 0,0 l/m² 8,0 km/h (2 Bft) O-SO 114 ° 1 min 870 W/m² 11,5 °C 24,6 °C 14,5 km/h (3 Bft)
14.05.2024 14:19 22,5 °C 25,2 °C 52 % 43 % 1010,7 hPa 0,0 l/m² 13,4 km/h (3 Bft) O-SO 115 ° 1 min 868 W/m² 11,7 °C 23,8 °C 19,3 km/h (3 Bft)
14.05.2024 14:21 22,5 °C 25,2 °C 52 % 42 % 1010,8 hPa 0,0 l/m² 20,6 km/h (4 Bft) O-SO 113 ° 2 min 865 W/m² 11,4 °C 22,9 °C 35,4 km/h (5 Bft)
14.05.2024 14:23 22,6 °C 24,9 °C 52 % 41 % 1010,7 hPa 0,0 l/m² 21,6 km/h (4 Bft) SO 134 ° 2 min 863 W/m² 10,7 °C 22,4 °C 29,0 km/h (5 Bft)
14.05.2024 14:24 22,6 °C 24,8 °C 52 % 42 % 1010,6 hPa 0,0 l/m² 16,9 km/h (3 Bft) O 101 ° 1 min 863 W/m² 11,0 °C 22,8 °C 22,5 km/h (4 Bft)
14.05.2024 14:25 22,5 °C 24,8 °C 52 % 43 % 1010,7 hPa 0,0 l/m² 19,1 km/h (3 Bft) SO 125 ° 1 min 863 W/m² 11,4 °C 22,5 °C 25,7 km/h (4 Bft)
14.05.2024 14:26 22,6 °C 24,8 °C 52 % 45 % 1010,6 hPa 0,0 l/m² 12,2 km/h (2 Bft) NO 56 ° 1 min 854 W/m² 12,0 °C 23,5 °C 17,7 km/h (3 Bft)
14.05.2024 14:27 22,5 °C 24,9 °C 52 % 47 % 1010,7 hPa 0,0 l/m² 16,9 km/h (3 Bft) O-NO 72 ° 1 min 856 W/m² 12,8 °C 22,9 °C 25,7 km/h (4 Bft)
14.05.2024 14:28 22,6 °C 25,1 °C 52 % 42 % 1010,7 hPa 0,0 l/m² 16,2 km/h (3 Bft) O-NO 74 ° 1 min 851 W/m² 11,3 °C 23,3 °C 24,1 km/h (4 Bft)
14.05.2024 14:29 22,5 °C 25,1 °C 52 % 42 % 1010,6 hPa 0,0 l/m² 15,0 km/h (3 Bft) O 87 ° 1 min 851 W/m² 11,3 °C 23,4 °C 19,3 km/h (3 Bft)
14.05.2024 14:31 22,6 °C 25,1 °C 52 % 41 % 1010,6 hPa 0,0 l/m² 17,8 km/h (3 Bft) O-SO 113 ° 2 min 849 W/m² 10,9 °C 23,1 °C 32,2 km/h (5 Bft)
14.05.2024 14:33 22,6 °C 25,1 °C 52 % 42 % 1010,5 hPa 0,0 l/m² 12,6 km/h (3 Bft) O 96 ° 2 min 853 W/m² 11,3 °C 23,8 °C 25,7 km/h (4 Bft)
14.05.2024 14:34 22,6 °C 25,2 °C 52 % 42 % 1010,5 hPa 0,0 l/m² 21,8 km/h (4 Bft) O-SO 103 ° 1 min 853 W/m² 11,4 °C 22,7 °C 33,8 km/h (5 Bft)
14.05.2024 14:35 22,5 °C 25,2 °C 52 % 41 % 1010,5 hPa 0,0 l/m² 16,0 km/h (3 Bft) O-SO 119 ° 1 min 853 W/m² 11,0 °C 23,4 °C 20,9 km/h (4 Bft)
14.05.2024 14:36 22,6 °C 25,1 °C 52 % 41 % 1010,5 hPa 0,0 l/m² 18,1 km/h (3 Bft) O 79 ° 1 min 853 W/m² 10,9 °C 23,0 °C 24,1 km/h (4 Bft)
14.05.2024 14:37 22,5 °C 25,1 °C 52 % 42 % 1010,5 hPa 0,0 l/m² 19,8 km/h (3 Bft) O-SO 103 ° 1 min 851 W/m² 11,3 °C 22,8 °C 25,7 km/h (4 Bft)
14.05.2024 14:38 22,5 °C 25,1 °C 52 % 41 % 1010,5 hPa 0,0 l/m² 17,3 km/h (3 Bft) SO 126 ° 1 min 853 W/m² 10,9 °C 23,1 °C 20,9 km/h (4 Bft)
14.05.2024 14:39 22,6 °C 25,1 °C 52 % 42 % 1010,5 hPa 0,0 l/m² 19,5 km/h (3 Bft) SO 133 ° 1 min 853 W/m² 11,3 °C 22,9 °C 25,7 km/h (4 Bft)
14.05.2024 14:41 22,6 °C 25,1 °C 52 % 40 % 1010,5 hPa 0,0 l/m² 18,2 km/h (3 Bft) O-SO 105 ° 2 min 844 W/m² 10,5 °C 23,0 °C 29,0 km/h (5 Bft)
14.05.2024 14:43 22,6 °C 24,9 °C 52 % 38 % 1010,4 hPa 0,0 l/m² 22,9 km/h (4 Bft) O-SO 105 ° 2 min 842 W/m² 9,6 °C 22,2 °C 32,2 km/h (5 Bft)
14.05.2024 14:44 22,5 °C 24,9 °C 52 % 39 % 1010,4 hPa 0,0 l/m² 22,7 km/h (4 Bft) O-SO 121 ° 1 min 844 W/m² 10,0 °C 22,2 °C 27,4 km/h (5 Bft)
14.05.2024 14:45 22,6 °C 24,8 °C 52 % 40 % 1010,4 hPa 0,0 l/m² 19,0 km/h (3 Bft) O-SO 105 ° 1 min 844 W/m² 10,3 °C 22,5 °C 27,4 km/h (5 Bft)
14.05.2024 14:47 22,6 °C 24,9 °C 52 % 43 % 1010,4 hPa 0,0 l/m² 20,1 km/h (4 Bft) SO 130 ° 2 min 838 W/m² 11,4 °C 22,5 °C 33,8 km/h (5 Bft)
14.05.2024 14:48 22,6 °C 24,9 °C 52 % 40 % 1010,4 hPa 0,0 l/m² 24,6 km/h (4 Bft) O-SO 105 ° 1 min 833 W/m² 10,4 °C 22,1 °C 29,0 km/h (5 Bft)
14.05.2024 14:49 22,5 °C 24,9 °C 52 % 41 % 1010,4 hPa 0,0 l/m² 17,1 km/h (3 Bft) O 93 ° 1 min 835 W/m² 10,7 °C 22,9 °C 22,5 km/h (4 Bft)
14.05.2024 14:51 22,6 °C 25,0 °C 52 % 41 % 1010,5 hPa 0,0 l/m² 19,7 km/h (3 Bft) SO 126 ° 2 min 831 W/m² 10,8 °C 22,7 °C 30,6 km/h (5 Bft)
14.05.2024 14:53 22,6 °C 24,9 °C 52 % 41 % 1010,4 hPa 0,0 l/m² 17,5 km/h (3 Bft) O-SO 104 ° 2 min 826 W/m² 10,7 °C 22,8 °C 27,4 km/h (5 Bft)
14.05.2024 14:54 22,6 °C 24,9 °C 52 % 42 % 1010,4 hPa 0,0 l/m² 16,1 km/h (3 Bft) O-SO 114 ° 1 min 823 W/m² 11,1 °C 23,0 °C 25,7 km/h (4 Bft)
14.05.2024 14:55 22,6 °C 24,9 °C 52 % 40 % 1010,5 hPa 0,0 l/m² 18,1 km/h (3 Bft) O 96 ° 1 min 821 W/m² 10,4 °C 22,8 °C 24,1 km/h (4 Bft)
14.05.2024 14:56 22,6 °C 24,9 °C 52 % 42 % 1010,4 hPa 0,0 l/m² 16,5 km/h (3 Bft) O 80 ° 1 min 819 W/m² 11,1 °C 23,0 °C 20,9 km/h (4 Bft)
14.05.2024 14:57 22,6 °C 24,9 °C 52 % 42 % 1010,4 hPa 0,0 l/m² 15,4 km/h (3 Bft) O 80 ° 1 min 821 W/m² 11,1 °C 23,1 °C 19,3 km/h (3 Bft)
14.05.2024 14:58 22,6 °C 25,1 °C 52 % 43 % 1010,4 hPa 0,0 l/m² 21,0 km/h (4 Bft) O-NO 74 ° 1 min 817 W/m² 11,6 °C 22,7 °C 32,2 km/h (5 Bft)
14.05.2024 14:59 22,6 °C 25,2 °C 52 % 41 % 1010,4 hPa 0,0 l/m² 19,6 km/h (3 Bft) O-NO 78 ° 1 min 819 W/m² 11,0 °C 23,0 °C 25,7 km/h (4 Bft)
14.05.2024 15:01 22,6 °C 25,4 °C 52 % 40 % 1010,4 hPa 0,0 l/m² 19,9 km/h (4 Bft) O 84 ° 2 min 805 W/m² 10,8 °C 23,2 °C 29,0 km/h (5 Bft)
14.05.2024 15:03 22,6 °C 25,6 °C 52 % 40 % 1010,3 hPa 0,0 l/m² 22,9 km/h (4 Bft) O-NO 78 ° 2 min 810 W/m² 11,0 °C 23,2 °C 30,6 km/h (5 Bft)
14.05.2024 15:04 22,6 °C 25,7 °C 52 % 38 % 1010,3 hPa 0,0 l/m² 26,5 km/h (4 Bft) O-NO 59 ° 1 min 810 W/m² 10,3 °C 23,0 °C 33,8 km/h (5 Bft)
14.05.2024 15:05 22,6 °C 25,7 °C 52 % 38 % 1010,3 hPa 0,0 l/m² 23,5 km/h (4 Bft) O-SO 111 ° 1 min 809 W/m² 10,3 °C 23,2 °C 29,0 km/h (5 Bft)
14.05.2024 15:06 22,6 °C 25,6 °C 52 % 39 % 1010,3 hPa 0,0 l/m² 21,3 km/h (4 Bft) O 99 ° 1 min 810 W/m² 10,6 °C 23,3 °C 29,0 km/h (5 Bft)
14.05.2024 15:07 22,6 °C 25,4 °C 52 % 39 % 1010,3 hPa 0,0 l/m² 17,6 km/h (3 Bft) O-SO 117 ° 1 min 805 W/m² 10,4 °C 23,5 °C 22,5 km/h (4 Bft)
14.05.2024 15:08 22,6 °C 25,3 °C 52 % 40 % 1010,3 hPa 0,0 l/m² 20,4 km/h (4 Bft) SO 132 ° 1 min 805 W/m² 10,7 °C 23,0 °C 25,7 km/h (4 Bft)
14.05.2024 15:09 22,6 °C 25,2 °C 52 % 38 % 1010,3 hPa 0,0 l/m² 19,9 km/h (4 Bft) O-SO 112 ° 1 min 807 W/m² 9,9 °C 22,9 °C 25,7 km/h (4 Bft)
14.05.2024 15:11 22,6 °C 25,1 °C 52 % 39 % 1010,3 hPa 0,0 l/m² 17,8 km/h (3 Bft) O-SO 105 ° 2 min 798 W/m² 10,2 °C 23,1 °C 24,1 km/h (4 Bft)
14.05.2024 15:13 22,6 °C 25,1 °C 52 % 40 % 1010,2 hPa 0,0 l/m² 16,8 km/h (3 Bft) O-SO 103 ° 2 min 802 W/m² 10,5 °C 23,2 °C 22,5 km/h (4 Bft)
14.05.2024 15:14 22,6 °C 25,1 °C 52 % 42 % 1010,3 hPa 0,0 l/m² 16,9 km/h (3 Bft) O-NO 66 ° 1 min 798 W/m² 11,3 °C 23,2 °C 25,7 km/h (4 Bft)
14.05.2024 15:15 22,6 °C 25,2 °C 52 % 42 % 1010,2 hPa 0,0 l/m² 18,3 km/h (3 Bft) O 84 ° 1 min 793 W/m² 11,4 °C 23,1 °C 24,1 km/h (4 Bft)
14.05.2024 15:16 22,6 °C 25,3 °C 52 % 42 % 1010,2 hPa 0,0 l/m² 21,3 km/h (4 Bft) O-SO 105 ° 1 min 791 W/m² 11,5 °C 22,9 °C 24,1 km/h (4 Bft)
14.05.2024 15:17 22,6 °C 25,3 °C 52 % 40 % 1010,2 hPa 0,0 l/m² 19,9 km/h (4 Bft) O-SO 111 ° 1 min 793 W/m² 10,7 °C 23,1 °C 24,1 km/h (4 Bft)
14.05.2024 15:18 22,6 °C 25,3 °C 52 % 40 % 1010,3 hPa 0,0 l/m² 17,6 km/h (3 Bft) O-SO 123 ° 1 min 788 W/m² 10,7 °C 23,3 °C 24,1 km/h (4 Bft)
14.05.2024 15:19 22,6 °C 25,2 °C 52 % 39 % 1010,2 hPa 0,0 l/m² 17,7 km/h (3 Bft) O-SO 115 ° 1 min 789 W/m² 10,2 °C 23,2 °C 24,1 km/h (4 Bft)
14.05.2024 15:21 22,6 °C 25,2 °C 52 % 41 % 1010,2 hPa 0,0 l/m² 17,8 km/h (3 Bft) O-SO 111 ° 2 min 784 W/m² 11,0 °C 23,2 °C 27,4 km/h (5 Bft)
14.05.2024 15:22 22,6 °C 25,2 °C 52 % 41 % 1010,2 hPa 0,0 l/m² 17,8 km/h (3 Bft) SO 125 ° 1 min 784 W/m² 11,0 °C 23,2 °C 22,5 km/h (4 Bft)
14.05.2024 15:23 22,6 °C 25,1 °C 52 % 39 % 1010,2 hPa 0,0 l/m² 17,4 km/h (3 Bft) SO 134 ° 1 min 784 W/m² 10,2 °C 23,1 °C 20,9 km/h (4 Bft)
14.05.2024 15:24 22,6 °C 25,1 °C 52 % 40 % 1010,1 hPa 0,0 l/m² 15,9 km/h (3 Bft) O-SO 116 ° 1 min 784 W/m² 10,5 °C 23,3 °C 20,9 km/h (4 Bft)
14.05.2024 15:25 22,6 °C 25,1 °C 52 % 42 % 1010,1 hPa 0,0 l/m² 12,3 km/h (2 Bft) O 86 ° 1 min 777 W/m² 11,3 °C 23,9 °C 17,7 km/h (3 Bft)
14.05.2024 15:26 22,6 °C 25,1 °C 52 % 40 % 1010,2 hPa 0,0 l/m² 16,3 km/h (3 Bft) O 101 ° 1 min 773 W/m² 10,5 °C 23,2 °C 20,9 km/h (4 Bft)
14.05.2024 15:27 22,6 °C 25,2 °C 52 % 42 % 1010,2 hPa 0,0 l/m² 10,9 km/h (2 Bft) O 88 ° 1 min 775 W/m² 11,4 °C 24,2 °C 16,1 km/h (3 Bft)
14.05.2024 15:28 22,6 °C 25,3 °C 52 % 43 % 1010,1 hPa 0,0 l/m² 15,0 km/h (3 Bft) O-SO 105 ° 1 min 773 W/m² 11,8 °C 23,7 °C 19,3 km/h (3 Bft)
14.05.2024 15:29 22,6 °C 25,3 °C 52 % 42 % 1010,3 hPa 0,0 l/m² 17,8 km/h (3 Bft) O 91 ° 1 min 775 W/m² 11,5 °C 23,3 °C 22,5 km/h (4 Bft)
14.05.2024 15:31 22,6 °C 25,3 °C 52 % 41 % 1010,1 hPa 0,0 l/m² 18,9 km/h (3 Bft) O 85 ° 2 min 768 W/m² 11,1 °C 23,2 °C 30,6 km/h (5 Bft)
14.05.2024 15:33 22,6 °C 25,3 °C 52 % 40 % 1010,1 hPa 0,0 l/m² 21,5 km/h (4 Bft) O 93 ° 2 min 765 W/m² 10,7 °C 22,9 °C 32,2 km/h (5 Bft)
14.05.2024 15:34 22,6 °C 25,3 °C 52 % 41 % 1010,1 hPa 0,0 l/m² 13,4 km/h (3 Bft) O 88 ° 1 min 761 W/m² 11,1 °C 23,9 °C 17,7 km/h (3 Bft)
14.05.2024 15:35 22,6 °C 25,2 °C 52 % 44 % 1010,1 hPa 0,0 l/m² 17,1 km/h (3 Bft) O 90 ° 1 min 759 W/m² 12,1 °C 23,3 °C 22,5 km/h (4 Bft)
14.05.2024 15:36 22,6 °C 25,2 °C 52 % 41 % 1010,1 hPa 0,0 l/m² 20,1 km/h (4 Bft) O 97 ° 1 min 754 W/m² 11,0 °C 22,9 °C 24,1 km/h (4 Bft)
14.05.2024 15:37 22,6 °C 25,2 °C 52 % 40 % 1010,2 hPa 0,0 l/m² 16,1 km/h (3 Bft) O-SO 103 ° 1 min 752 W/m² 10,6 °C 23,4 °C 20,9 km/h (4 Bft)
14.05.2024 15:38 22,6 °C 25,2 °C 52 % 41 % 1010,1 hPa 0,0 l/m² 16,9 km/h (3 Bft) O-SO 107 ° 1 min 752 W/m² 11,0 °C 23,3 °C 22,5 km/h (4 Bft)
14.05.2024 15:39 22,6 °C 25,2 °C 52 % 41 % 1010,1 hPa 0,0 l/m² 19,1 km/h (3 Bft) O 97 ° 1 min 749 W/m² 11,0 °C 23,0 °C 24,1 km/h (4 Bft)
14.05.2024 15:41 22,6 °C 25,2 °C 52 % 40 % 1010,0 hPa 0,0 l/m² 21,7 km/h (4 Bft) O 94 ° 2 min 744 W/m² 10,6 °C 22,7 °C 32,2 km/h (5 Bft)
14.05.2024 15:43 22,6 °C 25,2 °C 52 % 39 % 1010,1 hPa 0,0 l/m² 24,5 km/h (4 Bft) O 90 ° 2 min 737 W/m² 10,2 °C 22,5 °C 37,0 km/h (5 Bft)
14.05.2024 15:45 22,6 °C 25,1 °C 52 % 39 % 1010,1 hPa 0,0 l/m² 21,9 km/h (4 Bft) O-NO 75 ° 2 min 729 W/m² 10,2 °C 22,6 °C 35,4 km/h (5 Bft)
14.05.2024 15:46 22,6 °C 25,1 °C 52 % 40 % 1010,0 hPa 0,0 l/m² 24,3 km/h (4 Bft) O-NO 74 ° 1 min 726 W/m² 10,5 °C 22,4 °C 35,4 km/h (5 Bft)
14.05.2024 15:47 22,6 °C 25,1 °C 52 % 39 % 1010,1 hPa 0,0 l/m² 27,2 km/h (5 Bft) O-NO 67 ° 1 min 728 W/m² 10,2 °C 22,1 °C 35,4 km/h (5 Bft)
14.05.2024 15:48 22,6 °C 25,1 °C 52 % 38 % 1010,1 hPa 0,0 l/m² 25,6 km/h (4 Bft) O 90 ° 1 min 731 W/m² 9,8 °C 22,2 °C 35,4 km/h (5 Bft)
14.05.2024 15:49 22,6 °C 25,1 °C 52 % 38 % 1010,0 hPa 0,0 l/m² 21,4 km/h (4 Bft) O 95 ° 1 min 729 W/m² 9,8 °C 22,6 °C 25,7 km/h (4 Bft)
14.05.2024 15:51 22,6 °C 25,2 °C 52 % 40 % 1010,0 hPa 0,0 l/m² 16,7 km/h (3 Bft) NO 48 ° 2 min 729 W/m² 10,6 °C 23,3 °C 25,7 km/h (4 Bft)
14.05.2024 15:53 22,6 °C 25,3 °C 52 % 39 % 1010,0 hPa 0,0 l/m² 19,4 km/h (3 Bft) O-NO 76 ° 2 min 721 W/m² 10,3 °C 23,1 °C 32,2 km/h (5 Bft)
14.05.2024 15:54 22,6 °C 25,4 °C 52 % 38 % 1010,0 hPa 0,0 l/m² 14,2 km/h (3 Bft) O-NO 78 ° 1 min 717 W/m² 10,0 °C 23,9 °C 24,1 km/h (4 Bft)
14.05.2024 15:55 22,6 °C 25,4 °C 52 % 38 % 1010,0 hPa 0,0 l/m² 19,1 km/h (3 Bft) O 82 ° 1 min 712 W/m² 10,0 °C 23,3 °C 24,1 km/h (4 Bft)
14.05.2024 15:56 22,6 °C 25,5 °C 52 % 38 % 1009,9 hPa 0,0 l/m² 20,6 km/h (4 Bft) O 82 ° 1 min 710 W/m² 10,1 °C 23,2 °C 29,0 km/h (5 Bft)
14.05.2024 15:57 22,6 °C 25,5 °C 52 % 38 % 1010,0 hPa 0,0 l/m² 24,4 km/h (4 Bft) O 82 ° 1 min 710 W/m² 10,1 °C 22,9 °C 29,0 km/h (5 Bft)
14.05.2024 15:58 22,6 °C 25,4 °C 52 % 38 % 1010,0 hPa 0,0 l/m² 17,4 km/h (3 Bft) O-SO 109 ° 1 min 707 W/m² 10,0 °C 23,5 °C 20,9 km/h (4 Bft)
14.05.2024 15:59 22,6 °C 25,3 °C 52 % 39 % 1010,0 hPa 0,0 l/m² 19,8 km/h (3 Bft) O-SO 109 ° 1 min 700 W/m² 10,3 °C 23,1 °C 25,7 km/h (4 Bft)
14.05.2024 16:01 22,6 °C 25,1 °C 52 % 41 % 1010,0 hPa 0,0 l/m² 18,2 km/h (3 Bft) O 98 ° 2 min 700 W/m² 10,9 °C 23,0 °C 29,0 km/h (5 Bft)
14.05.2024 16:03 22,6 °C 25,1 °C 52 % 39 % 1009,9 hPa 0,0 l/m² 16,0 km/h (3 Bft) O 88 ° 2 min 700 W/m² 10,2 °C 23,3 °C 22,5 km/h (4 Bft)
14.05.2024 16:04 22,6 °C 25,1 °C 52 % 41 % 1010,0 hPa 0,0 l/m² 18,5 km/h (3 Bft) O 94 ° 1 min 701 W/m² 10,9 °C 23,0 °C 22,5 km/h (4 Bft)
14.05.2024 16:05 22,6 °C 25,1 °C 52 % 40 % 1010,0 hPa 0,0 l/m² 16,9 km/h (3 Bft) O 81 ° 1 min 694 W/m² 10,5 °C 23,2 °C 20,9 km/h (4 Bft)
14.05.2024 16:06 22,6 °C 25,1 °C 52 % 40 % 1009,8 hPa 0,0 l/m² 16,2 km/h (3 Bft) O 90 ° 1 min 691 W/m² 10,5 °C 23,3 °C 19,3 km/h (3 Bft)
14.05.2024 16:07 22,6 °C 25,1 °C 52 % 39 % 1009,9 hPa 0,0 l/m² 16,1 km/h (3 Bft) O-NO 67 ° 1 min 687 W/m² 10,2 °C 23,3 °C 19,3 km/h (3 Bft)
14.05.2024 16:08 22,6 °C 25,2 °C 52 % 39 % 1009,9 hPa 0,0 l/m² 18,5 km/h (3 Bft) O 93 ° 1 min 686 W/m² 10,2 °C 23,1 °C 30,6 km/h (5 Bft)
14.05.2024 16:09 22,6 °C 25,2 °C 52 % 38 % 1010,0 hPa 0,0 l/m² 20,2 km/h (4 Bft) O-SO 103 ° 1 min 684 W/m² 9,9 °C 22,9 °C 27,4 km/h (5 Bft)
14.05.2024 16:11 22,6 °C 25,1 °C 52 % 39 % 1009,9 hPa 0,0 l/m² 19,9 km/h (4 Bft) O 99 ° 2 min 680 W/m² 10,2 °C 22,8 °C 25,7 km/h (4 Bft)
14.05.2024 16:13 22,6 °C 25,1 °C 52 % 39 % 1009,8 hPa 0,0 l/m² 17,4 km/h (3 Bft) O 96 ° 2 min 677 W/m² 10,2 °C 23,1 °C 24,1 km/h (4 Bft)
14.05.2024 16:14 22,6 °C 25,0 °C 52 % 40 % 1009,9 hPa 0,0 l/m² 14,4 km/h (3 Bft) O 93 ° 1 min 680 W/m² 10,4 °C 23,4 °C 17,7 km/h (3 Bft)
14.05.2024 16:15 22,6 °C 25,0 °C 52 % 41 % 1009,8 hPa 0,0 l/m² 14,4 km/h (3 Bft) O 101 ° 1 min 677 W/m² 10,8 °C 23,4 °C 19,3 km/h (3 Bft)
14.05.2024 16:16 22,6 °C 25,0 °C 52 % 41 % 1009,7 hPa 0,0 l/m² 16,5 km/h (3 Bft) O-NO 66 ° 1 min 670 W/m² 10,8 °C 23,1 °C 24,1 km/h (4 Bft)
14.05.2024 16:17 22,6 °C 25,1 °C 52 % 40 % 1009,8 hPa 0,0 l/m² 15,3 km/h (3 Bft) O 81 ° 1 min 668 W/m² 10,5 °C 23,4 °C 19,3 km/h (3 Bft)
14.05.2024 16:18 22,6 °C 25,1 °C 52 % 40 % 1009,8 hPa 0,0 l/m² 19,8 km/h (3 Bft) O-NO 73 ° 1 min 664 W/m² 10,5 °C 22,8 °C 27,4 km/h (5 Bft)
14.05.2024 16:19 22,6 °C 25,2 °C 52 % 40 % 1009,8 hPa 0,0 l/m² 17,1 km/h (3 Bft) O 96 ° 1 min 663 W/m² 10,6 °C 23,3 °C 20,9 km/h (4 Bft)
14.05.2024 16:21 22,6 °C 25,3 °C 52 % 38 % 1009,8 hPa 0,0 l/m² 21,7 km/h (4 Bft) O 79 ° 2 min 654 W/m² 9,9 °C 22,9 °C 37,0 km/h (5 Bft)
14.05.2024 16:23 22,6 °C 25,2 °C 52 % 38 % 1009,8 hPa 0,0 l/m² 27,4 km/h (5 Bft) O 89 ° 2 min 652 W/m² 9,9 °C 22,2 °C 38,6 km/h (6 Bft)
14.05.2024 16:24 22,6 °C 25,1 °C 52 % 36 % 1009,8 hPa 0,0 l/m² 29,2 km/h (5 Bft) O-SO 107 ° 1 min 652 W/m² 9,0 °C 21,9 °C 37,0 km/h (5 Bft)
14.05.2024 16:25 22,6 °C 25,1 °C 52 % 36 % 1009,8 hPa 0,0 l/m² 21,4 km/h (4 Bft) O 88 ° 1 min 650 W/m² 9,0 °C 22,6 °C 29,0 km/h (5 Bft)
14.05.2024 16:26 22,6 °C 25,0 °C 52 % 38 % 1009,8 hPa 0,0 l/m² 21,1 km/h (4 Bft) O 83 ° 1 min 649 W/m² 9,7 °C 22,5 °C 25,7 km/h (4 Bft)
14.05.2024 16:27 22,6 °C 24,9 °C 52 % 38 % 1009,7 hPa 0,0 l/m² 23,1 km/h (4 Bft) O-NO 69 ° 1 min 642 W/m² 9,6 °C 22,2 °C 29,0 km/h (5 Bft)
14.05.2024 16:28 22,6 °C 24,9 °C 52 % 39 % 1009,8 hPa 0,0 l/m² 24,6 km/h (4 Bft) O 85 ° 1 min 638 W/m² 10,0 °C 22,1 °C 30,6 km/h (5 Bft)
14.05.2024 16:29 22,6 °C 25,0 °C 52 % 38 % 1009,7 hPa 0,0 l/m² 24,0 km/h (4 Bft) O 92 ° 1 min 636 W/m² 9,7 °C 22,3 °C 30,6 km/h (5 Bft)
14.05.2024 16:31 22,6 °C 25,1 °C 52 % 39 % 1009,8 hPa 0,0 l/m² 24,1 km/h (4 Bft) O 86 ° 2 min 631 W/m² 10,2 °C 22,4 °C 32,2 km/h (5 Bft)
14.05.2024 16:33 22,6 °C 25,1 °C 52 % 38 % 1009,7 hPa 0,0 l/m² 19,5 km/h (3 Bft) O-NO 70 ° 2 min 628 W/m² 9,8 °C 22,9 °C 30,6 km/h (5 Bft)
14.05.2024 16:34 22,6 °C 25,1 °C 52 % 37 % 1009,8 hPa 0,0 l/m² 16,6 km/h (3 Bft) O-NO 74 ° 1 min 628 W/m² 9,4 °C 23,2 °C 20,9 km/h (4 Bft)
14.05.2024 16:35 22,6 °C 25,1 °C 52 % 39 % 1009,7 hPa 0,0 l/m² 20,9 km/h (4 Bft) O 81 ° 1 min 622 W/m² 10,2 °C 22,7 °C 25,7 km/h (4 Bft)
14.05.2024 16:36 22,6 °C 25,2 °C 52 % 37 % 1009,6 hPa 0,0 l/m² 15,2 km/h (3 Bft) O 93 ° 1 min 619 W/m² 9,5 °C 23,5 °C 24,1 km/h (4 Bft)
14.05.2024 16:37 22,6 °C 25,2 °C 52 % 39 % 1009,7 hPa 0,0 l/m² 16,3 km/h (3 Bft) SO 134 ° 1 min 619 W/m² 10,2 °C 23,4 °C 22,5 km/h (4 Bft)
14.05.2024 16:38 22,6 °C 25,2 °C 52 % 40 % 1009,6 hPa 0,0 l/m² 14,2 km/h (3 Bft) O-SO 111 ° 1 min 612 W/m² 10,6 °C 23,7 °C 20,9 km/h (4 Bft)
14.05.2024 16:39 22,6 °C 25,1 °C 52 % 41 % 1009,6 hPa 0,0 l/m² 12,1 km/h (2 Bft) O-NO 69 ° 1 min 612 W/m² 10,9 °C 23,9 °C 19,3 km/h (3 Bft)
14.05.2024 16:41 22,6 °C 25,1 °C 52 % 39 % 1009,6 hPa 0,0 l/m² 18,7 km/h (3 Bft) O-SO 122 ° 2 min 605 W/m² 10,2 °C 22,9 °C 29,0 km/h (5 Bft)
14.05.2024 16:43 22,6 °C 24,9 °C 52 % 38 % 1009,7 hPa 0,0 l/m² 25,7 km/h (4 Bft) O 82 ° 2 min 605 W/m² 9,6 °C 22,0 °C 32,2 km/h (5 Bft)
14.05.2024 16:44 22,6 °C 24,9 °C 52 % 39 % 1009,7 hPa 0,0 l/m² 21,9 km/h (4 Bft) O-NO 78 ° 1 min 603 W/m² 10,0 °C 22,3 °C 25,7 km/h (4 Bft)
14.05.2024 16:45 22,6 °C 24,9 °C 52 % 41 % 1009,7 hPa 0,0 l/m² 22,2 km/h (4 Bft) O-NO 71 ° 1 min 598 W/m² 10,7 °C 22,3 °C 30,6 km/h (5 Bft)
14.05.2024 16:46 22,6 °C 24,9 °C 52 % 38 % 1009,7 hPa 0,0 l/m² 23,2 km/h (4 Bft) O 86 ° 1 min 596 W/m² 9,6 °C 22,2 °C 29,0 km/h (5 Bft)
14.05.2024 16:47 22,6 °C 24,8 °C 52 % 39 % 1009,7 hPa 0,0 l/m² 17,0 km/h (3 Bft) SO 127 ° 1 min 589 W/m² 9,9 °C 22,8 °C 24,1 km/h (4 Bft)
14.05.2024 16:48 22,6 °C 24,7 °C 52 % 39 % 1009,6 hPa 0,0 l/m² 12,9 km/h (3 Bft) O-SO 104 ° 1 min 587 W/m² 9,8 °C 23,3 °C 19,3 km/h (3 Bft)
14.05.2024 16:49 22,6 °C 24,7 °C 52 % 42 % 1009,6 hPa 0,0 l/m² 13,0 km/h (3 Bft) O-SO 121 ° 1 min 584 W/m² 10,9 °C 23,3 °C 17,7 km/h (3 Bft)
14.05.2024 16:51 22,7 °C 24,7 °C 52 % 39 % 1009,6 hPa 0,0 l/m² 16,9 km/h (3 Bft) O 90 ° 2 min 582 W/m² 9,8 °C 22,7 °C 24,1 km/h (4 Bft)
14.05.2024 16:53 22,6 °C 24,8 °C 52 % 40 % 1009,6 hPa 0,0 l/m² 16,2 km/h (3 Bft) O-NO 69 ° 2 min 566 W/m² 10,3 °C 22,9 °C 24,1 km/h (4 Bft)
14.05.2024 16:54 22,6 °C 24,8 °C 52 % 41 % 1009,6 hPa 0,0 l/m² 18,4 km/h (3 Bft) O 92 ° 1 min 534 W/m² 10,6 °C 22,6 °C 22,5 km/h (4 Bft)
14.05.2024 16:55 22,7 °C 24,8 °C 52 % 41 % 1009,6 hPa 0,0 l/m² 23,6 km/h (4 Bft) O 93 ° 1 min 573 W/m² 10,6 °C 22,0 °C 30,6 km/h (5 Bft)
14.05.2024 16:56 22,6 °C 24,8 °C 52 % 41 % 1009,6 hPa 0,0 l/m² 23,2 km/h (4 Bft) O 94 ° 1 min 566 W/m² 10,6 °C 22,1 °C 30,6 km/h (5 Bft)
14.05.2024 16:57 22,7 °C 24,8 °C 52 % 40 % 1009,6 hPa 0,0 l/m² 19,1 km/h (3 Bft) O-SO 103 ° 1 min 563 W/m² 10,3 °C 22,5 °C 29,0 km/h (5 Bft)
14.05.2024 16:58 22,6 °C 24,7 °C 52 % 41 % 1009,5 hPa 0,0 l/m² 16,0 km/h (3 Bft) O 101 ° 1 min 568 W/m² 10,6 °C 22,8 °C 24,1 km/h (4 Bft)
14.05.2024 16:59 22,6 °C 24,7 °C 52 % 41 % 1009,5 hPa 0,0 l/m² 21,7 km/h (4 Bft) O 90 ° 1 min 564 W/m² 10,6 °C 22,1 °C 27,4 km/h (5 Bft)
14.05.2024 17:01 22,6 °C 24,7 °C 52 % 42 % 1009,5 hPa 0,0 l/m² 17,4 km/h (3 Bft) O 95 ° 2 min 559 W/m² 10,9 °C 22,6 °C 25,7 km/h (4 Bft)
14.05.2024 17:03 22,6 °C 24,8 °C 52 % 41 % 1009,6 hPa 0,0 l/m² 20,8 km/h (4 Bft) O 98 ° 2 min 555 W/m² 10,6 °C 22,3 °C 27,4 km/h (5 Bft)
14.05.2024 17:04 22,7 °C 24,8 °C 52 % 42 % 1009,6 hPa 0,0 l/m² 22,5 km/h (4 Bft) O 98 ° 1 min 548 W/m² 11,0 °C 22,1 °C 30,6 km/h (5 Bft)
14.05.2024 17:05 22,7 °C 24,8 °C 52 % 40 % 1009,5 hPa 0,0 l/m² 19,3 km/h (3 Bft) O 99 ° 1 min 545 W/m² 10,3 °C 22,5 °C 27,4 km/h (5 Bft)
14.05.2024 17:06 22,7 °C 24,8 °C 52 % 39 % 1009,5 hPa 0,0 l/m² 17,4 km/h (3 Bft) O-SO 104 ° 1 min 545 W/m² 9,9 °C 22,7 °C 22,5 km/h (4 Bft)
14.05.2024 17:07 22,7 °C 24,8 °C 52 % 41 % 1009,6 hPa 0,0 l/m² 19,6 km/h (3 Bft) O-SO 103 ° 1 min 543 W/m² 10,6 °C 22,5 °C 25,7 km/h (4 Bft)
14.05.2024 17:08 22,7 °C 24,8 °C 52 % 41 % 1009,5 hPa 0,0 l/m² 24,9 km/h (4 Bft) O-NO 71 ° 1 min 541 W/m² 10,6 °C 21,9 °C 32,2 km/h (5 Bft)
14.05.2024 17:09 22,7 °C 24,8 °C 52 % 39 % 1009,5 hPa 0,0 l/m² 24,9 km/h (4 Bft) O 92 ° 1 min 540 W/m² 9,9 °C 21,9 °C 32,2 km/h (5 Bft)
14.05.2024 17:11 22,7 °C 24,7 °C 52 % 40 % 1009,5 hPa 0,0 l/m² 17,8 km/h (3 Bft) O 96 ° 2 min 529 W/m² 10,2 °C 22,5 °C 25,7 km/h (4 Bft)
14.05.2024 17:12 22,7 °C 24,8 °C 52 % 42 % 1009,5 hPa 0,0 l/m² 21,2 km/h (4 Bft) O 88 ° 1 min 527 W/m² 11,0 °C 22,3 °C 29,0 km/h (5 Bft)
14.05.2024 17:13 22,7 °C 24,7 °C 52 % 40 % 1009,5 hPa 0,0 l/m² 20,4 km/h (4 Bft) O 95 ° 1 min 526 W/m² 10,2 °C 22,2 °C 29,0 km/h (5 Bft)
14.05.2024 17:15 22,6 °C 24,8 °C 52 % 40 % 1009,5 hPa 0,0 l/m² 18,5 km/h (3 Bft) NO 49 ° 2 min 515 W/m² 10,3 °C 22,6 °C 29,0 km/h (5 Bft)
14.05.2024 17:16 22,6 °C 24,8 °C 52 % 42 % 1009,5 hPa 0,0 l/m² 13,8 km/h (3 Bft) O-NO 58 ° 1 min 513 W/m² 11,0 °C 23,3 °C 19,3 km/h (3 Bft)
14.05.2024 17:17 22,6 °C 24,9 °C 52 % 39 % 1009,4 hPa 0,0 l/m² 20,2 km/h (4 Bft) O-NO 64 ° 1 min 512 W/m² 10,0 °C 22,5 °C 29,0 km/h (5 Bft)
14.05.2024 17:18 22,6 °C 25,0 °C 52 % 40 % 1009,4 hPa 0,0 l/m² 21,7 km/h (4 Bft) O-NO 67 ° 1 min 506 W/m² 10,4 °C 22,5 °C 32,2 km/h (5 Bft)
14.05.2024 17:19 22,6 °C 25,1 °C 52 % 39 % 1009,4 hPa 0,0 l/m² 20,2 km/h (4 Bft) O-NO 67 ° 1 min 506 W/m² 10,2 °C 22,8 °C 27,4 km/h (5 Bft)
14.05.2024 17:21 22,6 °C 25,1 °C 52 % 41 % 1009,4 hPa 0,0 l/m² 18,1 km/h (3 Bft) O-NO 62 ° 2 min 504 W/m² 10,9 °C 23,0 °C 22,5 km/h (4 Bft)
14.05.2024 17:23 22,6 °C 25,1 °C 52 % 38 % 1009,5 hPa 0,0 l/m² 20,8 km/h (4 Bft) O 82 ° 2 min 497 W/m² 9,8 °C 22,7 °C 33,8 km/h (5 Bft)
14.05.2024 17:24 22,6 °C 25,1 °C 52 % 37 % 1009,4 hPa 0,0 l/m² 32,0 km/h (5 Bft) O-NO 78 ° 1 min 496 W/m² 9,4 °C 21,8 °C 40,2 km/h (6 Bft)
14.05.2024 17:25 22,6 °C 25,1 °C 52 % 38 % 1009,5 hPa 0,0 l/m² 23,7 km/h (4 Bft) O 86 ° 1 min 492 W/m² 9,8 °C 22,4 °C 32,2 km/h (5 Bft)
14.05.2024 17:26 22,6 °C 25,0 °C 52 % 38 % 1009,4 hPa 0,0 l/m² 20,4 km/h (4 Bft) O-NO 69 ° 1 min 490 W/m² 9,7 °C 22,6 °C 27,4 km/h (5 Bft)
14.05.2024 17:27 22,7 °C 24,9 °C 52 % 38 % 1009,5 hPa 0,0 l/m² 16,7 km/h (3 Bft) O 85 ° 1 min 485 W/m² 9,6 °C 22,9 °C 24,1 km/h (4 Bft)
14.05.2024 17:28 22,7 °C 24,9 °C 52 % 41 % 1009,4 hPa 0,0 l/m² 14,6 km/h (3 Bft) O 101 ° 1 min 485 W/m² 10,7 °C 23,2 °C 19,3 km/h (3 Bft)
14.05.2024 17:29 22,6 °C 24,8 °C 52 % 41 % 1009,4 hPa 0,0 l/m² 12,7 km/h (3 Bft) NO 45 ° 1 min 482 W/m² 10,6 °C 23,4 °C 19,3 km/h (3 Bft)
14.05.2024 17:31 22,7 °C 24,8 °C 52 % 41 % 1009,3 hPa 0,0 l/m² 14,3 km/h (3 Bft) O-SO 102 ° 2 min 475 W/m² 10,6 °C 23,2 °C 24,1 km/h (4 Bft)
14.05.2024 17:33 22,7 °C 24,8 °C 52 % 41 % 1009,3 hPa 0,0 l/m² 21,8 km/h (4 Bft) O 97 ° 2 min 469 W/m² 10,6 °C 22,2 °C 32,2 km/h (5 Bft)
14.05.2024 17:34 22,6 °C 24,7 °C 52 % 41 % 1009,3 hPa 0,0 l/m² 21,7 km/h (4 Bft) O 96 ° 1 min 466 W/m² 10,6 °C 22,1 °C 30,6 km/h (5 Bft)
14.05.2024 17:35 22,7 °C 24,7 °C 52 % 41 % 1009,3 hPa 0,0 l/m² 19,8 km/h (3 Bft) O 96 ° 1 min 464 W/m² 10,6 °C 22,3 °C 32,2 km/h (5 Bft)
14.05.2024 17:36 22,6 °C 24,7 °C 52 % 42 % 1009,4 hPa 0,0 l/m² 16,2 km/h (3 Bft) O 89 ° 1 min 462 W/m² 10,9 °C 22,8 °C 22,5 km/h (4 Bft)
14.05.2024 17:37 22,7 °C 24,6 °C 52 % 42 % 1009,3 hPa 0,0 l/m² 19,1 km/h (3 Bft) O-NO 74 ° 1 min 459 W/m² 10,8 °C 22,3 °C 24,1 km/h (4 Bft)
14.05.2024 17:38 22,6 °C 24,6 °C 52 % 42 % 1009,3 hPa 0,0 l/m² 19,4 km/h (3 Bft) O 99 ° 1 min 455 W/m² 10,8 °C 22,2 °C 27,4 km/h (5 Bft)
14.05.2024 17:39 22,6 °C 24,6 °C 52 % 42 % 1009,3 hPa 0,0 l/m² 21,1 km/h (4 Bft) O 96 ° 1 min 450 W/m² 10,8 °C 22,0 °C 27,4 km/h (5 Bft)
14.05.2024 17:41 22,6 °C 24,5 °C 52 % 41 % 1009,3 hPa 0,0 l/m² 22,8 km/h (4 Bft) O 95 ° 2 min 443 W/m² 10,4 °C 21,7 °C 33,8 km/h (5 Bft)
14.05.2024 17:43 22,6 °C 24,4 °C 52 % 40 % 1009,3 hPa 0,0 l/m² 18,3 km/h (3 Bft) O 92 ° 2 min 436 W/m² 9,9 °C 22,1 °C 25,7 km/h (4 Bft)
14.05.2024 17:44 22,6 °C 24,4 °C 52 % 40 % 1009,3 hPa 0,0 l/m² 15,3 km/h (3 Bft) O-SO 115 ° 1 min 436 W/m² 9,9 °C 22,5 °C 20,9 km/h (4 Bft)
14.05.2024 17:45 22,6 °C 24,4 °C 52 % 43 % 1009,2 hPa 0,0 l/m² 12,6 km/h (3 Bft) NO 55 ° 1 min 427 W/m² 11,0 °C 23,0 °C 22,5 km/h (4 Bft)
14.05.2024 17:46 22,7 °C 24,5 °C 52 % 42 % 1009,3 hPa 0,0 l/m² 18,7 km/h (3 Bft) O-SO 103 ° 1 min 425 W/m² 10,7 °C 22,2 °C 27,4 km/h (5 Bft)
14.05.2024 17:47 22,6 °C 24,6 °C 52 % 41 % 1009,2 hPa 0,0 l/m² 16,4 km/h (3 Bft) N-NO 30 ° 1 min 424 W/m² 10,5 °C 22,6 °C 22,5 km/h (4 Bft)
14.05.2024 17:48 22,7 °C 24,6 °C 52 % 41 % 1009,4 hPa 0,0 l/m² 24,1 km/h (4 Bft) NO 46 ° 1 min 422 W/m² 10,5 °C 21,7 °C 32,2 km/h (5 Bft)
14.05.2024 17:49 22,6 °C 24,6 °C 52 % 39 % 1009,3 hPa 0,0 l/m² 18,5 km/h (3 Bft) O-NO 63 ° 1 min 422 W/m² 9,7 °C 22,3 °C 29,0 km/h (5 Bft)
14.05.2024 17:51 22,6 °C 24,6 °C 52 % 41 % 1009,3 hPa 0,0 l/m² 18,6 km/h (3 Bft) NO 49 ° 2 min 417 W/m² 10,5 °C 22,3 °C 37,0 km/h (5 Bft)
14.05.2024 17:53 22,6 °C 24,7 °C 52 % 39 % 1009,3 hPa 0,0 l/m² 19,8 km/h (3 Bft) O 89 ° 2 min 413 W/m² 9,8 °C 22,3 °C 33,8 km/h (5 Bft)
14.05.2024 17:54 22,6 °C 24,7 °C 52 % 40 % 1009,3 hPa 0,0 l/m² 24,4 km/h (4 Bft) O-SO 107 ° 1 min 410 W/m² 10,2 °C 21,8 °C 32,2 km/h (5 Bft)
14.05.2024 17:55 22,6 °C 24,6 °C 52 % 40 % 1009,3 hPa 0,0 l/m² 28,4 km/h (5 Bft) O-NO 65 ° 1 min 406 W/m² 10,1 °C 21,3 °C 40,2 km/h (6 Bft)
14.05.2024 17:56 22,7 °C 24,5 °C 52 % 40 % 1009,4 hPa 0,0 l/m² 24,5 km/h (4 Bft) O 80 ° 1 min 403 W/m² 10,0 °C 21,5 °C 35,4 km/h (5 Bft)
14.05.2024 17:57 22,7 °C 24,4 °C 52 % 41 % 1009,3 hPa 0,0 l/m² 22,3 km/h (4 Bft) O 101 ° 1 min 399 W/m² 10,3 °C 21,6 °C 29,0 km/h (5 Bft)
14.05.2024 17:58 22,6 °C 24,3 °C 52 % 41 % 1009,3 hPa 0,0 l/m² 19,2 km/h (3 Bft) O-SO 103 ° 1 min 397 W/m² 10,2 °C 21,9 °C 25,7 km/h (4 Bft)
14.05.2024 17:59 22,7 °C 24,3 °C 52 % 42 % 1009,2 hPa 0,0 l/m² 15,5 km/h (3 Bft) O 86 ° 1 min 396 W/m² 10,6 °C 22,4 °C 19,3 km/h (3 Bft)
14.05.2024 18:01 22,7 °C 24,3 °C 52 % 43 % 1009,2 hPa 0,0 l/m² 13,3 km/h (3 Bft) O 94 ° 2 min 388 W/m² 10,9 °C 22,7 °C 24,1 km/h (4 Bft)
14.05.2024 18:03 22,6 °C 24,3 °C 52 % 43 % 1009,2 hPa 0,0 l/m² 16,2 km/h (3 Bft) O-NO 74 ° 2 min 385 W/m² 10,9 °C 22,3 °C 33,8 km/h (5 Bft)
14.05.2024 18:04 22,7 °C 24,4 °C 52 % 40 % 1009,2 hPa 0,0 l/m² 19,8 km/h (3 Bft) O-NO 77 ° 1 min 383 W/m² 9,9 °C 21,9 °C 29,0 km/h (5 Bft)
14.05.2024 18:05 22,7 °C 24,4 °C 53 % 41 % 1009,2 hPa 0,0 l/m² 18,0 km/h (3 Bft) O 81 ° 1 min 380 W/m² 10,3 °C 22,1 °C 24,1 km/h (4 Bft)
14.05.2024 18:06 22,7 °C 24,4 °C 53 % 41 % 1009,2 hPa 0,0 l/m² 20,4 km/h (4 Bft) O 79 ° 1 min 374 W/m² 10,3 °C 21,8 °C 24,1 km/h (4 Bft)
14.05.2024 18:07 22,6 °C 24,4 °C 53 % 41 % 1009,2 hPa 0,0 l/m² 13,4 km/h (3 Bft) O 79 ° 1 min 371 W/m² 10,3 °C 22,8 °C 27,4 km/h (5 Bft)
14.05.2024 18:08 22,6 °C 24,4 °C 53 % 42 % 1009,2 hPa 0,0 l/m² 20,5 km/h (4 Bft) O-NO 74 ° 1 min 369 W/m² 10,6 °C 21,8 °C 33,8 km/h (5 Bft)
14.05.2024 18:09 22,6 °C 24,4 °C 53 % 40 % 1009,2 hPa 0,0 l/m² 25,7 km/h (4 Bft) O 84 ° 1 min 366 W/m² 9,9 °C 21,3 °C 33,8 km/h (5 Bft)
14.05.2024 18:11 22,6 °C 24,4 °C 53 % 39 % 1009,2 hPa 0,0 l/m² 24,3 km/h (4 Bft) O 86 ° 2 min 360 W/m² 9,5 °C 21,4 °C 33,8 km/h (5 Bft)
14.05.2024 18:13 22,6 °C 24,3 °C 53 % 41 % 1009,2 hPa 0,0 l/m² 18,9 km/h (3 Bft) O-SO 103 ° 2 min 355 W/m² 10,2 °C 21,9 °C 25,7 km/h (4 Bft)
14.05.2024 18:14 22,7 °C 24,3 °C 53 % 40 % 1009,2 hPa 0,0 l/m² 27,4 km/h (5 Bft) O-NO 78 ° 1 min 352 W/m² 9,8 °C 21,0 °C 32,2 km/h (5 Bft)
14.05.2024 18:15 22,7 °C 24,2 °C 53 % 40 % 1009,2 hPa 0,0 l/m² 21,6 km/h (4 Bft) O 84 ° 1 min 346 W/m² 9,7 °C 21,4 °C 32,2 km/h (5 Bft)
14.05.2024 18:16 22,6 °C 24,2 °C 53 % 40 % 1009,2 hPa 0,0 l/m² 21,7 km/h (4 Bft) O 88 ° 1 min 345 W/m² 9,7 °C 21,4 °C 33,8 km/h (5 Bft)
14.05.2024 18:17 22,6 °C 24,2 °C 53 % 40 % 1009,1 hPa 0,0 l/m² 20,1 km/h (4 Bft) O-NO 66 ° 1 min 341 W/m² 9,7 °C 21,6 °C 27,4 km/h (5 Bft)
14.05.2024 18:18 22,7 °C 24,1 °C 53 % 41 % 1009,2 hPa 0,0 l/m² 21,6 km/h (4 Bft) O 89 ° 1 min 339 W/m² 10,0 °C 21,3 °C 27,4 km/h (5 Bft)
14.05.2024 18:19 22,6 °C 24,1 °C 53 % 40 % 1009,1 hPa 0,0 l/m² 25,0 km/h (4 Bft) O-NO 57 ° 1 min 334 W/m² 9,6 °C 20,9 °C 30,6 km/h (5 Bft)
14.05.2024 18:21 22,6 °C 24,1 °C 53 % 40 % 1009,0 hPa 0,0 l/m² 16,5 km/h (3 Bft) O 82 ° 2 min 327 W/m² 9,6 °C 22,0 °C 27,4 km/h (5 Bft)
14.05.2024 18:23 22,7 °C 24,2 °C 53 % 41 % 1009,1 hPa 0,0 l/m² 17,5 km/h (3 Bft) O-NO 71 ° 2 min 322 W/m² 10,1 °C 22,0 °C 25,7 km/h (4 Bft)
14.05.2024 18:24 22,6 °C 24,2 °C 53 % 41 % 1009,2 hPa 0,0 l/m² 14,7 km/h (3 Bft) O 82 ° 1 min 318 W/m² 10,1 °C 22,4 °C 22,5 km/h (4 Bft)
14.05.2024 18:25 22,6 °C 24,1 °C 53 % 41 % 1009,1 hPa 0,0 l/m² 14,6 km/h (3 Bft) O-SO 110 ° 1 min 316 W/m² 10,0 °C 22,3 °C 19,3 km/h (3 Bft)
14.05.2024 18:26 22,6 °C 24,2 °C 53 % 42 % 1009,0 hPa 0,0 l/m² 14,8 km/h (3 Bft) O-NO 78 ° 1 min 311 W/m² 10,5 °C 22,4 °C 22,5 km/h (4 Bft)
14.05.2024 18:27 22,6 °C 24,1 °C 53 % 42 % 1009,1 hPa 0,0 l/m² 18,4 km/h (3 Bft) O 86 ° 1 min 306 W/m² 10,4 °C 21,7 °C 22,5 km/h (4 Bft)
14.05.2024 18:28 22,7 °C 24,1 °C 53 % 43 % 1009,1 hPa 0,0 l/m² 20,7 km/h (4 Bft) O 98 ° 1 min 306 W/m² 10,7 °C 21,4 °C 25,7 km/h (4 Bft)
14.05.2024 18:29 22,7 °C 24,0 °C 53 % 42 % 1009,1 hPa 0,0 l/m² 18,0 km/h (3 Bft) O 101 ° 1 min 302 W/m² 10,3 °C 21,6 °C 20,9 km/h (4 Bft)
14.05.2024 18:31 22,6 °C 23,9 °C 53 % 43 % 1009,2 hPa 0,0 l/m² 16,0 km/h (3 Bft) O-SO 105 ° 2 min 297 W/m² 10,5 °C 21,8 °C 29,0 km/h (5 Bft)
14.05.2024 18:33 22,6 °C 23,8 °C 53 % 42 % 1009,1 hPa 0,0 l/m² 18,4 km/h (3 Bft) O-NO 66 ° 2 min 290 W/m² 10,1 °C 21,3 °C 25,7 km/h (4 Bft)
14.05.2024 18:34 22,7 °C 23,8 °C 53 % 42 % 1009,1 hPa 0,0 l/m² 21,3 km/h (4 Bft) O 94 ° 1 min 287 W/m² 10,1 °C 21,0 °C 29,0 km/h (5 Bft)
14.05.2024 18:35 22,7 °C 23,8 °C 53 % 42 % 1009,1 hPa 0,0 l/m² 15,0 km/h (3 Bft) O 95 ° 1 min 283 W/m² 10,1 °C 21,9 °C 19,3 km/h (3 Bft)
14.05.2024 18:36 22,7 °C 23,8 °C 53 % 43 % 1009,2 hPa 0,0 l/m² 14,1 km/h (3 Bft) O 80 ° 1 min 285 W/m² 10,5 °C 22,0 °C 16,1 km/h (3 Bft)
14.05.2024 18:37 22,7 °C 23,7 °C 53 % 44 % 1009,1 hPa 0,0 l/m² 14,2 km/h (3 Bft) O 98 ° 1 min 283 W/m² 10,7 °C 21,9 °C 16,1 km/h (3 Bft)
14.05.2024 18:38 22,7 °C 23,7 °C 53 % 44 % 1009,1 hPa 0,0 l/m² 14,1 km/h (3 Bft) O 92 ° 1 min 278 W/m² 10,7 °C 21,9 °C 19,3 km/h (3 Bft)
14.05.2024 18:39 22,7 °C 23,7 °C 53 % 44 % 1009,1 hPa 0,0 l/m² 15,4 km/h (3 Bft) O 87 ° 1 min 276 W/m² 10,7 °C 21,7 °C 22,5 km/h (4 Bft)
14.05.2024 18:41 22,7 °C 23,7 °C 53 % 42 % 1009,1 hPa 0,0 l/m² 17,3 km/h (3 Bft) O 94 ° 2 min 271 W/m² 10,0 °C 21,4 °C 25,7 km/h (4 Bft)
14.05.2024 18:43 22,7 °C 23,7 °C 53 % 42 % 1009,1 hPa 0,0 l/m² 18,3 km/h (3 Bft) O 88 ° 2 min 211 W/m² 10,0 °C 21,2 °C 27,4 km/h (5 Bft)
14.05.2024 18:45 22,7 °C 23,7 °C 53 % 42 % 1009,1 hPa 0,0 l/m² 20,8 km/h (4 Bft) O 94 ° 2 min 125 W/m² 10,0 °C 20,9 °C 32,2 km/h (5 Bft)
14.05.2024 18:46 22,7 °C 23,7 °C 53 % 41 % 1009,1 hPa 0,0 l/m² 19,1 km/h (3 Bft) O-NO 69 ° 1 min 169 W/m² 9,7 °C 21,1 °C 24,1 km/h (4 Bft)
14.05.2024 18:47 22,7 °C 23,7 °C 53 % 42 % 1009,2 hPa 0,0 l/m² 14,3 km/h (3 Bft) O-NO 73 ° 1 min 213 W/m² 10,0 °C 21,9 °C 20,9 km/h (4 Bft)
14.05.2024 18:48 22,7 °C 23,7 °C 53 % 42 % 1009,2 hPa 0,0 l/m² 16,8 km/h (3 Bft) O 92 ° 1 min 244 W/m² 10,0 °C 21,4 °C 22,5 km/h (4 Bft)
14.05.2024 18:49 22,7 °C 23,7 °C 53 % 43 % 1009,1 hPa 0,0 l/m² 15,8 km/h (3 Bft) O 91 ° 1 min 236 W/m² 10,4 °C 21,6 °C 17,7 km/h (3 Bft)
14.05.2024 18:51 22,7 °C 23,6 °C 53 % 42 % 1009,1 hPa 0,0 l/m² 18,4 km/h (3 Bft) O-NO 71 ° 2 min 192 W/m² 9,9 °C 21,1 °C 30,6 km/h (5 Bft)
14.05.2024 18:53 22,7 °C 23,6 °C 53 % 42 % 1009,1 hPa 0,0 l/m² 20,7 km/h (4 Bft) O 98 ° 2 min 190 W/m² 9,9 °C 20,8 °C 35,4 km/h (5 Bft)
14.05.2024 18:54 22,7 °C 23,6 °C 52 % 42 % 1009,2 hPa 0,0 l/m² 22,2 km/h (4 Bft) NO 34 ° 1 min 193 W/m² 9,9 °C 20,6 °C 32,2 km/h (5 Bft)
14.05.2024 18:55 22,7 °C 23,6 °C 52 % 43 % 1009,2 hPa 0,0 l/m² 19,1 km/h (3 Bft) O-NO 78 ° 1 min 216 W/m² 10,3 °C 21,0 °C 27,4 km/h (5 Bft)
14.05.2024 18:56 22,7 °C 23,6 °C 52 % 43 % 1009,2 hPa 0,0 l/m² 16,0 km/h (3 Bft) O 89 ° 1 min 193 W/m² 10,3 °C 21,4 °C 24,1 km/h (4 Bft)
14.05.2024 18:57 22,7 °C 23,5 °C 52 % 42 % 1009,2 hPa 0,0 l/m² 17,5 km/h (3 Bft) O-NO 73 ° 1 min 102 W/m² 9,8 °C 21,1 °C 24,1 km/h (4 Bft)
14.05.2024 18:58 22,7 °C 23,5 °C 52 % 43 % 1009,1 hPa 0,0 l/m² 16,1 km/h (3 Bft) O-NO 69 ° 1 min 65 W/m² 10,2 °C 21,3 °C 22,5 km/h (4 Bft)
14.05.2024 18:59 22,7 °C 23,5 °C 52 % 43 % 1009,2 hPa 0,0 l/m² 17,3 km/h (3 Bft) O 96 ° 1 min 53 W/m² 10,2 °C 21,1 °C 22,5 km/h (4 Bft)
14.05.2024 19:01 22,7 °C 23,4 °C 51 % 43 % 1009,3 hPa 0,0 l/m² 17,3 km/h (3 Bft) O 82 ° 2 min 84 W/m² 10,1 °C 21,0 °C 27,4 km/h (5 Bft)
14.05.2024 19:03 22,6 °C 23,3 °C 51 % 43 % 1009,2 hPa 0,0 l/m² 17,5 km/h (3 Bft) O-SO 105 ° 2 min 69 W/m² 10,0 °C 20,8 °C 24,1 km/h (4 Bft)
14.05.2024 19:04 22,7 °C 23,3 °C 51 % 43 % 1009,3 hPa 0,0 l/m² 12,6 km/h (3 Bft) O 88 ° 1 min 132 W/m² 10,0 °C 21,7 °C 20,9 km/h (4 Bft)
14.05.2024 19:05 22,6 °C 23,3 °C 51 % 43 % 1009,3 hPa 0,0 l/m² 16,3 km/h (3 Bft) O 90 ° 1 min 169 W/m² 10,0 °C 21,0 °C 24,1 km/h (4 Bft)
14.05.2024 19:06 22,6 °C 23,3 °C 51 % 42 % 1009,2 hPa 0,0 l/m² 20,4 km/h (4 Bft) O-NO 68 ° 1 min 121 W/m² 9,7 °C 20,4 °C 25,7 km/h (4 Bft)
14.05.2024 19:07 22,7 °C 23,3 °C 51 % 42 % 1009,2 hPa 0,0 l/m² 17,6 km/h (3 Bft) O 82 ° 1 min 72 W/m² 9,7 °C 20,8 °C 29,0 km/h (5 Bft)
14.05.2024 19:08 22,6 °C 23,3 °C 51 % 44 % 1009,3 hPa 0,0 l/m² 14,5 km/h (3 Bft) O-NO 64 ° 1 min 91 W/m² 10,4 °C 21,3 °C 27,4 km/h (5 Bft)
14.05.2024 19:09 22,6 °C 23,3 °C 51 % 43 % 1009,3 hPa 0,0 l/m² 14,2 km/h (3 Bft) O-SO 102 ° 1 min 72 W/m² 10,0 °C 21,4 °C 27,4 km/h (5 Bft)
14.05.2024 19:11 22,6 °C 23,3 °C 50 % 43 % 1009,2 hPa 0,0 l/m² 18,2 km/h (3 Bft) O 87 ° 2 min 56 W/m² 10,0 °C 20,7 °C 25,7 km/h (4 Bft)
14.05.2024 19:13 22,6 °C 23,3 °C 50 % 42 % 1009,3 hPa 0,0 l/m² 22,8 km/h (4 Bft) O-NO 61 ° 2 min 72 W/m² 9,7 °C 20,1 °C 35,4 km/h (5 Bft)
14.05.2024 19:14 22,7 °C 23,3 °C 50 % 42 % 1009,3 hPa 0,0 l/m² 24,0 km/h (4 Bft) O 85 ° 1 min 72 W/m² 9,7 °C 20,0 °C 29,0 km/h (5 Bft)
14.05.2024 19:15 22,6 °C 23,3 °C 50 % 42 % 1009,2 hPa 0,0 l/m² 15,2 km/h (3 Bft) O-NO 63 ° 1 min 88 W/m² 9,7 °C 21,2 °C 24,1 km/h (4 Bft)
14.05.2024 19:16 22,6 °C 23,2 °C 50 % 43 % 1009,3 hPa 0,0 l/m² 14,4 km/h (3 Bft) O-SO 103 ° 1 min 79 W/m² 9,9 °C 21,2 °C 19,3 km/h (3 Bft)
14.05.2024 19:17 22,6 °C 23,2 °C 50 % 43 % 1009,3 hPa 0,0 l/m² 17,5 km/h (3 Bft) O-SO 108 ° 1 min 65 W/m² 9,9 °C 20,7 °C 22,5 km/h (4 Bft)
14.05.2024 19:18 22,6 °C 23,2 °C 50 % 43 % 1009,3 hPa 0,0 l/m² 15,9 km/h (3 Bft) O 80 ° 1 min 76 W/m² 9,9 °C 21,0 °C 19,3 km/h (3 Bft)
14.05.2024 19:19 22,6 °C 23,2 °C 50 % 43 % 1009,3 hPa 0,0 l/m² 11,4 km/h (2 Bft) NO 50 ° 1 min 53 W/m² 9,9 °C 21,8 °C 16,1 km/h (3 Bft)
14.05.2024 19:21 22,6 °C 23,1 °C 50 % 43 % 1009,3 hPa 0,0 l/m² 12,3 km/h (2 Bft) O 96 ° 2 min 63 W/m² 9,8 °C 21,5 °C 16,1 km/h (3 Bft)
14.05.2024 19:23 22,6 °C 23,1 °C 50 % 45 % 1009,3 hPa 0,0 l/m² 12,8 km/h (3 Bft) O-NO 78 ° 2 min 95 W/m² 10,5 °C 21,4 °C 19,3 km/h (3 Bft)
14.05.2024 19:24 22,6 °C 23,0 °C 50 % 45 % 1009,2 hPa 0,0 l/m² 12,9 km/h (3 Bft) O-NO 65 ° 1 min 130 W/m² 10,4 °C 21,3 °C 17,7 km/h (3 Bft)
14.05.2024 19:25 22,6 °C 22,9 °C 50 % 46 % 1009,2 hPa 0,0 l/m² 19,5 km/h (3 Bft) O-SO 113 ° 1 min 128 W/m² 10,7 °C 20,0 °C 27,4 km/h (5 Bft)
14.05.2024 19:26 22,6 °C 22,9 °C 50 % 45 % 1009,3 hPa 0,0 l/m² 16,1 km/h (3 Bft) O-NO 77 ° 1 min 100 W/m² 10,3 °C 20,6 °C 19,3 km/h (3 Bft)
14.05.2024 19:27 22,6 °C 22,8 °C 50 % 45 % 1009,3 hPa 0,0 l/m² 19,7 km/h (3 Bft) O 83 ° 1 min 76 W/m² 10,2 °C 19,9 °C 24,1 km/h (4 Bft)
14.05.2024 19:28 22,6 °C 22,8 °C 50 % 44 % 1009,3 hPa 0,0 l/m² 22,3 km/h (4 Bft) O 97 ° 1 min 60 W/m² 9,9 °C 19,5 °C 25,7 km/h (4 Bft)
14.05.2024 19:29 22,6 °C 22,8 °C 50 % 44 % 1009,3 hPa 0,0 l/m² 17,2 km/h (3 Bft) O 79 ° 1 min 53 W/m² 9,9 °C 20,3 °C 20,9 km/h (4 Bft)
14.05.2024 19:31 22,6 °C 22,8 °C 50 % 45 % 1009,2 hPa 0,0 l/m² 13,6 km/h (3 Bft) O-SO 108 ° 0 min 39 W/m² 10,2 °C 20,9 °C 19,3 km/h (3 Bft)
14.05.2024 19:33 22,6 °C 22,8 °C 50 % 45 % 1009,2 hPa 0,0 l/m² 15,4 km/h (3 Bft) O 98 ° 0 min 46 W/m² 10,2 °C 20,6 °C 19,3 km/h (3 Bft)
14.05.2024 19:35 22,6 °C 22,7 °C 50 % 45 % 1009,2 hPa 0,0 l/m² 15,1 km/h (3 Bft) O 86 ° 2 min 79 W/m² 10,1 °C 20,5 °C 19,3 km/h (3 Bft)
14.05.2024 19:36 22,6 °C 22,6 °C 50 % 45 % 1009,3 hPa 0,0 l/m² 14,7 km/h (3 Bft) O 80 ° 1 min 83 W/m² 10,1 °C 20,5 °C 22,5 km/h (4 Bft)
14.05.2024 19:37 22,6 °C 22,6 °C 50 % 45 % 1009,3 hPa 0,0 l/m² 17,0 km/h (3 Bft) O 83 ° 1 min 72 W/m² 10,1 °C 20,0 °C 22,5 km/h (4 Bft)
14.05.2024 19:38 22,6 °C 22,6 °C 50 % 44 % 1009,2 hPa 0,0 l/m² 16,2 km/h (3 Bft) O 90 ° 1 min 62 W/m² 9,7 °C 20,2 °C 19,3 km/h (3 Bft)
14.05.2024 19:39 22,6 °C 22,6 °C 50 % 45 % 1009,2 hPa 0,0 l/m² 16,8 km/h (3 Bft) O 81 ° 1 min 79 W/m² 10,1 °C 20,1 °C 22,5 km/h (4 Bft)
14.05.2024 19:41 22,6 °C 22,5 °C 50 % 45 % 1009,3 hPa 0,0 l/m² 16,3 km/h (3 Bft) O 91 ° 2 min 67 W/m² 10,0 °C 20,0 °C 22,5 km/h (4 Bft)
14.05.2024 19:43 22,6 °C 22,4 °C 50 % 45 % 1009,3 hPa 0,0 l/m² 13,5 km/h (3 Bft) O 82 ° 2 min 54 W/m² 9,9 °C 20,5 °C 19,3 km/h (3 Bft)
14.05.2024 19:44 22,6 °C 22,4 °C 50 % 46 % 1009,4 hPa 0,0 l/m² 13,8 km/h (3 Bft) O-SO 107 ° 0 min 49 W/m² 10,2 °C 20,4 °C 19,3 km/h (3 Bft)
14.05.2024 19:45 22,6 °C 22,4 °C 50 % 45 % 1009,3 hPa 0,0 l/m² 13,1 km/h (3 Bft) O 86 ° 1 min 56 W/m² 9,9 °C 20,5 °C 16,1 km/h (3 Bft)
14.05.2024 19:46 22,6 °C 22,3 °C 50 % 46 % 1009,3 hPa 0,0 l/m² 12,1 km/h (2 Bft) O-NO 78 ° 1 min 54 W/m² 10,1 °C 20,7 °C 17,7 km/h (3 Bft)
14.05.2024 19:47 22,6 °C 22,3 °C 50 % 47 % 1009,3 hPa 0,0 l/m² 11,3 km/h (2 Bft) O 88 ° 0 min 47 W/m² 10,4 °C 20,8 °C 16,1 km/h (3 Bft)
14.05.2024 19:48 22,6 °C 22,2 °C 50 % 47 % 1009,3 hPa 0,0 l/m² 19,2 km/h (3 Bft) O 85 ° 1 min 54 W/m² 10,3 °C 19,2 °C 29,0 km/h (5 Bft)
14.05.2024 19:49 22,6 °C 22,2 °C 50 % 45 % 1009,3 hPa 0,0 l/m² 17,9 km/h (3 Bft) O-SO 103 ° 1 min 63 W/m² 9,7 °C 19,4 °C 25,7 km/h (4 Bft)
14.05.2024 19:51 22,6 °C 22,2 °C 50 % 45 % 1009,2 hPa 0,0 l/m² 14,8 km/h (3 Bft) O 101 ° 2 min 60 W/m² 9,7 °C 20,0 °C 19,3 km/h (3 Bft)
14.05.2024 19:53 22,6 °C 22,1 °C 51 % 46 % 1009,3 hPa 0,0 l/m² 13,3 km/h (3 Bft) O 84 ° 0 min 47 W/m² 9,9 °C 20,1 °C 22,5 km/h (4 Bft)
14.05.2024 19:54 22,6 °C 22,1 °C 51 % 47 % 1009,4 hPa 0,0 l/m² 9,2 km/h (2 Bft) O 82 ° 0 min 39 W/m² 10,3 °C 21,2 °C 14,5 km/h (3 Bft)
14.05.2024 19:55 22,6 °C 22,0 °C 51 % 47 % 1009,3 hPa 0,0 l/m² 13,8 km/h (3 Bft) O 90 ° 0 min 37 W/m² 10,2 °C 19,9 °C 16,1 km/h (3 Bft)
14.05.2024 19:56 22,6 °C 21,9 °C 51 % 47 % 1009,3 hPa 0,0 l/m² 10,9 km/h (2 Bft) O-SO 103 ° 0 min 35 W/m² 10,1 °C 20,5 °C 14,5 km/h (3 Bft)
14.05.2024 19:57 22,6 °C 21,9 °C 51 % 47 % 1009,4 hPa 0,0 l/m² 13,3 km/h (3 Bft) O 80 ° 0 min 32 W/m² 10,1 °C 19,9 °C 17,7 km/h (3 Bft)
14.05.2024 19:58 22,6 °C 21,8 °C 51 % 47 % 1009,3 hPa 0,0 l/m² 12,1 km/h (2 Bft) O 85 ° 0 min 30 W/m² 10,0 °C 20,1 °C 16,1 km/h (3 Bft)
14.05.2024 19:59 22,6 °C 21,8 °C 51 % 47 % 1009,3 hPa 0,0 l/m² 12,6 km/h (3 Bft) O 84 ° 0 min 32 W/m² 10,0 °C 20,0 °C 16,1 km/h (3 Bft)
14.05.2024 20:01 22,6 °C 21,7 °C 51 % 47 % 1009,3 hPa 0,0 l/m² 11,2 km/h (2 Bft) O-NO 76 ° 0 min 30 W/m² 9,9 °C 20,2 °C 16,1 km/h (3 Bft)
14.05.2024 20:03 22,6 °C 21,6 °C 51 % 48 % 1009,4 hPa 0,0 l/m² 10,0 km/h (2 Bft) O 88 ° 0 min 26 W/m² 10,1 °C 20,4 °C 14,5 km/h (3 Bft)
14.05.2024 20:04 22,6 °C 21,6 °C 51 % 48 % 1009,3 hPa 0,0 l/m² 12,6 km/h (3 Bft) O 97 ° 0 min 25 W/m² 10,1 °C 19,7 °C 17,7 km/h (3 Bft)
14.05.2024 20:05 22,6 °C 21,4 °C 51 % 48 % 1009,4 hPa 0,0 l/m² 10,0 km/h (2 Bft) O 88 ° 0 min 25 W/m² 9,9 °C 20,2 °C 16,1 km/h (3 Bft)
14.05.2024 20:06 22,6 °C 21,4 °C 51 % 47 % 1009,3 hPa 0,0 l/m² 13,6 km/h (3 Bft) NO 53 ° 0 min 28 W/m² 9,6 °C 19,3 °C 19,3 km/h (3 Bft)
14.05.2024 20:07 22,6 °C 21,4 °C 51 % 48 % 1009,3 hPa 0,0 l/m² 11,3 km/h (2 Bft) O 86 ° 0 min 28 W/m² 9,9 °C 19,8 °C 14,5 km/h (3 Bft)
14.05.2024 20:08 22,6 °C 21,4 °C 51 % 48 % 1009,3 hPa 0,0 l/m² 11,3 km/h (2 Bft) O-NO 74 ° 0 min 26 W/m² 9,9 °C 19,8 °C 14,5 km/h (3 Bft)
14.05.2024 20:09 22,6 °C 21,3 °C 51 % 49 % 1009,4 hPa 0,0 l/m² 9,0 km/h (2 Bft) O-NO 69 ° 0 min 25 W/m² 10,1 °C 20,4 °C 12,9 km/h (3 Bft)
14.05.2024 20:11 22,6 °C 21,2 °C 51 % 49 % 1009,3 hPa 0,0 l/m² 8,7 km/h (2 Bft) O-NO 76 ° 0 min 23 W/m² 10,1 °C 20,4 °C 14,5 km/h (3 Bft)
14.05.2024 20:13 22,6 °C 21,1 °C 51 % 49 % 1009,3 hPa 0,0 l/m² 7,6 km/h (2 Bft) O 87 ° 0 min 23 W/m² 10,0 °C 20,7 °C 16,1 km/h (3 Bft)
14.05.2024 20:14 22,6 °C 21,0 °C 51 % 50 % 1009,3 hPa 0,0 l/m² 13,1 km/h (3 Bft) O 82 ° 0 min 21 W/m² 10,2 °C 18,9 °C 17,7 km/h (3 Bft)
14.05.2024 20:15 22,6 °C 20,9 °C 51 % 49 % 1009,4 hPa 0,0 l/m² 11,1 km/h (2 Bft) O 86 ° 0 min 21 W/m² 9,8 °C 19,3 °C 14,5 km/h (3 Bft)
14.05.2024 20:16 22,6 °C 21,0 °C 51 % 50 % 1009,4 hPa 0,0 l/m² 11,8 km/h (2 Bft) O 87 ° 0 min 21 W/m² 10,2 °C 19,2 °C 17,7 km/h (3 Bft)
14.05.2024 20:17 22,6 °C 20,9 °C 51 % 50 % 1009,3 hPa 0,0 l/m² 9,9 km/h (2 Bft) O 80 ° 0 min 19 W/m² 10,1 °C 19,7 °C 14,5 km/h (3 Bft)
14.05.2024 20:18 22,6 °C 20,8 °C 51 % 50 % 1009,2 hPa 0,0 l/m² 7,7 km/h (2 Bft) O 82 ° 0 min 19 W/m² 10,0 °C 20,3 °C 12,9 km/h (3 Bft)
14.05.2024 20:19 22,5 °C 20,8 °C 51 % 50 % 1009,3 hPa 0,0 l/m² 6,7 km/h (2 Bft) O 86 ° 0 min 19 W/m² 10,0 °C 20,7 °C 9,7 km/h (2 Bft)
14.05.2024 20:21 22,6 °C 20,7 °C 51 % 50 % 1009,4 hPa 0,0 l/m² 6,6 km/h (2 Bft) O-NO 72 ° 0 min 19 W/m² 9,9 °C 20,6 °C 11,3 km/h (2 Bft)
14.05.2024 20:23 22,6 °C 20,5 °C 51 % 52 % 1009,4 hPa 0,0 l/m² 8,5 km/h (2 Bft) O 81 ° 0 min 18 W/m² 10,3 °C 19,7 °C 11,3 km/h (2 Bft)
14.05.2024 20:24 22,6 °C 20,4 °C 51 % 52 % 1009,4 hPa 0,0 l/m² 6,5 km/h (2 Bft) O 91 ° 0 min 18 W/m² 10,2 °C 20,4 °C 9,7 km/h (2 Bft)
14.05.2024 20:25 22,6 °C 20,4 °C 51 % 52 % 1009,4 hPa 0,0 l/m² 8,0 km/h (2 Bft) O 84 ° 0 min 16 W/m² 10,2 °C 19,8 °C 11,3 km/h (2 Bft)
14.05.2024 20:26 22,5 °C 20,3 °C 51 % 52 % 1009,3 hPa 0,0 l/m² 9,1 km/h (2 Bft) O-SO 104 ° 0 min 16 W/m² 10,1 °C 19,3 °C 14,5 km/h (3 Bft)
14.05.2024 20:27 22,6 °C 20,3 °C 51 % 52 % 1009,3 hPa 0,0 l/m² 7,4 km/h (2 Bft) O-NO 76 ° 0 min 16 W/m² 10,1 °C 19,9 °C 11,3 km/h (2 Bft)
14.05.2024 20:28 22,6 °C 20,2 °C 51 % 52 % 1009,3 hPa 0,0 l/m² 6,7 km/h (2 Bft) O-NO 71 ° 0 min 16 W/m² 10,0 °C 20,1 °C 8,0 km/h (2 Bft)
14.05.2024 20:29 22,6 °C 20,2 °C 52 % 52 % 1009,4 hPa 0,0 l/m² 8,4 km/h (2 Bft) O 85 ° 0 min 16 W/m² 10,0 °C 19,4 °C 11,3 km/h (2 Bft)
14.05.2024 20:31 22,5 °C 20,0 °C 52 % 53 % 1009,3 hPa 0,0 l/m² 8,3 km/h (2 Bft) O-NO 78 ° 0 min 14 W/m² 10,1 °C 19,2 °C 11,3 km/h (2 Bft)
14.05.2024 20:33 22,6 °C 19,9 °C 52 % 53 % 1009,4 hPa 0,0 l/m² 7,2 km/h (2 Bft) O 87 ° 0 min 14 W/m² 10,0 °C 19,6 °C 11,3 km/h (2 Bft)
14.05.2024 20:34 22,6 °C 19,8 °C 52 % 53 % 1009,4 hPa 0,0 l/m² 6,9 km/h (2 Bft) O 86 ° 0 min 14 W/m² 9,9 °C 19,6 °C 11,3 km/h (2 Bft)
14.05.2024 20:35 22,6 °C 19,7 °C 52 % 54 % 1009,3 hPa 0,0 l/m² 6,7 km/h (2 Bft) O 79 ° 0 min 12 W/m² 10,1 °C 19,6 °C 8,0 km/h (2 Bft)
14.05.2024 20:36 22,6 °C 19,7 °C 52 % 54 % 1009,3 hPa 0,0 l/m² 6,0 km/h (2 Bft) O 88 ° 0 min 12 W/m² 10,1 °C 19,7 °C 8,0 km/h (2 Bft)
14.05.2024 20:37 22,6 °C 19,6 °C 52 % 54 % 1009,3 hPa 0,0 l/m² 6,7 km/h (2 Bft) O 83 ° 0 min 12 W/m² 10,0 °C 19,5 °C 11,3 km/h (2 Bft)
14.05.2024 20:38 22,6 °C 19,4 °C 52 % 55 % 1009,3 hPa 0,0 l/m² 7,2 km/h (2 Bft) O-NO 77 ° 0 min 12 W/m² 10,1 °C 19,1 °C 11,3 km/h (2 Bft)
14.05.2024 20:39 22,6 °C 19,3 °C 52 % 56 % 1009,4 hPa 0,0 l/m² 10,8 km/h (2 Bft) O-NO 78 ° 0 min 11 W/m² 10,3 °C 17,6 °C 16,1 km/h (3 Bft)
14.05.2024 20:41 22,6 °C 19,2 °C 52 % 55 % 1009,3 hPa 0,0 l/m² 8,3 km/h (2 Bft) O 88 ° 0 min 11 W/m² 9,9 °C 18,4 °C 12,9 km/h (3 Bft)
14.05.2024 20:42 22,6 °C 19,2 °C 52 % 56 % 1009,4 hPa 0,0 l/m² 7,9 km/h (2 Bft) O 92 ° 0 min 11 W/m² 10,2 °C 18,6 °C 11,3 km/h (2 Bft)
14.05.2024 20:43 22,6 °C 19,1 °C 52 % 57 % 1009,4 hPa 0,0 l/m² 7,1 km/h (2 Bft) O 96 ° 0 min 9 W/m² 10,4 °C 18,8 °C 11,3 km/h (2 Bft)
14.05.2024 20:44 22,6 °C 19,1 °C 52 % 57 % 1009,4 hPa 0,0 l/m² 6,7 km/h (2 Bft) O 87 ° 0 min 9 W/m² 10,4 °C 19,0 °C 8,0 km/h (2 Bft)
14.05.2024 20:45 22,6 °C 18,9 °C 52 % 57 % 1009,4 hPa 0,0 l/m² 6,8 km/h (2 Bft) O 90 ° 0 min 9 W/m² 10,2 °C 18,7 °C 9,7 km/h (2 Bft)
14.05.2024 20:47 22,6 °C 18,8 °C 52 % 57 % 1009,3 hPa 0,0 l/m² 7,1 km/h (2 Bft) O-NO 78 ° 0 min 7 W/m² 10,1 °C 18,5 °C 11,3 km/h (2 Bft)
14.05.2024 20:48 22,6 °C 18,7 °C 52 % 57 % 1009,3 hPa 0,0 l/m² 8,5 km/h (2 Bft) O 82 ° 0 min 7 W/m² 10,0 °C 17,8 °C 11,3 km/h (2 Bft)
14.05.2024 20:49 22,6 °C 18,7 °C 52 % 57 % 1009,4 hPa 0,0 l/m² 8,4 km/h (2 Bft) O 84 ° 0 min 7 W/m² 10,0 °C 17,8 °C 11,3 km/h (2 Bft)
14.05.2024 20:51 22,6 °C 18,6 °C 52 % 58 % 1009,4 hPa 0,0 l/m² 7,0 km/h (2 Bft) O 90 ° 0 min 7 W/m² 10,2 °C 18,3 °C 11,3 km/h (2 Bft)
14.05.2024 20:53 22,6 °C 18,4 °C 52 % 59 % 1009,4 hPa 0,0 l/m² 6,6 km/h (2 Bft) O 91 ° 0 min 5 W/m² 10,2 °C 18,3 °C 9,7 km/h (2 Bft)
14.05.2024 20:54 22,6 °C 18,4 °C 52 % 59 % 1009,5 hPa 0,0 l/m² 5,9 km/h (2 Bft) O 87 ° 0 min 5 W/m² 10,2 °C 18,4 °C 8,0 km/h (2 Bft)
14.05.2024 20:55 22,6 °C 18,3 °C 52 % 59 % 1009,5 hPa 0,0 l/m² 6,2 km/h (2 Bft) O 86 ° 0 min 5 W/m² 10,1 °C 18,3 °C 6,4 km/h (2 Bft)
14.05.2024 20:56 22,6 °C 18,2 °C 52 % 59 % 1009,4 hPa 0,0 l/m² 6,1 km/h (2 Bft) O 82 ° 0 min 5 W/m² 10,1 °C 18,2 °C 8,0 km/h (2 Bft)
14.05.2024 20:57 22,6 °C 18,1 °C 52 % 60 % 1009,5 hPa 0,0 l/m² 6,5 km/h (2 Bft) O 86 ° 0 min 5 W/m² 10,2 °C 18,1 °C 8,0 km/h (2 Bft)
14.05.2024 20:58 22,6 °C 18,1 °C 52 % 60 % 1009,5 hPa 0,0 l/m² 5,8 km/h (2 Bft) O 80 ° 0 min 0 W/m² 10,2 °C 18,1 °C 8,0 km/h (2 Bft)
14.05.2024 20:59 22,6 °C 18,0 °C 52 % 60 % 1009,5 hPa 0,0 l/m² 5,5 km/h (2 Bft) O 91 ° 0 min 0 W/m² 10,1 °C 18,0 °C 6,4 km/h (2 Bft)
14.05.2024 21:00 22,6 °C 17,9 °C 52 % 60 % 1009,4 hPa 0,0 l/m² 5,4 km/h (2 Bft) O 85 ° 0 min 0 W/m² 10,0 °C 17,9 °C 6,4 km/h (2 Bft)
14.05.2024 21:02 22,6 °C 17,8 °C 52 % 61 % 1009,5 hPa 0,0 l/m² 5,2 km/h (1 Bft) O 84 ° 0 min 0 W/m² 10,2 °C 17,8 °C 6,4 km/h (2 Bft)
14.05.2024 21:03 22,6 °C 17,7 °C 52 % 61 % 1009,6 hPa 0,0 l/m² 6,4 km/h (2 Bft) O 80 ° 0 min 0 W/m² 10,1 °C 17,7 °C 8,0 km/h (2 Bft)
14.05.2024 21:04 22,6 °C 17,6 °C 52 % 61 % 1009,5 hPa 0,0 l/m² 6,2 km/h (2 Bft) O 86 ° 0 min 0 W/m² 10,0 °C 17,6 °C 8,0 km/h (2 Bft)
14.05.2024 21:05 22,6 °C 17,6 °C 52 % 61 % 1009,6 hPa 0,0 l/m² 6,2 km/h (2 Bft) O 84 ° 0 min 0 W/m² 10,0 °C 17,6 °C 8,0 km/h (2 Bft)
14.05.2024 21:06 22,6 °C 17,5 °C 52 % 62 % 1009,6 hPa 0,0 l/m² 5,9 km/h (2 Bft) O-NO 71 ° 0 min 0 W/m² 10,1 °C 17,5 °C 8,0 km/h (2 Bft)
14.05.2024 21:07 22,6 °C 17,5 °C 52 % 62 % 1009,7 hPa 0,0 l/m² 6,1 km/h (2 Bft) O-NO 73 ° 0 min 0 W/m² 10,1 °C 17,5 °C 8,0 km/h (2 Bft)
14.05.2024 21:08 22,6 °C 17,4 °C 52 % 62 % 1009,6 hPa 0,0 l/m² 5,4 km/h (2 Bft) O-NO 72 ° 0 min 0 W/m² 10,0 °C 17,4 °C 6,4 km/h (2 Bft)
14.05.2024 21:09 22,6 °C 17,4 °C 52 % 62 % 1009,7 hPa 0,0 l/m² 6,3 km/h (2 Bft) NO 55 ° 0 min 0 W/m² 10,0 °C 17,4 °C 8,0 km/h (2 Bft)
14.05.2024 21:11 22,6 °C 17,3 °C 52 % 61 % 1009,7 hPa 0,0 l/m² 5,1 km/h (1 Bft) O 90 ° 0 min 0 W/m² 9,7 °C 17,3 °C 8,0 km/h (2 Bft)
14.05.2024 21:13 22,6 °C 17,3 °C 52 % 61 % 1009,7 hPa 0,0 l/m² 6,8 km/h (2 Bft) O-NO 78 ° 0 min 0 W/m² 9,7 °C 17,1 °C 8,0 km/h (2 Bft)
14.05.2024 21:14 22,6 °C 17,2 °C 52 % 62 % 1009,7 hPa 0,0 l/m² 5,4 km/h (2 Bft) O-NO 75 ° 0 min 0 W/m² 9,9 °C 17,2 °C 6,4 km/h (2 Bft)
14.05.2024 21:15 22,6 °C 17,2 °C 52 % 62 % 1009,7 hPa 0,0 l/m² 5,9 km/h (2 Bft) O-NO 59 ° 0 min 0 W/m² 9,9 °C 17,2 °C 8,0 km/h (2 Bft)
14.05.2024 21:16 22,6 °C 17,2 °C 52 % 62 % 1009,7 hPa 0,0 l/m² 5,1 km/h (1 Bft) O-NO 64 ° 0 min 0 W/m² 9,9 °C 17,2 °C 6,4 km/h (2 Bft)
14.05.2024 21:17 22,6 °C 17,2 °C 52 % 62 % 1009,7 hPa 0,0 l/m² 5,6 km/h (2 Bft) O-NO 67 ° 0 min 0 W/m² 9,9 °C 17,2 °C 8,0 km/h (2 Bft)
14.05.2024 21:18 22,7 °C 17,1 °C 52 % 62 % 1009,7 hPa 0,0 l/m² 6,6 km/h (2 Bft) O-NO 76 ° 0 min 0 W/m² 9,8 °C 17,0 °C 11,3 km/h (2 Bft)
14.05.2024 21:19 22,6 °C 17,1 °C 52 % 62 % 1009,8 hPa 0,0 l/m² 5,7 km/h (2 Bft) O-NO 69 ° 0 min 0 W/m² 9,8 °C 17,1 °C 6,4 km/h (2 Bft)
14.05.2024 21:21 22,7 °C 17,1 °C 52 % 62 % 1009,7 hPa 0,0 l/m² 5,8 km/h (2 Bft) O-NO 67 ° 0 min 0 W/m² 9,8 °C 17,1 °C 8,0 km/h (2 Bft)
14.05.2024 21:23 22,6 °C 17,0 °C 52 % 62 % 1009,7 hPa 0,0 l/m² 5,6 km/h (2 Bft) O 82 ° 0 min 0 W/m² 9,7 °C 17,0 °C 8,0 km/h (2 Bft)
14.05.2024 21:24 22,7 °C 17,0 °C 52 % 62 % 1009,8 hPa 0,0 l/m² 6,8 km/h (2 Bft) O-NO 75 ° 0 min 0 W/m² 9,7 °C 16,8 °C 8,0 km/h (2 Bft)
14.05.2024 21:25 22,7 °C 16,9 °C 52 % 62 % 1009,8 hPa 0,0 l/m² 5,2 km/h (1 Bft) O-NO 63 ° 0 min 0 W/m² 9,6 °C 16,9 °C 6,4 km/h (2 Bft)
14.05.2024 21:26 22,7 °C 16,9 °C 52 % 62 % 1009,8 hPa 0,0 l/m² 7,3 km/h (2 Bft) NO 54 ° 0 min 0 W/m² 9,6 °C 16,4 °C 12,9 km/h (3 Bft)
14.05.2024 21:27 22,7 °C 16,9 °C 52 % 62 % 1009,8 hPa 0,0 l/m² 5,3 km/h (1 Bft) O-NO 69 ° 0 min 0 W/m² 9,6 °C 16,9 °C 8,0 km/h (2 Bft)
14.05.2024 21:28 22,7 °C 16,9 °C 52 % 62 % 1009,8 hPa 0,0 l/m² 6,5 km/h (2 Bft) O-NO 76 ° 0 min 0 W/m² 9,6 °C 16,9 °C 8,0 km/h (2 Bft)
14.05.2024 21:29 22,7 °C 16,9 °C 52 % 62 % 1009,8 hPa 0,0 l/m² 5,6 km/h (2 Bft) O-NO 61 ° 0 min 0 W/m² 9,6 °C 16,9 °C 8,0 km/h (2 Bft)
14.05.2024 21:31 22,7 °C 16,8 °C 52 % 63 % 1009,8 hPa 0,0 l/m² 6,2 km/h (2 Bft) O-NO 72 ° 0 min 0 W/m² 9,7 °C 16,8 °C 9,7 km/h (2 Bft)
14.05.2024 21:33 22,7 °C 16,8 °C 52 % 63 % 1009,9 hPa 0,0 l/m² 6,4 km/h (2 Bft) O 79 ° 0 min 0 W/m² 9,7 °C 16,8 °C 11,3 km/h (2 Bft)
14.05.2024 21:34 22,7 °C 16,7 °C 52 % 63 % 1009,9 hPa 0,0 l/m² 5,3 km/h (1 Bft) O 81 ° 0 min 0 W/m² 9,6 °C 16,7 °C 6,4 km/h (2 Bft)
14.05.2024 21:35 22,7 °C 16,7 °C 52 % 63 % 1009,9 hPa 0,0 l/m² 7,1 km/h (2 Bft) O 80 ° 0 min 0 W/m² 9,6 °C 16,3 °C 8,0 km/h (2 Bft)
14.05.2024 21:36 22,7 °C 16,7 °C 52 % 63 % 1009,9 hPa 0,0 l/m² 6,0 km/h (2 Bft) O 83 ° 0 min 0 W/m² 9,6 °C 16,7 °C 8,0 km/h (2 Bft)
14.05.2024 21:37 22,7 °C 16,6 °C 52 % 64 % 1009,9 hPa 0,0 l/m² 5,8 km/h (2 Bft) O 79 ° 0 min 0 W/m² 9,8 °C 16,6 °C 6,4 km/h (2 Bft)
14.05.2024 21:38 22,7 °C 16,6 °C 52 % 64 % 1010,0 hPa 0,0 l/m² 6,7 km/h (2 Bft) O-NO 76 ° 0 min 0 W/m² 9,8 °C 16,5 °C 9,7 km/h (2 Bft)
14.05.2024 21:39 22,7 °C 16,5 °C 52 % 64 % 1009,9 hPa 0,0 l/m² 6,7 km/h (2 Bft) O 86 ° 0 min 0 W/m² 9,7 °C 16,4 °C 8,0 km/h (2 Bft)
14.05.2024 21:41 22,7 °C 16,4 °C 52 % 64 % 1010,0 hPa 0,0 l/m² 5,9 km/h (2 Bft) O-NO 71 ° 0 min 0 W/m² 9,6 °C 16,4 °C 8,0 km/h (2 Bft)
14.05.2024 21:43 22,7 °C 16,3 °C 52 % 65 % 1010,0 hPa 0,0 l/m² 6,2 km/h (2 Bft) O 81 ° 0 min 0 W/m² 9,7 °C 16,3 °C 8,0 km/h (2 Bft)
14.05.2024 21:44 22,7 °C 16,3 °C 52 % 65 % 1010,0 hPa 0,0 l/m² 6,4 km/h (2 Bft) O-NO 77 ° 0 min 0 W/m² 9,7 °C 16,3 °C 11,3 km/h (2 Bft)
14.05.2024 21:46 22,7 °C 16,2 °C 52 % 65 % 1010,0 hPa 0,0 l/m² 5,5 km/h (2 Bft) O 79 ° 0 min 0 W/m² 9,6 °C 16,2 °C 8,0 km/h (2 Bft)
14.05.2024 21:47 22,7 °C 16,2 °C 52 % 65 % 1010,0 hPa 0,0 l/m² 4,7 km/h (1 Bft) O 79 ° 0 min 0 W/m² 9,6 °C 16,2 °C 6,4 km/h (2 Bft)
14.05.2024 21:48 22,7 °C 16,1 °C 52 % 65 % 1010,0 hPa 0,0 l/m² 4,9 km/h (1 Bft) O-NO 76 ° 0 min 0 W/m² 9,5 °C 16,1 °C 6,4 km/h (2 Bft)
14.05.2024 21:49 22,7 °C 16,0 °C 52 % 66 % 1010,0 hPa 0,0 l/m² 5,8 km/h (2 Bft) O-NO 76 ° 0 min 0 W/m² 9,7 °C 16,0 °C 8,0 km/h (2 Bft)
14.05.2024 21:51 22,7 °C 15,9 °C 52 % 66 % 1010,0 hPa 0,0 l/m² 4,5 km/h (1 Bft) O 80 ° 0 min 0 W/m² 9,6 °C 15,9 °C 6,4 km/h (2 Bft)
14.05.2024 21:53 22,7 °C 15,8 °C 53 % 66 % 1010,1 hPa 0,0 l/m² 5,7 km/h (2 Bft) O 81 ° 0 min 0 W/m² 9,5 °C 15,8 °C 8,0 km/h (2 Bft)
14.05.2024 21:54 22,7 °C 15,7 °C 53 % 66 % 1010,0 hPa 0,0 l/m² 8,3 km/h (2 Bft) O-NO 73 ° 0 min 0 W/m² 9,4 °C 14,7 °C 11,3 km/h (2 Bft)
14.05.2024 21:55 22,7 °C 15,7 °C 53 % 66 % 1010,0 hPa 0,0 l/m² 6,1 km/h (2 Bft) O-NO 74 ° 0 min 0 W/m² 9,4 °C 15,7 °C 6,4 km/h (2 Bft)
14.05.2024 21:56 22,7 °C 15,7 °C 53 % 66 % 1009,9 hPa 0,0 l/m² 6,3 km/h (2 Bft) O 84 ° 0 min 0 W/m² 9,4 °C 15,7 °C 11,3 km/h (2 Bft)
14.05.2024 21:57 22,7 °C 15,6 °C 53 % 67 % 1010,0 hPa 0,0 l/m² 6,9 km/h (2 Bft) O-NO 73 ° 0 min 0 W/m² 9,5 °C 15,3 °C 11,3 km/h (2 Bft)
14.05.2024 21:58 22,7 °C 15,6 °C 53 % 67 % 1010,0 hPa 0,0 l/m² 8,1 km/h (2 Bft) O-NO 76 ° 0 min 0 W/m² 9,5 °C 14,7 °C 11,3 km/h (2 Bft)
14.05.2024 21:59 22,7 °C 15,6 °C 53 % 67 % 1010,0 hPa 0,0 l/m² 5,6 km/h (2 Bft) O-NO 69 ° 0 min 0 W/m² 9,5 °C 15,6 °C 8,0 km/h (2 Bft)
14.05.2024 22:01 22,7 °C 15,5 °C 53 % 67 % 1010,1 hPa 0,0 l/m² 6,4 km/h (2 Bft) O-NO 78 ° 0 min 0 W/m² 9,4 °C 15,5 °C 8,0 km/h (2 Bft)
14.05.2024 22:03 22,7 °C 15,4 °C 53 % 67 % 1009,9 hPa 0,0 l/m² 6,1 km/h (2 Bft) O-NO 71 ° 0 min 0 W/m² 9,3 °C 15,4 °C 12,9 km/h (3 Bft)
14.05.2024 22:04 22,7 °C 15,4 °C 53 % 67 % 1010,1 hPa 0,0 l/m² 7,1 km/h (2 Bft) O-NO 63 ° 0 min 0 W/m² 9,3 °C 15,0 °C 11,3 km/h (2 Bft)
14.05.2024 22:05 22,7 °C 15,4 °C 53 % 67 % 1010,0 hPa 0,0 l/m² 6,4 km/h (2 Bft) O-NO 62 ° 0 min 0 W/m² 9,3 °C 15,4 °C 8,0 km/h (2 Bft)
14.05.2024 22:06 22,7 °C 15,4 °C 53 % 67 % 1010,1 hPa 0,0 l/m² 7,4 km/h (2 Bft) O-NO 71 ° 0 min 0 W/m² 9,3 °C 14,8 °C 9,7 km/h (2 Bft)
14.05.2024 22:07 22,7 °C 15,3 °C 53 % 67 % 1010,1 hPa 0,0 l/m² 6,8 km/h (2 Bft) O-NO 65 ° 0 min 0 W/m² 9,2 °C 15,1 °C 11,3 km/h (2 Bft)
14.05.2024 22:08 22,7 °C 15,3 °C 53 % 67 % 1010,1 hPa 0,0 l/m² 5,3 km/h (1 Bft) O-NO 59 ° 0 min 0 W/m² 9,2 °C 15,3 °C 6,4 km/h (2 Bft)
14.05.2024 22:09 22,7 °C 15,3 °C 53 % 67 % 1010,0 hPa 0,0 l/m² 6,3 km/h (2 Bft) O-NO 67 ° 0 min 0 W/m² 9,2 °C 15,3 °C 8,0 km/h (2 Bft)
14.05.2024 22:11 22,7 °C 15,4 °C 53 % 67 % 1010,0 hPa 0,0 l/m² 6,3 km/h (2 Bft) O 80 ° 0 min 0 W/m² 9,3 °C 15,4 °C 8,0 km/h (2 Bft)
14.05.2024 22:13 22,7 °C 15,3 °C 53 % 67 % 1010,0 hPa 0,0 l/m² 6,3 km/h (2 Bft) O-NO 71 ° 0 min 0 W/m² 9,2 °C 15,3 °C 8,0 km/h (2 Bft)
14.05.2024 22:14 22,7 °C 15,3 °C 53 % 66 % 1010,0 hPa 0,0 l/m² 5,2 km/h (1 Bft) O 80 ° 0 min 0 W/m² 9,0 °C 15,3 °C 8,0 km/h (2 Bft)
14.05.2024 22:15 22,7 °C 15,4 °C 53 % 66 % 1010,0 hPa 0,0 l/m² 5,6 km/h (2 Bft) O-NO 69 ° 0 min 0 W/m² 9,1 °C 15,4 °C 9,7 km/h (2 Bft)
14.05.2024 22:16 22,7 °C 15,4 °C 53 % 66 % 1010,0 hPa 0,0 l/m² 5,9 km/h (2 Bft) O 84 ° 0 min 0 W/m² 9,1 °C 15,4 °C 11,3 km/h (2 Bft)
14.05.2024 22:17 22,7 °C 15,4 °C 53 % 66 % 1010,1 hPa 0,0 l/m² 6,7 km/h (2 Bft) O 80 ° 0 min 0 W/m² 9,1 °C 15,2 °C 8,0 km/h (2 Bft)
14.05.2024 22:18 22,7 °C 15,4 °C 53 % 66 % 1010,0 hPa 0,0 l/m² 5,1 km/h (1 Bft) NO 54 ° 0 min 0 W/m² 9,1 °C 15,4 °C 8,0 km/h (2 Bft)
14.05.2024 22:19 22,7 °C 15,4 °C 53 % 66 % 1010,1 hPa 0,0 l/m² 3,6 km/h (1 Bft) O-NO 65 ° 0 min 0 W/m² 9,1 °C 15,4 °C 6,4 km/h (2 Bft)
14.05.2024 22:21 22,7 °C 15,3 °C 53 % 66 % 1010,2 hPa 0,0 l/m² 5,3 km/h (1 Bft) O-NO 71 ° 0 min 0 W/m² 9,0 °C 15,3 °C 11,3 km/h (2 Bft)
14.05.2024 22:23 22,7 °C 15,3 °C 53 % 66 % 1010,1 hPa 0,0 l/m² 6,6 km/h (2 Bft) O-NO 74 ° 0 min 0 W/m² 9,0 °C 15,2 °C 8,0 km/h (2 Bft)
14.05.2024 22:24 22,7 °C 15,3 °C 53 % 66 % 1010,1 hPa 0,0 l/m² 5,7 km/h (2 Bft) O-NO 69 ° 0 min 0 W/m² 9,0 °C 15,3 °C 9,7 km/h (2 Bft)
14.05.2024 22:25 22,7 °C 15,3 °C 53 % 66 % 1010,1 hPa 0,0 l/m² 5,7 km/h (2 Bft) O-NO 68 ° 0 min 0 W/m² 9,0 °C 15,3 °C 6,4 km/h (2 Bft)
14.05.2024 22:26 22,6 °C 15,2 °C 53 % 66 % 1010,2 hPa 0,0 l/m² 7,0 km/h (2 Bft) O-NO 61 ° 0 min 0 W/m² 8,9 °C 14,9 °C 9,7 km/h (2 Bft)
14.05.2024 22:27 22,6 °C 15,2 °C 53 % 66 % 1010,1 hPa 0,0 l/m² 6,3 km/h (2 Bft) O-NO 63 ° 0 min 0 W/m² 8,9 °C 15,2 °C 8,0 km/h (2 Bft)
14.05.2024 22:28 22,7 °C 15,2 °C 53 % 66 % 1010,1 hPa 0,0 l/m² 6,8 km/h (2 Bft) O-NO 74 ° 0 min 0 W/m² 8,9 °C 15,0 °C 9,7 km/h (2 Bft)
14.05.2024 22:29 22,6 °C 15,2 °C 53 % 66 % 1010,1 hPa 0,0 l/m² 4,9 km/h (1 Bft) O-NO 71 ° 0 min 0 W/m² 8,9 °C 15,2 °C 6,4 km/h (2 Bft)
14.05.2024 22:31 22,6 °C 15,3 °C 53 % 66 % 1010,1 hPa 0,0 l/m² 6,5 km/h (2 Bft) O-NO 64 ° 0 min 0 W/m² 9,0 °C 15,3 °C 12,9 km/h (3 Bft)
14.05.2024 22:33 22,7 °C 15,3 °C 53 % 65 % 1010,0 hPa 0,0 l/m² 5,9 km/h (2 Bft) O-NO 67 ° 0 min 0 W/m² 8,8 °C 15,3 °C 9,7 km/h (2 Bft)
14.05.2024 22:34 22,6 °C 15,3 °C 53 % 65 % 1010,1 hPa 0,0 l/m² 7,5 km/h (2 Bft) O-NO 70 ° 0 min 0 W/m² 8,8 °C 14,7 °C 9,7 km/h (2 Bft)
14.05.2024 22:35 22,6 °C 15,3 °C 53 % 65 % 1010,1 hPa 0,0 l/m² 7,0 km/h (2 Bft) O-NO 73 ° 0 min 0 W/m² 8,8 °C 15,0 °C 11,3 km/h (2 Bft)
14.05.2024 22:36 22,6 °C 15,3 °C 53 % 65 % 1010,1 hPa 0,0 l/m² 7,6 km/h (2 Bft) NO 46 ° 0 min 0 W/m² 8,8 °C 14,6 °C 11,3 km/h (2 Bft)
14.05.2024 22:37 22,6 °C 15,3 °C 53 % 65 % 1010,2 hPa 0,0 l/m² 6,1 km/h (2 Bft) O-NO 64 ° 0 min 0 W/m² 8,8 °C 15,3 °C 9,7 km/h (2 Bft)
14.05.2024 22:38 22,7 °C 15,4 °C 53 % 65 % 1010,2 hPa 0,0 l/m² 4,6 km/h (1 Bft) O-NO 64 ° 0 min 0 W/m² 8,9 °C 15,4 °C 8,0 km/h (2 Bft)
14.05.2024 22:39 22,6 °C 15,4 °C 53 % 65 % 1010,1 hPa 0,0 l/m² 6,8 km/h (2 Bft) O-NO 78 ° 0 min 0 W/m² 8,9 °C 15,2 °C 9,7 km/h (2 Bft)
14.05.2024 22:41 22,6 °C 15,4 °C 53 % 65 % 1010,1 hPa 0,0 l/m² 5,8 km/h (2 Bft) O-NO 76 ° 0 min 0 W/m² 8,9 °C 15,4 °C 9,7 km/h (2 Bft)
14.05.2024 22:43 22,6 °C 15,3 °C 53 % 65 % 1010,2 hPa 0,0 l/m² 5,9 km/h (2 Bft) O-NO 61 ° 0 min 0 W/m² 8,8 °C 15,3 °C 11,3 km/h (2 Bft)
14.05.2024 22:44 22,6 °C 15,3 °C 53 % 65 % 1010,2 hPa 0,0 l/m² 5,6 km/h (2 Bft) O-NO 76 ° 0 min 0 W/m² 8,8 °C 15,3 °C 8,0 km/h (2 Bft)
14.05.2024 22:45 22,6 °C 15,2 °C 53 % 66 % 1010,2 hPa 0,0 l/m² 6,2 km/h (2 Bft) O-NO 61 ° 0 min 0 W/m² 8,9 °C 15,2 °C 8,0 km/h (2 Bft)
14.05.2024 22:46 22,6 °C 15,2 °C 53 % 66 % 1010,2 hPa 0,0 l/m² 7,2 km/h (2 Bft) O-NO 74 ° 0 min 0 W/m² 8,9 °C 14,8 °C 12,9 km/h (3 Bft)
14.05.2024 22:47 22,6 °C 15,1 °C 53 % 66 % 1010,2 hPa 0,0 l/m² 5,6 km/h (2 Bft) O-NO 69 ° 0 min 0 W/m² 8,8 °C 15,1 °C 6,4 km/h (2 Bft)
14.05.2024 22:48 22,6 °C 15,0 °C 53 % 67 % 1010,2 hPa 0,0 l/m² 5,7 km/h (2 Bft) O-NO 60 ° 0 min 0 W/m² 8,9 °C 15,0 °C 8,0 km/h (2 Bft)
14.05.2024 22:49 22,6 °C 14,9 °C 53 % 67 % 1010,2 hPa 0,0 l/m² 6,9 km/h (2 Bft) O-NO 74 ° 0 min 0 W/m² 8,8 °C 14,6 °C 12,9 km/h (3 Bft)
14.05.2024 22:51 22,6 °C 14,8 °C 53 % 67 % 1010,1 hPa 0,0 l/m² 6,2 km/h (2 Bft) O-NO 63 ° 0 min 0 W/m² 8,7 °C 14,8 °C 9,7 km/h (2 Bft)
14.05.2024 22:53 22,6 °C 14,6 °C 53 % 68 % 1010,3 hPa 0,0 l/m² 6,4 km/h (2 Bft) O-NO 69 ° 0 min 0 W/m² 8,8 °C 14,6 °C 8,0 km/h (2 Bft)
14.05.2024 22:54 22,6 °C 14,6 °C 53 % 68 % 1010,2 hPa 0,0 l/m² 7,9 km/h (2 Bft) O-NO 67 ° 0 min 0 W/m² 8,8 °C 13,7 °C 11,3 km/h (2 Bft)
14.05.2024 22:55 22,6 °C 14,5 °C 53 % 68 % 1010,2 hPa 0,0 l/m² 4,4 km/h (1 Bft) NO 42 ° 0 min 0 W/m² 8,7 °C 14,5 °C 6,4 km/h (2 Bft)
14.05.2024 22:56 22,6 °C 14,5 °C 53 % 68 % 1010,3 hPa 0,0 l/m² 6,7 km/h (2 Bft) O-NO 73 ° 0 min 0 W/m² 8,7 °C 14,3 °C 9,7 km/h (2 Bft)
14.05.2024 22:57 22,6 °C 14,4 °C 53 % 68 % 1010,1 hPa 0,0 l/m² 5,9 km/h (2 Bft) O-NO 60 ° 0 min 0 W/m² 8,6 °C 14,4 °C 8,0 km/h (2 Bft)
14.05.2024 22:58 22,6 °C 14,4 °C 53 % 68 % 1010,3 hPa 0,0 l/m² 5,0 km/h (1 Bft) O-NO 76 ° 0 min 0 W/m² 8,6 °C 14,4 °C 8,0 km/h (2 Bft)
14.05.2024 22:59 22,6 °C 14,4 °C 53 % 68 % 1010,2 hPa 0,0 l/m² 7,5 km/h (2 Bft) O-NO 65 ° 0 min 0 W/m² 8,6 °C 13,8 °C 11,3 km/h (2 Bft)
14.05.2024 23:00 22,6 °C 14,4 °C 53 % 68 % 1010,2 hPa 0,0 l/m² 6,5 km/h (2 Bft) O-NO 76 ° 0 min 0 W/m² 8,6 °C 14,4 °C 11,3 km/h (2 Bft)
14.05.2024 23:02 22,6 °C 14,4 °C 53 % 68 % 1010,2 hPa 0,0 l/m² 7,1 km/h (2 Bft) O 88 ° 0 min 0 W/m² 8,6 °C 14,0 °C 11,3 km/h (2 Bft)
14.05.2024 23:03 22,6 °C 14,4 °C 53 % 68 % 1010,2 hPa 0,0 l/m² 7,2 km/h (2 Bft) O-NO 78 ° 0 min 0 W/m² 8,6 °C 13,9 °C 11,3 km/h (2 Bft)
14.05.2024 23:04 22,5 °C 14,4 °C 53 % 68 % 1010,2 hPa 0,0 l/m² 7,2 km/h (2 Bft) O-NO 76 ° 0 min 0 W/m² 8,6 °C 13,9 °C 8,0 km/h (2 Bft)
14.05.2024 23:05 22,5 °C 14,3 °C 53 % 68 % 1010,3 hPa 0,0 l/m² 6,6 km/h (2 Bft) O-NO 70 ° 0 min 0 W/m² 8,5 °C 14,2 °C 9,7 km/h (2 Bft)
14.05.2024 23:07 22,6 °C 14,3 °C 53 % 69 % 1010,3 hPa 0,0 l/m² 7,1 km/h (2 Bft) O-NO 62 ° 0 min 0 W/m² 8,7 °C 13,9 °C 11,3 km/h (2 Bft)
14.05.2024 23:08 22,6 °C 14,2 °C 53 % 69 % 1010,3 hPa 0,0 l/m² 6,3 km/h (2 Bft) O-NO 67 ° 0 min 0 W/m² 8,6 °C 14,2 °C 8,0 km/h (2 Bft)
14.05.2024 23:09 22,5 °C 14,1 °C 53 % 70 % 1010,3 hPa 0,0 l/m² 6,1 km/h (2 Bft) O-NO 71 ° 0 min 0 W/m² 8,7 °C 14,1 °C 8,0 km/h (2 Bft)
14.05.2024 23:10 22,5 °C 14,0 °C 53 % 70 % 1010,3 hPa 0,0 l/m² 5,8 km/h (2 Bft) O-NO 73 ° 0 min 0 W/m² 8,6 °C 14,0 °C 8,0 km/h (2 Bft)
14.05.2024 23:12 22,5 °C 13,8 °C 53 % 70 % 1010,3 hPa 0,0 l/m² 6,3 km/h (2 Bft) O-NO 75 ° 0 min 0 W/m² 8,4 °C 13,8 °C 11,3 km/h (2 Bft)
14.05.2024 23:13 22,6 °C 13,8 °C 53 % 70 % 1010,3 hPa 0,0 l/m² 5,3 km/h (1 Bft) O-NO 67 ° 0 min 0 W/m² 8,4 °C 13,8 °C 6,4 km/h (2 Bft)
14.05.2024 23:14 22,5 °C 13,8 °C 53 % 70 % 1010,3 hPa 0,0 l/m² 5,8 km/h (2 Bft) O-NO 76 ° 0 min 0 W/m² 8,4 °C 13,8 °C 8,0 km/h (2 Bft)
14.05.2024 23:15 22,5 °C 13,7 °C 53 % 71 % 1010,3 hPa 0,0 l/m² 6,9 km/h (2 Bft) O 80 ° 0 min 0 W/m² 8,5 °C 13,4 °C 9,7 km/h (2 Bft)
14.05.2024 23:16 22,5 °C 13,8 °C 53 % 71 % 1010,3 hPa 0,0 l/m² 4,8 km/h (1 Bft) O-NO 67 ° 0 min 0 W/m² 8,6 °C 13,8 °C 11,3 km/h (2 Bft)
14.05.2024 23:17 22,5 °C 13,7 °C 53 % 71 % 1010,3 hPa 0,0 l/m² 4,8 km/h (1 Bft) O-NO 67 ° 0 min 0 W/m² 8,5 °C 13,7 °C 9,7 km/h (2 Bft)
14.05.2024 23:23 22,4 °C 13,6 °C 53 % 71 % 1010,3 hPa 0,0 l/m² 5,9 km/h (2 Bft) O 81 ° 0 min 0 W/m² 8,4 °C 13,6 °C 8,0 km/h (2 Bft)
14.05.2024 23:25 22,4 °C 13,6 °C 53 % 71 % 1010,3 hPa 0,0 l/m² 6,1 km/h (2 Bft) O-NO 60 ° 0 min 0 W/m² 8,4 °C 13,6 °C 11,3 km/h (2 Bft)
14.05.2024 23:27 22,4 °C 13,5 °C 53 % 71 % 1010,3 hPa 0,0 l/m² 6,6 km/h (2 Bft) O-NO 71 ° 0 min 0 W/m² 8,3 °C 13,4 °C 11,3 km/h (2 Bft)
14.05.2024 23:29 22,4 °C 13,4 °C 53 % 71 % 1010,4 hPa 0,0 l/m² 6,1 km/h (2 Bft) O 83 ° 0 min 0 W/m² 8,3 °C 13,4 °C 11,3 km/h (2 Bft)
14.05.2024 23:30 22,4 °C 13,4 °C 53 % 71 % 1010,3 hPa 0,0 l/m² 6,9 km/h (2 Bft) O-NO 74 ° 0 min 0 W/m² 8,3 °C 13,1 °C 11,3 km/h (2 Bft)
14.05.2024 23:31 22,4 °C 13,4 °C 53 % 71 % 1010,3 hPa 0,0 l/m² 6,6 km/h (2 Bft) O-NO 67 ° 0 min 0 W/m² 8,3 °C 13,3 °C 8,0 km/h (2 Bft)
14.05.2024 23:32 22,4 °C 13,4 °C 53 % 71 % 1010,3 hPa 0,0 l/m² 6,3 km/h (2 Bft) O-NO 68 ° 0 min 0 W/m² 8,3 °C 13,4 °C 9,7 km/h (2 Bft)
14.05.2024 23:34 22,4 °C 13,3 °C 53 % 72 % 1010,3 hPa 0,0 l/m² 5,7 km/h (2 Bft) O-NO 73 ° 0 min 0 W/m² 8,4 °C 13,3 °C 8,0 km/h (2 Bft)
14.05.2024 23:36 22,4 °C 13,3 °C 53 % 72 % 1010,3 hPa 0,0 l/m² 5,9 km/h (2 Bft) O-NO 74 ° 0 min 0 W/m² 8,4 °C 13,3 °C 9,7 km/h (2 Bft)
14.05.2024 23:38 22,4 °C 13,3 °C 53 % 72 % 1010,3 hPa 0,0 l/m² 6,1 km/h (2 Bft) O-NO 71 ° 0 min 0 W/m² 8,4 °C 13,3 °C 11,3 km/h (2 Bft)
14.05.2024 23:40 22,4 °C 13,2 °C 53 % 72 % 1010,3 hPa 0,0 l/m² 6,1 km/h (2 Bft) O-NO 74 ° 0 min 0 W/m² 8,3 °C 13,2 °C 11,3 km/h (2 Bft)
14.05.2024 23:41 22,4 °C 13,2 °C 53 % 72 % 1010,3 hPa 0,0 l/m² 5,9 km/h (2 Bft) O 80 ° 0 min 0 W/m² 8,3 °C 13,2 °C 8,0 km/h (2 Bft)
14.05.2024 23:42 22,4 °C 13,2 °C 53 % 72 % 1010,3 hPa 0,0 l/m² 6,0 km/h (2 Bft) O-NO 69 ° 0 min 0 W/m² 8,3 °C 13,2 °C 8,0 km/h (2 Bft)
14.05.2024 23:43 22,4 °C 13,2 °C 53 % 72 % 1010,3 hPa 0,0 l/m² 5,9 km/h (2 Bft) O-NO 70 ° 0 min 0 W/m² 8,3 °C 13,2 °C 8,0 km/h (2 Bft)
14.05.2024 23:44 22,4 °C 13,2 °C 53 % 72 % 1010,4 hPa 0,0 l/m² 6,3 km/h (2 Bft) O-NO 71 ° 0 min 0 W/m² 8,3 °C 13,2 °C 8,0 km/h (2 Bft)
14.05.2024 23:46 22,4 °C 13,0 °C 53 % 73 % 1010,4 hPa 0,0 l/m² 5,8 km/h (2 Bft) O-NO 76 ° 0 min 0 W/m² 8,3 °C 13,0 °C 8,0 km/h (2 Bft)
14.05.2024 23:48 22,4 °C 12,8 °C 53 % 73 % 1010,3 hPa 0,0 l/m² 5,7 km/h (2 Bft) O-NO 74 ° 0 min 0 W/m² 8,1 °C 12,8 °C 8,0 km/h (2 Bft)
14.05.2024 23:50 22,4 °C 12,8 °C 53 % 74 % 1010,3 hPa 0,0 l/m² 5,7 km/h (2 Bft) O-NO 76 ° 0 min 0 W/m² 8,3 °C 12,8 °C 8,0 km/h (2 Bft)
14.05.2024 23:51 22,4 °C 12,7 °C 53 % 74 % 1010,3 hPa 0,0 l/m² 5,9 km/h (2 Bft) O-NO 68 ° 0 min 0 W/m² 8,2 °C 12,7 °C 8,0 km/h (2 Bft)
14.05.2024 23:52 22,4 °C 12,6 °C 53 % 74 % 1010,3 hPa 0,0 l/m² 5,3 km/h (1 Bft) O-NO 76 ° 0 min 0 W/m² 8,1 °C 12,6 °C 6,4 km/h (2 Bft)
14.05.2024 23:53 22,4 °C 12,6 °C 53 % 75 % 1010,4 hPa 0,0 l/m² 5,9 km/h (2 Bft) O-NO 69 ° 0 min 0 W/m² 8,3 °C 12,6 °C 6,4 km/h (2 Bft)
14.05.2024 23:55 22,4 °C 12,4 °C 53 % 75 % 1010,4 hPa 0,0 l/m² 5,5 km/h (2 Bft) O-NO 66 ° 0 min 0 W/m² 8,1 °C 12,4 °C 6,4 km/h (2 Bft)
14.05.2024 23:57 22,4 °C 12,4 °C 53 % 76 % 1010,5 hPa 0,0 l/m² 6,1 km/h (2 Bft) O-NO 63 ° 0 min 0 W/m² 8,3 °C 12,4 °C 8,0 km/h (2 Bft)
14.05.2024 23:59 22,4 °C 12,4 °C 53 % 76 % 1010,4 hPa 0,0 l/m² 5,5 km/h (2 Bft) O-NO 66 ° 0 min 0 W/m² 8,3 °C 12,4 °C 6,4 km/h (2 Bft)
_ Min-Zeit 08:18 05:51 19:51 16:25 18:26 - 07:31 - - - - 05:50 05:51 07:31
Minimum _ 22,1 °C 5,4 °C 50 % 36 % 1009,0 hPa - 0,0 km/h (0 Bft) - - - - 3,7 °C 5,4 °C 0,0 km/h (0 Bft)
_ Max-Zeit 22:38 15:05 23:59 06:33 00:21 23:59 17:24 - - 19:51 13:19 10:11 14:18 17:55
Maximum _ 22,7 °C 25,7 °C 53 % 91 % 1012,8 hPa 0,0 l/m² 32,0 km/h
O-NO (5 Bft)
- - 2 min 912 W/m² 13,4 °C 24,6 °C 40,2 km/h
O (6 Bft)
Durchschnitt _ 22,4 °C 17,1 °C 52 % 63 % 1011,1 hPa #0,0 l/m² 10,6 km/h (2 Bft) O - #13:16 h 319 W/m² 9,1 °C 15,9 °C 15,0 km/h (3 Bft)
© 2009 Mathias Hoßbach